[[{"header":{"parameterUnit":"m.s-1","parameterCategory":1,"la1":31.0,"la2":29.5877,"lo1":-88.7671,"lo2":-86.6584,"dy":0.0162,"dx":0.0185,"nx":115,"ny":88,"refTime":"2024-04-09T06:00:00:Z","depth":0,"parameterNumber":2,"parameterNumberName":"U-component_of_WINDS"},"data":[0.0,0.0,0.0,0.0,0.0,0.0,0.0,0.0,0.0,0.0,0.0,0.0,0.0,0.0,0.0,0.0,0.0,0.0,0.0,0.0,0.0,0.0,0.0,0.0,0.0,0.0,0.0,0.0,0.0,0.0,0.0,0.0,0.0,0.0,0.0,0.0,0.0,0.0,0.0,0.0,0.0,0.0,0.0,0.0,0.0,0.0,0.0,0.0,0.0,0.0,0.0,0.0,0.0,0.0,0.0,0.0,0.0,0.0,0.0,0.0,0.0,0.0,0.0,0.0,0.0,0.0,0.0,0.0,0.0,0.0,0.0,0.0,0.0,0.0,0.0,0.0,0.0,0.0,0.0,0.0,0.0,0.0,0.0,0.0,0.0,0.0,0.0,0.0,0.0,0.0,0.0,0.0,0.0,0.0,0.0,0.0,0.0,0.0,0.0,0.0,0.0,0.0,0.0,0.0,0.0,0.0,0.0,0.0,0.0,0.0,0.0,0.0,0.0,0.0,0.0,0.0,0.0,0.0,0.0,0.0,0.0,0.0,0.0,0.0,0.0,0.0,0.0,0.0,0.0,0.0,0.0,0.0,0.0,0.0,0.0,0.0,0.0,0.0,0.0,0.0,0.0,0.0,0.0,0.0,0.0,0.0,0.0,0.0,0.0,0.0,0.0,0.0,0.0,0.0,0.0,0.0,0.0,0.0,0.0,0.0,0.0,0.0,0.0,0.0,0.0,0.0,0.0,0.0,0.0,0.0,0.0,0.0,0.0,0.0,0.0,0.0,0.0,0.0,0.0,0.0,0.0,0.0,0.0,0.0,0.0,0.0,0.0,0.0,0.0,0.0,0.0,0.0,0.0,0.0,0.0,0.0,0.0,0.0,0.0,0.0,0.0,0.0,0.0,0.0,0.0,0.0,0.0,0.0,0.0,0.0,0.0,0.0,0.0,0.0,0.0,0.0,0.0,0.0,0.0,0.0,0.0,0.0,0.0,0.0,0.0,0.0,0.0,0.0,0.0,0.0,0.0,0.0,0.0,0.0,0.0,0.0,0.0,0.0,0.0,0.0,0.0,0.0,0.0,0.0,0.0,0.0,0.0,0.0,0.0,0.0,0.0,0.0,0.0,0.0,0.0,0.0,0.0,0.0,0.0,0.0,0.0,0.0,0.0,0.0,0.0,0.0,0.0,0.0,0.0,0.0,0.0,0.0,0.0,0.0,0.0,0.0,0.0,0.0,0.0,0.0,0.0,0.0,0.0,0.0,0.0,0.0,0.0,0.0,0.0,0.0,0.0,0.0,0.0,0.0,0.0,0.0,0.0,0.0,0.0,0.0,0.0,0.0,0.0,0.0,0.0,0.0,0.0,0.0,0.0,0.0,0.0,0.0,0.0,0.0,0.0,0.0,0.0,0.0,0.0,0.0,0.0,0.0,0.0,0.0,0.0,0.0,0.0,0.0,0.0,0.0,0.0,0.0,0.0,0.0,0.0,0.0,0.0,0.0,0.0,0.0,0.0,0.0,0.0,0.0,0.0,0.0,0.0,0.0,0.0,0.0,0.0,0.0,0.0,0.0,0.0,0.0,0.0,0.0,0.0,0.0,0.0,0.0,0.0,0.0,0.0,0.0,0.0,0.0,0.0,0.0,0.0,0.0,0.0,0.0,0.0,0.0,0.0,0.0,0.0,0.0,0.0,0.0,0.0,0.0,0.0,0.0,0.0,0.0,0.0,0.0,0.0,0.0,0.0,0.0,0.0,0.0,0.0,0.0,0.0,0.0,0.0,0.0,0.0,0.0,0.0,0.0,0.0,0.0,0.0,0.0,0.0,0.0,0.0,0.0,0.0,0.0,0.0,0.0,0.0,0.0,0.0,0.0,0.0,0.0,0.0,0.0,0.0,0.0,0.0,0.0,0.0,0.0,0.0,0.0,0.0,0.0,0.0,0.0,0.0,0.0,0.0,0.0,0.0,0.0,0.0,0.0,0.0,0.0,0.0,0.0,0.0,0.0,0.0,0.0,0.0,0.0,0.0,0.0,0.0,0.0,0.0,0.0,0.0,0.0,0.0,0.0,0.0,0.0,0.0,0.0,0.0,0.0,0.0,0.0,0.0,0.0,0.0,0.0,0.0,0.0,0.0,0.0,0.0,0.0,0.0,0.0,0.0,0.0,0.0,0.0,0.0,0.0,0.0,0.0,0.0,0.0,0.0,0.0,0.0,0.0,0.0,0.0,0.0,0.0,0.0,0.0,0.0,0.0,0.0,0.0,0.0,0.0,0.0,0.0,0.0,0.0,0.0,0.0,0.0,0.0,0.0,0.0,0.0,0.0,0.0,0.0,0.0,0.0,0.0,0.0,0.0,0.0,0.0,0.0,0.0,0.0,0.0,0.0,0.0,0.0,0.0,0.0,0.0,0.0,0.0,0.0,0.0,0.0,0.0,0.0,0.0,0.0,0.0,0.0,0.0,0.0,0.0,0.0,0.0,0.0,0.0,0.0,0.0,0.0,0.0,0.0,0.0,0.0,0.0,0.0,0.0,0.0,0.0,0.0,0.0,0.0,0.0,0.0,0.0,0.0,0.0,0.0,0.0,0.0,0.0,0.0,0.0,0.0,0.0,0.0,0.0,0.0,0.0,0.0,0.0,0.0,0.0,0.0,0.0,0.0,0.0,0.0,0.0,0.0,0.0,0.0,0.0,0.0,0.0,0.0,0.0,0.0,0.0,0.0,0.0,0.0,0.0,0.0,0.0,0.0,0.0,0.0,0.0,0.0,0.0,0.0,0.0,0.0,0.0,0.0,0.0,0.0,0.0,0.0,0.0,0.0,0.0,0.0,0.0,0.0,0.0,0.0,0.0,0.0,0.0,0.0,0.0,0.0,0.0,0.0,0.0,0.0,0.0,0.0,0.0,0.0,0.0,0.0,0.0,0.0,0.0,0.0,0.0,0.0,0.0,0.0,0.0,0.0,0.0,0.0,0.0,0.0,0.0,0.0,0.0,0.0,0.0,0.0,0.0,0.0,0.0,0.0,0.0,0.0,0.0,0.0,0.0,0.0,0.0,0.0,0.0,0.0,0.0,0.0,0.0,0.0,0.0,0.0,0.0,0.0,0.0,0.0,0.0,0.0,0.0,0.0,0.0,0.0,0.0,0.0,0.0,0.0,0.0,0.0,0.0,0.0,0.0,0.0,0.0,0.0,0.0,0.0,0.0,0.0,0.0,0.0,0.0,0.0,0.0,0.0,0.0,0.0,0.0,0.0,0.0,0.0,0.0,0.0,0.0,0.0,0.0,0.0,0.0,0.0,0.0,0.0,0.0,0.0,0.0,0.0,0.0,0.0,0.0,0.0,0.0,0.0,0.0,0.0,0.0,0.0,0.0,0.0,0.0,0.0,0.0,0.0,0.0,0.0,0.0,0.0,0.0,0.0,0.0,0.0,0.0,0.0,0.0,0.0,0.0,0.0,0.0,0.0,0.0,0.0,0.0,0.0,0.0,0.0,0.0,0.0,0.0,0.0,0.0,0.0,0.0,0.0,0.0,0.0,0.0,0.0,0.0,0.0,0.0,0.0,0.0,0.0,0.0,0.0,0.0,0.0,0.0,0.0,0.0,0.0,0.0,0.0,0.0,0.0,0.0,0.0,0.0,0.0,0.0,0.0,0.0,0.0,0.0,0.0,0.0,0.0,0.0,0.0,0.0,0.0,0.0,0.0,0.0,0.0,0.0,0.0,0.0,0.0,0.0,0.0,0.0,0.0,0.0,0.0,0.0,0.0,0.0,0.0,0.0,0.0,0.0,0.0,0.0,0.0,0.0,0.0,0.0,0.0,0.0,0.0,0.0,0.0,0.0,0.0,0.0,0.0,0.0,0.0,0.0,0.0,0.0,0.0,0.0,0.0,0.0,0.0,0.0,0.0,0.0,0.0,0.0,0.0,0.0,0.0,0.0,0.0,0.0,0.0,0.0,0.0,0.0,0.0,0.0,0.0,0.0,0.0,0.0,0.0,0.0,0.0,0.0,0.0,0.0,0.0,0.0,0.0,0.0,0.0,0.0,0.0,0.0,0.0,0.0,0.0,0.0,0.0,0.0,0.0,0.0,0.0,0.0,0.0,0.0,0.0,0.0,0.0,0.0,0.0,0.0,0.0,0.0,0.0,0.0,0.0,0.0,0.0,0.0,0.0,0.0,0.0,0.0,0.0,0.0,0.0,0.0,0.0,0.0,0.0,0.0,0.0,0.0,0.0,0.0,0.0,0.0,0.0,0.0,0.0,0.0,0.0,0.0,0.0,-1.4794,0.0,0.0,0.0,0.0,0.0,0.0,0.0,0.0,0.0,0.0,0.0,0.0,0.0,0.0,0.0,0.0,0.0,0.0,0.0,0.0,0.0,0.0,0.0,0.0,0.0,0.0,0.0,0.0,0.0,0.0,0.0,0.0,0.0,0.0,0.0,0.0,0.0,0.0,0.0,0.0,0.0,0.0,0.0,0.0,0.0,0.0,0.0,0.0,0.0,0.0,0.0,0.0,0.0,0.0,0.0,0.0,0.0,0.0,0.0,0.0,0.0,0.0,0.0,0.0,0.0,0.0,0.0,0.0,0.0,0.0,0.0,0.0,0.0,0.0,0.0,0.0,0.0,0.0,0.0,0.0,0.0,0.0,0.0,0.0,0.0,0.0,0.0,0.0,0.0,0.0,0.0,0.0,0.0,0.0,0.0,0.0,0.0,0.0,0.0,0.0,0.0,0.0,0.0,0.0,0.0,0.0,0.0,0.0,0.0,0.0,-1.4446,-1.4592,-1.4705,-1.4785,-1.485,0.0,0.0,0.0,0.0,0.0,0.0,0.0,0.0,0.0,0.0,0.0,0.0,0.0,0.0,0.0,0.0,0.0,0.0,0.0,0.0,0.0,0.0,0.0,0.0,0.0,0.0,0.0,0.0,0.0,0.0,0.0,0.0,0.0,0.0,0.0,0.0,0.0,0.0,0.0,0.0,0.0,0.0,0.0,0.0,0.0,0.0,0.0,0.0,0.0,0.0,0.0,0.0,0.0,0.0,0.0,0.0,0.0,0.0,0.0,0.0,0.0,0.0,0.0,0.0,0.0,0.0,0.0,0.0,0.0,0.0,0.0,0.0,0.0,0.0,0.0,0.0,0.0,0.0,0.0,0.0,0.0,0.0,0.0,0.0,0.0,0.0,0.0,0.0,0.0,0.0,0.0,0.0,0.0,0.0,0.0,0.0,0.0,0.0,0.0,0.0,0.0,0.0,0.0,0.0,0.0,0.0,0.0,0.0,0.0,0.0,0.0,0.0,-1.4734,-1.4823,-1.4867,0.0,0.0,0.0,0.0,0.0,0.0,0.0,0.0,0.0,0.0,0.0,0.0,0.0,0.0,0.0,0.0,0.0,0.0,0.0,0.0,0.0,0.0,0.0,0.0,0.0,0.0,0.0,0.0,0.0,0.0,0.0,0.0,0.0,0.0,0.0,0.0,0.0,0.0,0.0,0.0,0.0,0.0,0.0,0.0,0.0,0.0,0.0,0.0,0.0,0.0,0.0,0.0,0.0,0.0,0.0,0.0,0.0,0.0,0.0,0.0,0.0,0.0,0.0,0.0,0.0,0.0,0.0,0.0,0.0,0.0,0.0,0.0,0.0,0.0,0.0,0.0,0.0,0.0,0.0,0.0,0.0,0.0,0.0,0.0,0.0,0.0,0.0,0.0,0.0,0.0,0.0,0.0,0.0,0.0,0.0,0.0,0.0,0.0,0.0,0.0,0.0,0.0,0.0,0.0,0.0,0.0,0.0,0.0,0.0,0.0,-1.4444,-1.4585,-1.4716,0.0,-1.4812,0.0,0.0,0.0,0.0,0.0,0.0,0.0,0.0,0.0,0.0,0.0,0.0,0.0,0.0,0.0,0.0,0.0,0.0,0.0,0.0,0.0,0.0,0.0,0.0,0.0,0.0,0.0,0.0,0.0,0.0,0.0,0.0,0.0,0.0,0.0,0.0,0.0,0.0,0.0,0.0,0.0,0.0,0.0,0.0,0.0,0.0,0.0,0.0,0.0,0.0,0.0,0.0,0.0,0.0,0.0,0.0,0.0,0.0,0.0,0.0,0.0,0.0,0.0,0.0,0.0,0.0,0.0,0.0,0.0,0.0,0.0,0.0,0.0,0.0,0.0,0.0,0.0,0.0,0.0,0.0,0.0,0.0,0.0,0.0,0.0,0.0,0.0,0.0,0.0,0.0,0.0,0.0,0.0,0.0,0.0,0.0,0.0,0.0,0.0,0.0,0.0,0.0,0.0,0.0,0.0,0.0,0.0,0.0,0.0,0.0,-1.4474,-1.4654,-1.4746,-1.4832,0.0,0.0,0.0,0.0,0.0,0.0,0.0,0.0,0.0,0.0,0.0,0.0,0.0,0.0,0.0,0.0,0.0,0.0,0.0,0.0,0.0,0.0,0.0,0.0,0.0,0.0,0.0,0.0,0.0,0.0,0.0,0.0,0.0,0.0,0.0,0.0,0.0,0.0,0.0,0.0,0.0,0.0,0.0,0.0,0.0,0.0,0.0,0.0,0.0,0.0,0.0,0.0,0.0,0.0,0.0,0.0,0.0,0.0,0.0,0.0,0.0,0.0,0.0,0.0,0.0,0.0,0.0,0.0,0.0,0.0,0.0,0.0,0.0,0.0,0.0,0.0,0.0,0.0,0.0,0.0,0.0,0.0,0.0,0.0,0.0,0.0,0.0,0.0,0.0,0.0,0.0,0.0,0.0,0.0,0.0,0.0,0.0,0.0,0.0,0.0,0.0,0.0,0.0,0.0,0.0,0.0,0.0,0.0,0.0,0.0,-1.4368,-1.4519,-1.4724,-1.4776,-1.4877,-1.4984,0.0,0.0,0.0,0.0,0.0,0.0,0.0,0.0,0.0,0.0,0.0,0.0,0.0,0.0,0.0,0.0,0.0,0.0,0.0,0.0,0.0,0.0,0.0,0.0,0.0,0.0,0.0,0.0,0.0,0.0,0.0,0.0,0.0,0.0,0.0,0.0,0.0,0.0,0.0,0.0,0.0,0.0,0.0,0.0,0.0,0.0,0.0,0.0,0.0,0.0,0.0,0.0,0.0,0.0,0.0,0.0,0.0,0.0,0.0,0.0,0.0,0.0,0.0,0.0,0.0,0.0,0.0,0.0,0.0,0.0,0.0,0.0,0.0,0.0,0.0,0.0,0.0,0.0,0.0,0.0,0.0,0.0,0.0,0.0,0.0,0.0,0.0,0.0,0.0,0.0,0.0,0.0,0.0,0.0,0.0,0.0,0.0,0.0,0.0,0.0,0.0,0.0,0.0,0.0,0.0,0.0,0.0,0.0,-1.4313,-1.4458,-1.4595,-1.4841,-1.4868,-1.4895,0.0,0.0,0.0,0.0,0.0,0.0,0.0,0.0,0.0,0.0,0.0,0.0,0.0,0.0,0.0,0.0,0.0,0.0,0.0,0.0,0.0,0.0,0.0,0.0,0.0,0.0,0.0,0.0,0.0,0.0,0.0,0.0,0.0,0.0,0.0,0.0,0.0,0.0,0.0,0.0,0.0,0.0,0.0,0.0,0.0,0.0,0.0,0.0,0.0,0.0,0.0,0.0,0.0,0.0,0.0,0.0,0.0,0.0,0.0,0.0,0.0,0.0,0.0,0.0,0.0,0.0,0.0,0.0,0.0,0.0,0.0,0.0,0.0,0.0,0.0,0.0,0.0,0.0,0.0,0.0,0.0,0.0,0.0,0.0,0.0,0.0,0.0,0.0,0.0,0.0,0.0,0.0,0.0,0.0,0.0,0.0,0.0,0.0,0.0,0.0,0.0,0.0,0.0,0.0,0.0,0.0,0.0,0.0,0.0,-1.5145,-1.5857,-1.6306,-1.6448,-1.5998,-1.5715,0.0,0.0,0.0,0.0,0.0,0.0,0.0,0.0,0.0,0.0,0.0,0.0,0.0,0.0,0.0,0.0,0.0,0.0,0.0,0.0,0.0,0.0,0.0,0.0,0.0,0.0,0.0,0.0,0.0,0.0,0.0,0.0,0.0,0.0,0.0,0.0,0.0,0.0,0.0,0.0,0.0,0.0,0.0,0.0,0.0,0.0,0.0,0.0,0.0,0.0,0.0,0.0,0.0,0.0,0.0,0.0,0.0,0.0,0.0,0.0,0.0,0.0,0.0,0.0,0.0,0.0,0.0,0.0,0.0,0.0,0.0,0.0,0.0,0.0,0.0,0.0,0.0,0.0,0.0,0.0,0.0,0.0,0.0,0.0,0.0,0.0,0.0,0.0,0.0,0.0,0.0,0.0,0.0,0.0,0.0,0.0,0.0,0.0,0.0,0.0,0.0,0.0,0.0,0.0,0.0,0.0,0.0,0.0,0.0,-1.6096,0.0,-1.7291,-1.7413,-1.6876,-1.6451,0.0,0.0,0.0,0.0,0.0,0.0,0.0,0.0,0.0,0.0,0.0,0.0,0.0,0.0,0.0,0.0,0.0,0.0,0.0,0.0,0.0,0.0,0.0,0.0,0.0,0.0,0.0,0.0,0.0,0.0,0.0,0.0,0.0,0.0,0.0,0.0,0.0,0.0,0.0,0.0,0.0,0.0,0.0,0.0,0.0,0.0,0.0,0.0,0.0,0.0,0.0,0.0,0.0,0.0,0.0,0.0,0.0,0.0,0.0,0.0,0.0,0.0,0.0,0.0,0.0,0.0,0.0,0.0,0.0,0.0,0.0,0.0,0.0,0.0,0.0,0.0,0.0,0.0,0.0,0.0,0.0,0.0,0.0,0.0,0.0,0.0,0.0,0.0,0.0,0.0,0.0,0.0,0.0,0.0,0.0,0.0,0.0,0.0,0.0,0.0,0.0,0.0,0.0,0.0,0.0,0.0,0.0,0.0,-1.6758,-1.7108,-1.7285,-1.7487,-1.752,-1.7473,-1.7037,0.0,0.0,0.0,0.0,0.0,0.0,0.0,0.0,0.0,0.0,0.0,0.0,0.0,0.0,0.0,0.0,0.0,0.0,0.0,0.0,0.0,0.0,0.0,0.0,0.0,0.0,0.0,0.0,0.0,0.0,0.0,0.0,0.0,0.0,0.0,0.0,0.0,0.0,0.0,0.0,0.0,0.0,0.0,0.0,0.0,0.0,0.0,0.0,0.0,0.0,0.0,0.0,0.0,0.0,0.0,0.0,0.0,0.0,0.0,0.0,0.0,0.0,0.0,0.0,0.0,0.0,0.0,0.0,0.0,0.0,0.0,0.0,0.0,0.0,0.0,0.0,0.0,0.0,0.0,0.0,0.0,0.0,0.0,0.0,0.0,0.0,0.0,0.0,0.0,0.0,0.0,0.0,0.0,0.0,0.0,0.0,0.0,0.0,0.0,0.0,0.0,0.0,0.0,0.0,0.0,0.0,0.0,0.0,0.0,-1.8914,-1.9012,-1.9133,-1.9216,-1.8659,-1.8232,0.0,0.0,0.0,0.0,0.0,0.0,0.0,0.0,0.0,0.0,0.0,0.0,0.0,0.0,0.0,0.0,0.0,0.0,0.0,0.0,0.0,0.0,0.0,0.0,0.0,0.0,0.0,0.0,0.0,0.0,0.0,0.0,0.0,0.0,0.0,0.0,0.0,0.0,0.0,0.0,0.0,0.0,0.0,0.0,0.0,0.0,0.0,0.0,0.0,0.0,0.0,0.0,0.0,0.0,0.0,0.0,0.0,0.0,0.0,0.0,0.0,0.0,0.0,0.0,0.0,0.0,0.0,0.0,0.0,0.0,0.0,0.0,0.0,0.0,0.0,0.0,0.0,0.0,0.0,0.0,0.0,0.0,0.0,0.0,0.0,0.0,0.0,0.0,0.0,0.0,0.0,0.0,0.0,0.0,0.0,0.0,0.0,0.0,0.0,0.0,0.0,0.0,0.0,0.0,0.0,0.0,0.0,0.0,0.0,-2.1192,-2.0984,-2.1047,-2.1437,-2.0335,-1.9563,-1.9219,0.0,0.0,0.0,0.0,0.0,0.0,0.0,0.0,0.0,0.0,0.0,0.0,0.0,0.0,0.0,0.0,0.0,0.0,0.0,0.0,0.0,0.0,0.0,0.0,0.0,0.0,0.0,0.0,0.0,0.0,0.0,0.0,0.0,0.0,0.0,0.0,0.0,0.0,0.0,0.0,0.0,0.0,0.0,0.0,0.0,0.0,0.0,0.0,0.0,0.0,0.0,0.0,0.0,0.0,0.0,0.0,0.0,0.0,0.0,0.0,0.0,0.0,0.0,0.0,0.0,0.0,0.0,0.0,0.0,0.0,0.0,0.0,0.0,0.0,0.0,0.0,0.0,0.0,0.0,0.0,0.0,0.0,0.0,0.0,0.0,0.0,0.0,0.0,0.0,0.0,0.0,0.0,0.0,0.0,0.0,0.0,0.0,0.0,0.0,0.0,0.0,0.0,0.0,0.0,0.0,0.0,0.0,0.0,-2.3834,-2.3156,-2.3157,-2.3815,-2.2246,-2.1013,0.0,0.0,0.0,0.0,0.0,0.0,0.0,0.0,0.0,0.0,0.0,0.0,0.0,0.0,0.0,0.0,0.0,0.0,0.0,0.0,0.0,0.0,0.0,0.0,0.0,0.0,0.0,0.0,0.0,0.0,0.0,0.0,0.0,0.0,0.0,0.0,0.0,0.0,0.0,0.0,0.0,0.0,0.0,0.0,0.0,0.0,0.0,0.0,0.0,0.0,0.0,0.0,0.0,0.0,0.0,0.0,0.0,0.0,0.0,0.0,0.0,0.0,0.0,0.0,0.0,0.0,0.0,0.0,0.0,0.0,0.0,0.0,0.0,0.0,0.0,0.0,0.0,0.0,0.0,0.0,0.0,0.0,0.0,0.0,0.0,0.0,0.0,0.0,0.0,0.0,0.0,0.0,0.0,0.0,0.0,0.0,0.0,0.0,0.0,0.0,0.0,0.0,0.0,0.0,0.0,0.0,0.0,0.0,0.0,-2.5666,-2.6147,-2.5627,-2.402,-2.291,-2.1933,0.0,0.0,0.0,0.0,0.0,0.0,0.0,0.0,0.0,0.0,0.0,0.0,0.0,0.0,0.0,0.0,0.0,0.0,0.0,0.0,0.0,0.0,0.0,0.0,0.0,0.0,0.0,0.0,0.0,0.0,0.0,0.0,0.0,0.0,0.0,0.0,0.0,0.0,0.0,0.0,0.0,0.0,0.0,0.0,0.0,0.0,0.0,0.0,0.0,0.0,0.0,0.0,0.0,0.0,0.0,0.0,0.0,0.0,0.0,0.0,0.0,0.0,0.0,0.0,0.0,0.0,0.0,0.0,0.0,0.0,0.0,0.0,0.0,0.0,0.0,0.0,0.0,0.0,0.0,0.0,0.0,0.0,0.0,0.0,0.0,0.0,0.0,0.0,0.0,0.0,0.0,0.0,0.0,0.0,0.0,0.0,0.0,0.0,0.0,0.0,0.0,0.0,0.0,0.0,0.0,0.0,0.0,0.0,-2.5931,-2.695,-2.8222,-2.8007,-2.6184,-2.4619,-2.3208,0.0,0.0,0.0,0.0,0.0,0.0,0.0,0.0,0.0,0.0,0.0,0.0,0.0,0.0,0.0,0.0,0.0,0.0,0.0,0.0,0.0,0.0,0.0,0.0,0.0,0.0,0.0,0.0,0.0,0.0,0.0,0.0,0.0,0.0,0.0,0.0,0.0,0.0,0.0,0.0,0.0,0.0,0.0,0.0,0.0,0.0,0.0,0.0,0.0,0.0,0.0,0.0,0.0,0.0,0.0,0.0,0.0,0.0,0.0,0.0,0.0,0.0,0.0,0.0,0.0,0.0,0.0,0.0,0.0,0.0,0.0,0.0,0.0,0.0,0.0,0.0,0.0,0.0,0.0,0.0,0.0,0.0,0.0,0.0,0.0,0.0,0.0,0.0,0.0,0.0,0.0,0.0,0.0,0.0,0.0,0.0,0.0,0.0,0.0,0.0,0.0,0.0,0.0,0.0,0.0,0.0,0.0,0.0,-2.6937,-2.7975,-2.9574,-3.0025,-2.9198,-2.6783,-2.4667,0.0,0.0,0.0,0.0,0.0,0.0,0.0,0.0,0.0,0.0,0.0,0.0,0.0,0.0,0.0,0.0,0.0,0.0,0.0,0.0,0.0,0.0,0.0,0.0,0.0,0.0,0.0,0.0,0.0,0.0,0.0,0.0,0.0,0.0,0.0,0.0,0.0,0.0,0.0,0.0,0.0,0.0,0.0,0.0,0.0,0.0,0.0,0.0,0.0,0.0,0.0,0.0,0.0,0.0,0.0,0.0,0.0,0.0,0.0,0.0,0.0,0.0,0.0,0.0,0.0,0.0,0.0,0.0,0.0,0.0,0.0,0.0,0.0,0.0,0.0,0.0,0.0,0.0,0.0,0.0,0.0,0.0,0.0,0.0,0.0,0.0,0.0,0.0,0.0,0.0,0.0,0.0,0.0,0.0,0.0,0.0,0.0,0.0,0.0,0.0,0.0,0.0,0.0,0.0,0.0,0.0,0.0,0.0,-2.8109,-2.9698,-3.0182,-3.0314,-3.0121,-2.7657,-2.5821,0.0,0.0,0.0,0.0,0.0,0.0,0.0,0.0,0.0,0.0,0.0,0.0,0.0,0.0,0.0,0.0,0.0,0.0,0.0,0.0,0.0,0.0,0.0,0.0,0.0,0.0,0.0,0.0,0.0,0.0,0.0,0.0,0.0,0.0,0.0,0.0,0.0,0.0,0.0,0.0,0.0,0.0,0.0,0.0,0.0,0.0,0.0,0.0,0.0932,0.0,0.0,0.0,0.0,0.0,0.0,0.0,0.0,0.0,0.0,0.0,0.0,0.0,0.0,0.0,0.0,0.0,0.0,0.0,0.0,0.0,0.0,0.0,0.0,0.0,0.0,0.0,0.0,0.0,0.0,0.0,0.0,0.0,0.0,0.0,0.0,0.0,0.0,0.0,0.0,0.0,0.0,0.0,0.0,0.0,0.0,0.0,0.0,0.0,0.0,0.0,0.0,0.0,0.0,0.0,0.0,0.0,0.0,0.0,-2.8912,-3.0311,-3.077,-3.1025,-3.0948,-2.8917,-2.6984,0.0,0.0,0.0,0.0,0.0,0.0,0.0,0.0,0.0,0.0,0.0,0.0,0.0,0.0,0.0,0.0,0.0,0.0,0.0,0.0,0.0,0.0,0.0,0.0,0.0,0.0,0.0,0.0,0.0,0.0,0.0,0.0,0.0,0.0,0.0,0.0,0.0,0.0,0.0,0.0,0.0,0.0,0.0,0.0,0.0,0.0,0.0,0.0,0.0,0.0,0.0,0.0,0.0,0.0,0.0,0.0,0.0,0.0,0.0,0.0,0.0,0.0,0.0,0.0,0.0,0.0,0.0,0.0,0.0,0.0,0.0,0.0,0.0,0.0,0.0,0.0,0.0,0.0,0.0,0.0,0.0,0.0,0.0,0.0,0.0,0.0,0.0,0.0,0.0,0.0,0.0,0.0,0.0,0.0,0.0,0.0,0.0,0.0,0.0,0.0,0.0,0.0,0.0,0.0,0.0,0.0,0.0,-2.7821,-2.9646,-3.0758,-3.1513,-3.1891,-3.1852,-3.0198,-2.8159,-2.5803,0.0,0.0,0.0,0.0,0.0,0.0,0.0,0.0,0.0,0.0,0.0,0.0,0.0,0.0,0.0,0.0,0.0,0.0,0.0,0.0,0.0,0.0,0.0,0.0,0.0,0.0,0.0,0.0,0.0,0.0,0.0,0.0,0.0,0.0,0.0,0.0,0.0,0.0,-0.8895,-0.9989,0.0,0.0,0.0,0.0,0.0,0.0,0.0,0.0,-0.5623,0.0,0.0,0.0,0.0,0.0,0.0,0.0,0.0,0.0,0.0,0.0,0.0,0.0,0.0,0.0,0.0,0.0,0.0,0.0,0.0,0.0,0.0,0.0,0.0,0.0,0.0,0.0,0.0,0.0,0.0,0.0,0.0,0.0,0.0,0.0,0.0,0.0,0.0,0.0,0.0,0.0,0.0,0.0,0.0,0.0,0.0,0.0,0.0,0.0,0.0,0.0,0.0,0.0,0.0,0.0,0.0,-2.7072,-2.9058,-3.0848,-3.2455,-3.2622,-3.2699,-3.266,-3.1083,-2.9352,-2.7505,0.0,0.0,0.0,0.0,0.0,0.0,0.0,0.0,0.0,0.0,0.0,0.0,0.0,0.0,0.0,0.0,0.0,0.0,0.0,0.0,0.0,0.0,0.0,0.0,0.0,0.0,0.0,0.0,0.0,0.0,0.0,0.0,0.0,0.0,0.0,0.0,0.0,0.0,0.0,-1.1412,-1.2211,0.0,0.0,0.0,0.0,0.0,0.0,0.0,0.0,-1.0121,0.0,0.0,0.0,0.0,0.0,0.0,0.0,0.0,0.0,0.0,0.0,0.0,0.0,0.0,0.0,0.0,0.0,0.0,0.0,0.0,0.0,0.0,0.0,0.0,0.0,0.0,0.0,0.0,0.0,0.0,0.0,0.0,0.0,0.0,0.0,0.0,0.0,0.0,0.0,0.0,0.0,0.0,0.0,0.0,0.0,0.0,0.0,0.0,0.0,0.0,0.0,0.0,0.0,0.0,0.0,-2.8141,-3.0035,-3.1828,-3.3506,-3.3564,-3.3353,-3.2891,-3.1275,-2.9602,0.0,0.0,0.0,0.0,0.0,0.0,0.0,0.0,0.0,0.0,0.0,0.0,0.0,0.0,0.0,0.0,0.0,0.0,0.0,0.0,0.0,0.0,0.0,0.0,0.0,0.0,0.0,0.0,0.0,0.0,0.0,0.0,0.0,0.0,0.0,0.0,0.0,0.0,0.0,0.0,-1.3281,-1.4591,-1.5381,0.0,0.0,0.0,0.0,0.0,0.0,-1.7011,-1.4642,0.0,0.0,0.0,0.0,0.0,0.0,0.0,0.0,0.0,0.0,0.0,0.0,0.0,0.0,0.0,0.0,0.0,0.0,0.0,0.0,0.0,0.0,0.0,0.0,0.0,0.0,0.0,0.0,0.0,0.0,0.0,0.0,0.0,0.0,0.0,0.0,0.0,0.0,0.0,0.0,0.0,0.0,0.0,0.0,0.0,0.0,0.0,0.0,0.0,0.0,0.0,0.0,0.0,0.0,0.0,-2.876,-3.0762,-3.2563,-3.4122,-3.4372,-3.3968,-3.291,-3.1275,-2.9621,0.0,0.0,0.0,0.0,0.0,0.0,0.0,0.0,0.0,0.0,0.0,0.0,0.0,0.0,0.0,0.0,0.0,0.0,0.0,0.0,0.0,0.0,0.0,0.0,0.0,0.0,0.0,0.0,0.0,0.0,0.0,0.0,0.0,0.0,0.0,0.0,0.0,0.0,0.0,0.0,0.0,-1.6865,-1.8104,-1.8311,0.0,0.0,0.0,0.0,-2.1405,-2.0359,0.0,0.0,0.0,0.0,0.0,0.0,0.0,0.0,0.0,0.0,0.0,0.0,0.0,0.0,0.0,0.0,0.0,0.0,0.0,0.0,0.0,0.0,0.0,0.0,0.0,0.0,0.0,0.0,0.0,0.0,0.0,0.0,0.0,0.0,0.0,0.0,0.0,0.0,0.0,0.0,0.0,0.0,0.0,0.0,0.0,0.0,0.0,0.0,0.0,0.0,0.0,0.0,0.0,0.0,0.0,0.0,-2.8836,-3.1161,-3.2966,-3.416,-3.4968,-3.4564,-3.2929,-3.1275,-2.9621,0.0,0.0,0.0,0.0,0.0,0.0,0.0,0.0,0.0,0.0,0.0,0.0,0.0,0.0,0.0,0.0,0.0,0.0,0.0,0.0,0.0,0.0,0.0,0.0,0.0,0.0,0.0,0.0,0.0,0.0,0.0,0.0,0.0,0.0,0.0,0.0,0.0,0.0,0.0,0.0,0.0,-1.7986,-1.8869,-1.9812,-2.0566,0.0,0.0,0.0,-2.3182,-2.304,0.0,0.0,0.0,0.0,0.0,0.0,0.0,0.0,0.0,0.0,0.0,0.0,0.0,0.0,0.0,0.0,0.0,0.0,0.0,0.0,0.0,0.0,0.0,0.0,0.0,0.0,0.0,0.0,0.0,0.0,0.0,0.0,0.0,0.0,0.0,0.0,0.0,0.0,0.0,0.0,0.0,0.0,0.0,0.0,0.0,0.0,0.0,0.0,0.0,0.0,0.0,0.0,0.0,0.0,0.0,-2.8305,-3.0238,-3.1891,-3.3445,-3.4859,-3.5315,-3.468,-3.2949,-3.1756,-3.0121,0.0,0.0,0.0,0.0,0.0,0.0,0.0,0.0,0.0,0.0,0.0,0.0,0.0,0.0,0.0,0.0,0.0,0.0,0.0,0.0,0.0,0.0,0.0,0.0,0.0,0.0,0.0,0.0,0.0,0.0,0.0,0.0,0.0,0.0,0.0,0.0,0.0,0.0,0.0,0.0,0.0,0.0,-2.069,-2.1988,0.0,0.0,0.0,-2.4677,-2.5526,0.0,0.0,0.0,0.0,0.0,0.0,0.0,0.0,0.0,0.0,0.0,0.0,0.0,0.0,0.0,0.0,0.0,0.0,0.0,0.0,0.0,0.0,0.0,0.0,0.0,0.0,0.0,0.0,0.0,0.0,0.0,0.0,0.0,0.0,0.0,0.0,0.0,0.0,0.0,0.0,0.0,0.0,0.0,0.0,0.0,0.0,0.0,0.0,0.0,0.0,0.0,0.0,0.0,0.0,0.0,0.0,0.0,-3.1374,-3.2555,-3.389,-3.5416,-3.5507,-3.468,-3.2949,-3.2122,0.0,0.0,0.0,0.0,0.0,0.0,0.0,0.0,0.0,0.0,0.0,0.0,0.0,0.0,0.0,0.0,0.0,0.0,0.0,0.0,0.0,0.0,0.0,0.0,0.0,0.0,0.0,0.0,0.0,0.0,0.0,0.0,0.0,0.0,0.0,0.0,0.0,0.0,0.0,0.0,0.0,0.0,-2.1926,-2.2514,-2.3916,-2.5268,0.0,0.0,-2.6314,-2.6926,-2.5841,-2.3927,0.0,0.0,0.0,0.0,0.0,0.0,0.0,0.0,0.0,0.0,0.0,0.0,0.0,0.0,0.0,0.0,0.0,0.0,0.0,0.0,0.0,0.0,0.0,0.0,0.0,0.0,0.0,0.0,0.0,0.0,0.0,0.0,0.0,0.0,0.0,0.0,0.0,0.0,0.0,0.0,0.0,0.0,0.0,0.0,0.0,0.0,0.0,0.0,0.0,0.0,0.0,0.0,0.0,0.0,0.0,-3.1456,-3.2974,-3.4312,-3.5435,-3.5507,-3.468,-3.2949,-3.2141,-3.0525,0.0,0.0,0.0,0.0,0.0,0.0,0.0,0.0,0.0,0.0,0.0,0.0,0.0,0.0,0.0,0.0,0.0,0.0,0.0,0.0,0.0,0.0,0.0,0.0,0.0,0.0,0.0,0.0,0.0,0.0,0.0,0.0,0.0,0.0,0.0,0.0,0.0,0.0,0.0,0.0,0.0,-2.3353,-2.3879,-2.5274,-2.6574,0.0,0.0,-2.8034,-2.6514,-2.7196,-2.6263,-2.1478,0.0,0.0,0.0,0.0,0.0,0.0,0.0,0.0,0.0,0.0,0.0,0.0,0.0,0.0,0.0,0.0,0.0,0.0,0.0,0.0,0.0,0.0,0.0,0.0,0.0,0.0,0.0,0.0,0.0,0.0,0.0,0.0,0.0,0.0,0.0,0.0,0.0,0.0,0.0,0.0,0.0,0.0,0.0,0.0,0.0,0.0,0.0,0.0,0.0,0.0,0.0,0.0,0.0,-3.0414,-3.2288,-3.3456,-3.4529,-3.5435,-3.5507,-3.493,-3.3718,-3.3391,-3.2045,0.0,0.0,0.0,0.0,0.0,0.0,0.0,0.0,0.0,0.0,0.0,0.0,0.0,0.0,0.0,0.0,0.0,0.0,0.0,0.0,0.0,0.0,0.0,0.0,0.0,0.0,0.0,0.0,-1.6697,-1.653,-1.5785,0.0,0.0,0.0,0.0,0.0,0.0,0.0,0.0,0.0,0.0,-2.4677,-2.576,-2.6801,0.0,0.0,-2.8752,-2.8879,-2.8757,-2.8087,-2.6721,-2.4181,-2.1579,0.0,0.0,0.0,0.0,0.0,0.0,0.0,0.0,0.0,0.0,0.0,0.0,0.0,0.0,0.0,0.0,0.0,0.0,0.0,0.0,0.0,0.0,0.0,0.0,0.0,0.0,0.0,0.0,0.0,0.0,0.0,0.0,0.0,0.0,0.0,0.0,0.0,0.0,0.0,0.0,0.0,0.0,0.0,0.0,0.0,0.0,0.0,0.0,0.0,0.0,0.0,0.0,-3.168,-3.3178,-3.4351,-3.5122,-3.5488,-3.5507,-3.5084,-3.4257,-3.4199,-3.3122,0.0,0.0,0.0,0.0,0.0,0.0,0.0,0.0,0.0,0.0,0.0,0.0,0.0,0.0,0.0,0.0,0.0,0.0,0.0,0.0,0.0,0.0,0.0,0.0,0.0,0.0,0.0,0.0,-1.8504,-1.8176,-1.7025,0.0,0.0,0.0,0.0,0.0,0.0,0.0,0.0,0.0,0.0,-2.5967,-2.7259,-2.8251,-2.8998,-2.9407,-2.9538,-2.9669,-2.9888,-2.8736,-2.7363,-2.6224,0.0,0.0,0.0,0.0,0.0,0.0,0.0,0.0,0.0,0.0,0.0,0.0,0.0,0.0,0.0,0.0,0.0,0.0,0.0,0.0,0.0,0.0,0.0,0.0,0.0,0.0,0.0,0.0,0.0,0.0,0.0,0.0,0.0,0.0,0.0,0.0,0.0,0.0,0.0,0.0,0.0,0.0,0.0,0.0,0.0,0.0,0.0,0.0,0.0,0.0,0.0,0.0,0.0,0.0,-3.4069,-3.5753,-3.6276,-3.5545,-3.5507,-3.5122,-3.4257,-3.4218,-3.341,-3.1698,0.0,0.0,0.0,0.0,0.0,0.0,0.0,0.0,0.0,0.0,0.0,0.0,0.0,0.0,0.0,0.0,0.0,0.0,0.0,0.0,0.0,0.0,0.0,0.0,0.0,0.0,-1.9524,-1.9573,-1.9207,0.0,0.0,0.0,0.0,0.0,0.0,0.0,0.0,0.0,0.0,-2.5332,-2.7242,-2.8315,-2.9538,-3.0366,-3.0542,-3.0721,-3.0443,-2.9387,-2.9103,-2.8531,0.0,0.0,0.0,0.0,0.0,0.0,0.0,0.0,0.0,0.0,0.0,0.0,0.0,0.0,0.0,0.0,0.0,0.0,0.0,0.0,0.0,0.0,0.0,0.0,0.0,0.0,0.0,0.0,-2.8241,0.0,0.0,0.0,0.0,0.0,0.0,0.0,0.0,0.0,0.0,0.0,-3.2684,-3.3238,0.0,0.0,0.0,0.0,0.0,0.0,0.0,0.0,0.0,0.0,0.0,0.0,-3.405,-3.4995,-3.669,-3.7161,-3.6334,-3.6315,-3.5911,-3.5084,-3.5064,-3.4007,-3.1756,0.0,0.0,0.0,0.0,0.0,0.0,0.0,0.0,0.0,0.0,0.0,0.0,0.0,0.0,0.0,0.0,0.0,0.0,0.0,0.0,0.0,0.0,0.0,0.0,0.0,-2.1494,0.0,0.0,0.0,0.0,0.0,0.0,0.0,0.0,0.0,0.0,0.0,-2.2467,-2.4557,-2.6096,-2.7689,-2.945,-3.0086,-3.0666,0.0,0.0,0.0,0.0,0.0,0.0,0.0,0.0,0.0,0.0,0.0,0.0,0.0,0.0,-1.7874,-1.2657,-1.2084,-1.23,-1.2038,0.0,0.0,0.0,0.0,0.0,0.0,0.0,0.0,0.0,0.0,0.0,0.0,0.0,0.0,0.0,0.0,-3.1258,0.0,0.0,0.0,0.0,0.0,0.0,0.0,0.0,-3.4602,-3.5369,-3.5373,-3.5929,-3.5776,0.0,-3.4332,-3.2588,0.0,0.0,0.0,0.0,0.0,0.0,0.0,0.0,-3.5249,-3.5907,-3.757,-3.8046,-3.7199,-3.7142,-3.6757,-3.5968,-3.5661,-3.4705,-3.3083,-3.1891,-2.9967,0.0,0.0,0.0,0.0,0.0,0.0,0.0,0.0,0.0,0.0,0.0,0.0,0.0,0.0,0.0,0.0,0.0,0.0,0.0,0.0,0.0,0.0,0.0,-2.3436,0.0,0.0,0.0,0.0,0.0,0.0,0.0,0.0,0.0,-2.1799,-2.2665,-2.4144,-2.6153,-2.7114,-2.8256,-2.9945,0.0,0.0,0.0,0.0,0.0,0.0,0.0,-3.0682,-3.0574,-2.9973,-2.9554,-2.9773,-2.962,-2.9106,-2.8032,0.0,0.0,-1.9177,-1.8393,-1.878,-1.8599,-1.8435,-1.8487,-1.9005,-1.8853,-1.8498,0.0,0.0,0.0,0.0,0.0,0.0,0.0,0.0,-3.1525,-3.2372,0.0,-3.3134,0.0,0.0,0.0,0.0,0.0,0.0,0.0,0.0,-3.7209,-3.7993,-3.7909,-3.7963,-3.7559,-3.681,-3.6703,-3.5791,-3.4108,-3.1689,0.0,0.0,0.0,0.0,0.0,0.0,-3.6733,-3.6834,-3.8473,-3.8911,-3.8084,-3.8046,-3.7623,-3.6757,-3.6007,-3.5565,-3.543,-3.3833,-3.2199,-3.0475,-2.8063,0.0,0.0,0.0,0.0,0.0,0.0,0.0,0.0,0.0,0.0,0.0,0.0,0.0,0.0,0.0,0.0,0.0,0.0,0.0,0.0,-2.4207,0.0,0.0,0.0,0.0,0.0,0.0,0.0,0.0,0.0,0.0,-2.4016,-2.4746,-2.5993,-2.7698,0.0,0.0,0.0,0.0,-3.0907,-3.1875,-3.4224,-3.5295,-3.3689,-3.3394,-3.3317,-3.3262,0.0,0.0,-3.3078,-3.2846,-3.2405,-3.1574,-3.2128,-3.1224,-2.5759,-2.469,-2.469,-2.4709,-2.4654,-2.4726,-2.4668,-2.4543,-2.4188,-3.3891,0.0,0.0,0.0,0.0,-3.1641,-3.3122,-3.5795,-3.543,-3.6103,-3.743,-3.6815,0.0,0.0,0.0,0.0,0.0,0.0,-3.6652,-3.7305,-3.8411,-3.8931,-3.8916,-3.9473,-3.9339,-3.8569,-3.8531,-3.7959,-3.6882,-3.6118,-3.4649,-3.2464,0.0,0.0,0.0,0.0,-3.7305,-3.855,-3.9604,-3.9758,-3.895,-3.8931,-3.8507,-3.7661,-3.7411,-3.6719,-3.5565,-3.5026,-3.3699,-3.1448,-3.0063,0.0,0.0,0.0,0.0,0.0,0.0,0.0,0.0,0.0,0.0,0.0,0.0,0.0,0.0,0.0,0.0,0.0,0.0,0.0,-2.6136,-2.6427,-2.6264,0.0,0.0,0.0,0.0,0.0,0.0,0.0,0.0,0.0,-2.7904,-2.7158,-2.7028,0.0,0.0,-2.9969,-3.0906,-3.1354,-3.2053,-3.3479,0.0,0.0,0.0,-3.3789,-3.339,-3.3361,-3.3895,-3.4308,-3.4222,-3.4644,-3.4755,-3.3887,-3.3966,-3.3414,-3.1422,-3.0378,-2.998,-3.0003,-3.0003,-3.0203,-3.0684,-3.0761,-3.0587,-3.8647,-3.6363,-3.4648,-3.443,-3.5174,-3.5058,-3.6356,-3.8504,-3.7997,-3.8402,-3.9379,-3.8814,-3.8112,-3.7301,-3.6755,0.0,0.0,0.0,-3.8007,-3.8546,-3.9373,-3.9777,-3.9796,-4.0292,-4.0239,-3.9796,-3.9792,-3.9315,-3.8507,-3.8507,-3.73,-3.4932,0.0,0.0,-3.6421,-3.7305,-3.8262,-3.9277,-4.0085,-4.0258,-3.9796,-3.945,-3.92,-3.8988,-3.8354,-3.7526,-3.6526,-3.6161,-3.4968,-3.2776,-3.1545,-3.0063,0.0,0.0,0.0,0.0,0.0,0.0,0.0,0.0,0.0,0.0,0.0,-2.3175,0.0,0.0,0.0,0.0,-2.6047,-2.7089,-2.845,-2.8218,0.0,0.0,0.0,0.0,0.0,0.0,0.0,-2.8739,-2.9247,-2.9869,-3.0701,-2.9933,-2.95,-3.0059,-3.0681,-3.1312,-3.1941,0.0,-3.3226,-3.4661,-3.5152,-3.5535,-3.6025,-3.5672,-3.5357,-3.537,-3.5527,-3.5721,-3.576,-3.5918,-3.582,-3.5371,-3.5215,-3.5039,-3.4531,-3.4023,-3.3437,-3.2812,-3.2676,-3.2871,-3.332,-3.3151,-3.3012,-4.2714,-4.1732,-3.777,-3.6463,-3.7101,-3.8028,-3.8838,-3.9517,-3.9506,-3.9568,-3.968,-3.9568,-3.9141,-3.85,-3.8423,0.0,0.0,-3.9042,-3.9392,-3.9411,-4.0162,-4.0489,-4.0489,-4.0489,-4.0489,-4.0489,-4.0489,-4.0123,-3.9411,-3.9392,-3.8988,-3.8219,-3.82,-3.8161,-3.8142,-3.8892,-3.9335,-3.9392,-4.0123,-4.0489,-4.0489,-3.9777,-3.9758,-4.0446,-3.9008,-3.8142,-3.7988,-3.7238,-3.6026,-3.4353,-3.2756,-3.1487,-3.0487,0.0,0.0,0.0,0.0,0.0,0.0,0.0,0.0,0.0,0.0,0.0,0.0,0.0,0.0,0.0,-2.8593,0.0,-3.0321,-2.962,0.0,0.0,0.0,-2.8202,-2.894,-2.9084,-2.9698,-3.1234,0.0,0.0,0.0,0.0,-3.2737,-3.2825,-3.2879,-3.2929,-3.299,-3.3705,-3.4532,-3.5685,-3.6663,-3.7579,-3.7988,-3.8079,-3.804,-3.8073,-3.7844,-3.7383,-3.7324,-3.6797,-3.6289,-3.6269,-3.6211,-3.623,-3.6211,-3.6172,-3.5723,-3.4199,-3.375,-3.3652,-3.3711,-3.3247,-3.3025,-4.3002,-4.2745,-4.1716,-4.0739,-3.9849,-4.0071,-4.0274,-4.0449,-4.0468,-4.0485,-4.0509,-4.0485,-4.0368,-4.0198,-4.0149,-4.0099,-4.0062,-4.0159,-4.02,-4.0235,-4.0392,-4.0489,-4.0489,-4.0489,-4.0489,-4.0489,-4.0489,-4.0392,-4.0235,-4.02,-4.0104,-3.9892,-3.9892,-3.9585,-3.9027,-3.92,-3.9619,-4.02,-4.0412,-4.0489,-4.0489,-4.0296,-4.0296,-4.0489,-4.0104,-3.9296,-3.8046,-3.7796,-3.693,-3.5276,-3.418,-3.2929,-3.1468,-3.0006,0.0,0.0,0.0,0.0,0.0,0.0,0.0,0.0,0.0,-2.6017,-2.6148,0.0,-2.8341,0.0,-2.9536,-3.0124,-3.0316,-3.0131,0.0,0.0,-3.0341,-3.0633,-3.0838,-3.1436,-3.1991,-3.2412,-3.2502,-3.2823,-3.3662,-3.3738,-3.4237,-3.5479,-3.5158,-3.4755,-3.4817,-3.6089,-3.7079,-3.7376,-3.7687,-3.7964,-3.82,-3.8286,-3.8467,-3.8529,-3.8418,-3.8301,-3.8281,-3.8125,-3.7988,-3.7969,-3.7969,-3.7988,-3.7949,-3.7969,-3.7832,-3.7363,-3.6328,-3.5391,-3.5371,-3.5209,-3.5125,-4.4428,-4.3815,-4.385,-4.3166,-4.2076,-4.1987,-4.1999,-4.2013,-4.1623,-4.1485,-4.1495,-4.1144,-4.095,-4.0896,-4.079,-4.0721,-4.0692,-4.0559,-4.0489,-4.0489,-4.0489,-4.0489,-4.0489,-4.0489,-4.0489,-4.0489,-4.0489,-4.0489,-4.0489,-4.0489,-4.0489,-4.0489,-4.0489,-4.0277,-3.9835,-3.9815,-4.0046,-4.0489,-4.0489,-4.0489,-4.0489,-4.0489,-4.0315,-3.9969,-3.995,-3.9161,-3.7488,-3.7411,-3.6834,-3.5584,-3.4661,-3.3776,-3.2852,-3.1275,-3.0006,0.0,0.0,0.0,0.0,0.0,0.0,0.0,0.0,0.0,0.0,0.0,-2.9118,0.0,0.0,0.0,-3.0924,-3.1251,-3.145,-3.1469,-3.1859,-3.2281,-3.264,-3.3125,-3.3566,-3.3953,-3.4043,-3.4351,-3.5152,-3.5249,-3.5748,-3.7103,-3.719,-3.7002,-3.6709,-3.7435,-3.8142,-3.8507,-3.8612,-3.8794,-3.909,-3.9343,-3.9485,-3.9496,-3.9267,-3.9048,-3.9048,-3.8732,-3.8506,-3.8528,-3.8553,-3.8613,-3.8613,-3.8613,-3.8613,-3.8476,-3.7851,-3.7226,-3.7148,-3.6567,-3.6083,-4.641,-4.5198,-4.5247,-4.4859,-4.4158,-4.3986,-4.3818,-4.3567,-4.2802,-4.2507,-4.2519,-4.1816,-4.1461,-4.1335,-4.1214,-4.106,-4.0904,-4.0751,-4.0631,-4.0515,-4.0504,-4.0489,-4.0489,-4.0489,-4.0489,-4.0489,-4.0489,-4.0489,-4.0489,-4.0489,-4.0489,-4.0489,-4.0489,-4.0489,-4.0489,-4.0489,-4.0489,-4.0489,-4.0489,-4.0489,-4.0489,-4.0489,-4.0104,-3.9354,-3.9296,-3.8488,-3.6796,-3.6719,-3.6315,-3.5545,-3.4757,-3.4314,-3.4141,-3.2083,-3.0833,0.0,-2.9352,0.0,0.0,0.0,0.0,0.0,0.0,0.0,0.0,-2.9533,-2.9602,-2.9583,-3.0968,-3.1864,-3.1888,-3.2499,-3.2974,-3.3068,-3.3096,-3.3397,-3.4244,-3.4359,-3.4653,-3.5397,-3.5603,-3.5949,-3.6526,-3.6776,-3.718,-3.8046,-3.8681,-3.8854,-3.8469,-3.8373,-3.87,-3.9373,-3.945,-3.9687,-4.0251,-4.0583,-4.0673,-4.0595,-4.0168,-3.9754,-3.975,-3.9246,-3.876,-3.8791,-3.8954,-3.9004,-3.8926,-3.8984,-3.8984,-3.9043,-3.8984,-3.8828,-3.8457,-3.748,-3.6581,-4.803,-4.7804,-4.7782,-4.7372,-4.671,-4.665,-4.5519,-4.367,-4.3494,-4.3457,-4.3437,-4.3281,-4.3203,-4.3181,-4.3115,-4.2695,-4.1992,-4.18,-4.1345,-4.0642,-4.0545,-4.0489,-4.0489,-4.0489,-4.0489,-4.0489,-4.0489,-4.0489,-4.0489,-4.0489,-4.0489,-4.0489,-4.0489,-4.0489,0.0,0.0,0.0,0.0,-4.0489,-4.0489,-4.0489,-4.0489,-4.0104,-3.9335,-3.9296,0.0,-3.6834,-3.6719,-3.6334,-3.5565,-3.5353,0.0,0.0,0.0,0.0,0.0,0.0,0.0,0.0,0.0,0.0,0.0,-3.2199,-3.1898,-3.1302,-3.1814,-3.2179,-3.2179,-3.2487,-3.2721,-3.2813,-3.286,-3.3261,-3.4074,-3.4069,-3.4313,-3.5198,-3.5297,-3.532,-3.5468,-3.6084,-3.6526,-3.6776,-3.7315,-3.8065,-3.8892,-3.9181,-3.9488,-3.9931,-3.9931,-4.0081,-4.0239,-4.02,-4.0337,-4.061,-4.0684,-4.0742,-4.0742,-4.0719,-4.056,-4.0521,-4.0439,-4.037,-4.0398,-4.0535,-4.0552,-4.0625,-4.0723,-4.0605,-4.0703,-4.0684,-4.0273,-3.8906,-3.8357,-3.7867,-4.8984,0.0,-4.8655,-4.849,0.0,-4.8152,-4.7418,-4.6191,-4.4902,-4.4101,-4.3711,-4.3711,-4.3711,-4.3711,-4.3635,-4.3381,-4.2928,-4.2774,-4.2421,-4.1943,-4.1867,-4.1827,-4.1758,-4.1335,-4.1143,-4.1123,-4.07,-4.0489,-4.0489,-4.0489,-4.0489,-4.0489,-4.0489,-4.0489,-4.0489,-4.0489,-4.0489,-4.0489,-4.0489,-4.0489,-4.0489,-4.0489,-4.0138,-3.9354,0.0,0.0,0.0,0.0,0.0,0.0,0.0,0.0,0.0,0.0,0.0,-3.418,-3.3776,-3.3545,-3.3564,-3.393,-3.4007,-3.3583,-3.3949,-3.3641,-3.2391,-3.266,-3.2891,-3.291,-3.3276,-3.3581,-3.3684,-3.4,-3.4458,-3.5002,-3.502,-3.5291,-3.6114,-3.626,-3.6404,-3.6805,-3.7192,-3.7559,-3.7926,-3.8334,-3.8969,-3.9738,-3.9892,-4.0027,-4.0392,-4.0489,-4.0489,-4.0489,-4.0489,-4.0519,-4.0582,-4.0655,-4.0692,-4.0657,-4.0701,-4.0742,-4.0752,-4.0779,-4.085,-4.0983,-4.1052,-4.1128,-4.1172,-4.1191,-4.1191,-4.1191,-4.1191,-4.0976,-4.0,-3.9509,-3.8908,-4.9833,-4.9196,-4.9295,-4.9277,-4.9121,-4.9121,-4.9023,-4.875,0.0,0.0,0.0,-4.416,-4.416,-4.4141,-4.4089,-4.4,-4.384,-4.3721,-4.3536,-4.3275,-4.3218,-4.3175,-4.3092,-4.2399,-4.204,-4.1989,-4.1324,-4.09,-4.0719,-4.0719,-4.0642,-4.0508,-4.0489,-4.0489,-4.0489,-4.0489,-4.0489,-4.0489,-4.0489,-4.0489,-4.0489,-4.0489,-4.0104,-3.9315,-3.9296,-3.8892,-3.8027,-3.7315,-3.693,-3.6911,-3.6315,-3.5949,-3.593,-3.5276,-3.518,-3.5834,-3.5257,-3.4872,-3.4891,-3.5545,-3.5565,-3.4699,-3.5315,-3.5045,-3.3468,-3.3353,-3.3372,-3.3372,-3.4007,-3.448,-3.4546,-3.5156,-3.5697,-3.595,-3.5947,-3.6273,-3.7086,-3.7228,-3.7455,-3.8103,-3.8316,-3.867,-3.9166,-3.9427,-3.9783,-4.0331,-4.0431,-4.0519,-4.0534,-4.0545,-4.0545,-4.0545,-4.0568,-4.0568,-4.0559,-4.0655,-4.0667,-4.0582,-4.0655,-4.0718,-4.074,-4.0752,-4.0831,-4.0964,-4.1101,-4.1151,-4.1191,-4.1191,-4.1191,-4.1191,-4.1191,-4.115,-4.1068,-4.0476,-3.9694,-5.1113,-5.1015,-5.1035,-5.0664,-5.0019,-5.0019,-4.959,-4.8808,-4.7695,-4.6738,-4.5937,-4.5937,-4.5937,-4.5937,-4.5917,-4.5507,-4.4823,-4.4722,-4.4265,0.0,-4.3316,-4.3182,-4.3176,-4.306,-4.298,-4.2925,-4.2844,-4.2419,-4.1697,-4.1604,-4.1258,-4.0585,-4.0489,-4.0489,-4.0489,-4.0489,-4.0489,-4.0489,-4.0489,-4.0489,-4.0489,-4.0489,-4.0123,-3.9354,-3.9315,-3.8892,-3.8027,-3.7892,-3.7815,-3.7815,-3.77,-3.7661,-3.7642,-3.7469,-3.7526,-3.7642,-3.7526,-3.7469,-3.745,-3.7584,-3.7276,-3.6469,-3.6469,-3.6122,-3.5238,-3.5141,-3.5141,-3.5141,-3.5218,-3.5365,-3.5496,-3.559,-3.6083,-3.688,-3.6928,-3.7196,-3.8077,-3.8166,-3.8213,-3.841,-3.8965,-3.9362,-3.9495,-4.0029,-4.041,-4.0492,-4.0545,-4.0545,-4.0636,-4.0687,-4.0667,-4.0692,-4.0722,-4.0713,-4.0696,-4.0732,-4.0733,-4.0672,-4.0732,-4.0796,-4.0796,-4.0793,-4.0883,-4.0968,-4.1049,-4.1101,-4.1172,-4.1191,-4.1191,-4.1191,-4.1105,-4.1,-4.0914,-4.066,-4.0236,-5.1387,-5.1387,-5.1387,-5.1191,-5.084,-5.084,-5.0371,-4.9609,-4.9199,-4.8516,-4.7754,-4.7715,-4.7441,-4.7012,-4.7012,-4.6523,-4.5703,-4.568,-4.5414,-4.4957,-4.4812,-4.4742,-4.4617,-4.421,-4.4003,-4.3935,-4.3499,-4.3048,-4.2613,-4.256,-4.2112,-4.1235,-4.0739,-4.0489,-4.0489,-4.0489,-4.0489,-4.0489,-4.0489,-4.0489,-4.0489,-4.0489,-4.0315,-3.9965,-3.9931,-3.9777,-3.9373,-3.8931,-3.87,-3.87,-3.8238,-3.8007,-3.8007,-3.8007,-3.82,-3.8661,-3.87,-3.87,-3.8719,-3.8257,-3.7834,-3.743,-3.7411,-3.7257,-3.6892,-3.6007,-3.5528,-3.5577,-3.5956,-3.6134,-3.5889,-3.6598,-3.7162,-3.7265,-3.7606,-3.8222,-3.9035,-3.9178,-3.931,-3.9711,-4.0101,-4.0299,-4.0159,-4.0477,-4.0688,-4.0665,-4.0668,-4.0688,-4.0696,-4.0791,-4.0824,-4.0781,-4.0768,-4.0777,-4.0752,-4.0855,-4.085,-4.0761,-4.0836,-4.0902,-4.0914,-4.0914,-4.0964,-4.108,-4.1094,-4.1128,-4.1191,-4.1191,-4.1172,-4.1101,-4.1052,-4.0955,-4.0836,-4.0742,-4.0307,-5.1875,-5.1699,-5.1699,-5.1582,-5.1406,-5.1387,-5.1035,-5.0508,-5.0449,-5.0098,-4.9473,-4.9082,-4.8535,-4.793,-4.7891,-4.7519,-4.6953,-4.6875,-4.6833,-4.6713,-4.6487,-4.6337,-4.6142,-4.5395,-4.4997,-4.4904,-4.4297,-4.3867,-4.3574,-4.3532,-4.2957,-4.1889,-4.1155,-4.07,-4.0489,-4.0489,-4.0489,-4.0489,-4.0489,-4.0489,-4.0489,-4.0489,-4.0489,-4.0489,-4.0489,-4.0489,-4.0469,-3.9892,-3.9565,-3.9546,-3.8931,-3.8546,-3.8565,-3.8565,-3.8854,-3.9488,-3.9565,-3.9565,-3.9527,-3.895,-3.8488,-3.8296,-3.8301,-3.8252,-3.7963,-3.6903,-3.6141,-3.625,-3.6852,-3.6997,-3.6762,-3.7562,-3.8244,-3.7949,-3.8457,-3.9219,-4.0019,-4.0195,-4.0389,-4.0957,-4.1049,-4.0972,-4.0883,-4.0799,-4.0771,-4.0777,-4.0801,-4.0788,-4.0791,-4.0916,-4.095,-4.092,-4.0883,-4.0877,-4.0844,-4.0959,-4.0983,-4.087,-4.0959,-4.1046,-4.1052,-4.1049,-4.108,-4.1172,-4.1191,-4.1172,-4.1151,-4.1152,-4.1101,-4.0988,-4.0933,-4.0877,-4.0743,-4.0676,-4.0274,-5.3281,-5.2637,-5.2539,-5.2109,-5.1426,-5.1387,-5.1328,-5.1269,-5.1269,-5.1269,-5.0937,-4.957,-4.8906,-4.8789,-4.8789,-4.8711,-4.8594,-4.8652,-4.8594,-4.8457,-4.7692,-4.7279,-4.7196,-4.6396,-4.591,-4.5815,-4.578,-4.5286,-4.4595,-4.4509,-4.3695,-4.2143,-4.1754,-4.1293,-4.062,-4.0523,-4.0523,-4.0504,-4.0489,-4.0489,-4.0489,-4.0489,-4.0489,-4.0489,-4.0489,-4.0489,-4.0489,-4.0446,-4.0373,-4.0373,-4.0277,-4.0239,-4.0239,-4.0239,-4.0277,-4.0354,-4.0354,-4.0392,-4.0354,-4.0296,-3.9927,-3.9292,-3.9245,-3.8969,-3.8341,-3.814,-3.8022,-3.8016,-3.8089,-3.8124,-3.8163,-3.8388,-3.8832,-3.9394,-3.9668,-4.0137,-4.082,-4.1094,-4.1113,-4.1152,-4.1172,-4.1128,-4.1016,-4.0979,-4.0933,-4.0801,-4.0843,-4.0864,-4.0933,-4.0983,-4.1072,-4.1113,-4.1152,-4.1103,-4.1026,-4.1082,-4.1103,-4.1019,-4.1101,-4.1152,-4.1172,-4.1172,-4.1191,-4.1191,-4.1191,-4.1152,-4.1058,-4.1,-4.0964,-4.085,-4.0781,-4.0684,-4.0549,-4.053,-4.0111,-5.3496,-5.2715,-5.2695,-5.2187,-5.1445,-5.1387,-5.1387,-5.1387,-5.1387,-5.1387,-5.1328,-5.0664,-5.0117,-4.9687,-4.9668,-4.9394,-4.8906,-4.8887,-4.8887,-4.8867,-4.8472,-4.8274,-4.8196,-4.7395,-4.6959,-4.685,-4.6451,-4.5991,-4.5507,-4.4966,-4.4305,-4.3627,-4.3031,-4.2311,-4.1516,-4.1457,-4.1214,-4.069,-4.069,-4.0671,-4.0668,-4.0568,-4.0489,-4.0489,-4.0489,-4.0489,-4.0489,-4.0489,-4.0489,-4.0489,-4.0489,-4.0489,-4.0489,-4.0489,-4.0489,-4.0489,-4.0489,-4.0489,-4.0504,-4.0574,-4.0488,-4.0159,-4.0186,-4.0072,-3.9809,-3.9844,-3.9881,-3.9818,-3.9408,-3.9002,-3.8682,-3.9434,-4.0037,-4.0039,-4.0332,-4.082,-4.1133,-4.1191,-4.1191,-4.1191,-4.1191,-4.1191,-4.1128,-4.1126,-4.1023,-4.0877,-4.092,-4.1046,-4.1023,-4.1074,-4.1129,-4.1191,-4.1191,-4.1172,-4.1113,-4.117,-4.1172,-4.1152,-4.117,-4.1191,-4.1191,-4.1191,-4.1191,-4.1191,-4.1133,-4.1077,-4.1023,-4.092,-4.085,-4.0733,-4.0641,-4.0559,-4.0504,-4.0489,-4.0246,-5.4199,-5.3437,-5.3183,-5.2558,-5.1777,-5.1758,-5.1621,-5.1406,-5.1387,-5.1387,-5.1387,-5.1387,-5.1094,-5.0586,-5.0527,-5.0156,-4.9648,-4.959,-4.959,-4.9551,-4.9375,-4.9277,-4.916,-4.8379,-4.7969,-4.7832,-4.707,-4.6482,-4.6108,-4.5468,-4.4981,-4.4701,-4.4094,-4.3327,-4.2541,-4.2463,-4.2015,-4.1249,-4.1151,-4.1054,-4.0816,-4.0657,-4.0571,-4.059,-4.0571,-4.0577,-4.054,-4.0559,-4.0549,-4.0504,-4.0489,-4.0489,-4.0489,-4.0489,-4.0519,-4.0545,-4.0559,-4.0554,-4.0571,-4.0684,-4.0721,-4.0731,-4.0805,-4.0857,-4.0877,-4.0988,-4.1052,-4.0974,-4.0469,-3.9856,-3.959,-4.0449,-4.084,-4.0371,-4.0859,-4.1191,-4.1191,-4.1191,-4.1191,-4.1191,-4.1191,-4.1191,-4.1191,-4.1191,-4.1126,-4.0992,-4.1077,-4.1171,-4.1082,-4.1133,-4.1191,-4.1191,-4.1191,-4.1191,-4.1191,-4.1191,-4.1191,-4.1191,-4.1191,-4.1191,-4.1191,-4.1172,-4.1133,-4.1094,-4.1016,-4.0939,-4.0896,-4.0807,-4.0743,-4.066,-4.0535,-4.0431,-4.0489,-4.0323,-4.006,-5.5976,-5.5078,-5.4277,-5.3398,-5.2637,-5.2598,-5.2168,-5.1562,-5.1445,-5.1426,-5.1465,-5.1445,-5.1387,-5.1289,-5.1269,-5.1289,-5.123,-5.1152,-5.1133,-5.1055,-5.0449,-5.0137,-5.0078,-4.9277,-4.8848,-4.8769,-4.7969,-4.7129,-4.6387,-4.6092,-4.564,-4.4938,-4.4748,-4.4211,-4.3479,-4.3369,-4.2918,-4.2174,-4.2018,-4.1634,-4.0945,-4.0832,-4.0805,-4.0785,-4.0777,-4.0733,-4.0696,-4.0692,-4.0636,-4.0504,-4.0504,-4.0489,-4.0489,-4.0504,-4.0559,-4.0655,-4.0692,-4.071,-4.077,-4.0805,-4.0793,-4.0821,-4.0914,-4.0992,-4.0996,-4.1103,-4.1172,-4.1172,-4.1074,-4.0976,-4.0918,-4.1016,-4.1172,-4.1074,-4.1133,-4.1191,-4.1191,-4.1191,-4.1191,-4.1191,-4.1191,-4.1191,-4.1191,-4.1191,-4.1191,-4.1152,-4.1191,-4.1191,-4.1191,-4.1191,-4.1191,-4.1191,-4.1191,-4.1191,-4.1191,-4.1191,-4.1191,-4.1191,-4.1191,-4.1191,-4.1152,-4.1094,-4.1055,-4.0992,-4.0889,-4.0821,-4.0742,-4.0692,-4.0642,-4.0516,-4.0327,-4.0284,-4.0098,-3.9482,-3.9106,-5.6094,-5.5215,-5.4355,-5.3808,-5.3496,-5.2949,-5.2832,-5.3008,-5.2461,-5.2226,-5.2226,-5.2226,-5.1933,-5.1387,-5.1387,-5.1387,-5.1387,-5.1387,-5.1387,-5.1367,-5.1094,-5.0957,-5.0879,-5.0117,-4.9726,-4.9609,-4.8867,-4.7988,-4.7129,-4.654,-4.6108,-4.5854,-4.5729,-4.5291,-4.4591,-4.4416,-4.3986,-4.3164,-4.2617,-4.2129,-4.1777,-4.1328,-4.1052,-4.1049,-4.0902,-4.0777,-4.0781,-4.071,-4.0667,-4.0636,-4.0545,-4.0489,-4.0504,-4.0588,-4.0649,-4.0703,-4.0752,-4.0779,-4.0821,-4.0896,-4.0925,-4.095,-4.1052,-4.1133,-4.1128,-4.1172,-4.1191,-4.1191,-4.1191,-4.1191,-4.1191,-4.1191,-4.1191,-4.1191,-4.1191,-4.1191,-4.1191,-4.1191,-4.1191,-4.1191,-4.1191,-4.1191,-4.1191,-4.1191,-4.1191,-4.1191,-4.1191,-4.1191,-4.1191,-4.1191,-4.1191,-4.1172,-4.1128,-4.1103,-4.1191,-4.1191,-4.1191,-4.1191,-4.1191,-4.1133,-4.1094,-4.1103,-4.1077,-4.0902,-4.0793,-4.0752,-4.0684,-4.0623,-4.0559,-4.0457,-4.0265,-3.9725,-3.9482,-3.8632,-3.8099,-5.625,-5.5683,-5.5078,-5.4668,-5.4375,-5.3808,-5.3535,-5.3555,-5.2969,-5.2695,-5.2656,-5.2422,-5.207,-5.1797,-5.1543,-5.1387,-5.1387,-5.1387,-5.1387,-5.1387,-5.1387,-5.1387,-5.1308,-5.084,-5.0586,-5.0469,-4.9726,-4.875,-4.7656,-4.7012,-4.6582,-4.6308,-4.6289,-4.6016,-4.5508,-4.541,-4.5,-4.416,-4.3535,-4.3027,-4.2441,-4.1875,-4.1445,-4.1211,-4.1023,-4.0908,-4.0883,-4.0835,-4.0772,-4.0731,-4.0641,-4.0597,-4.061,-4.0676,-4.0752,-4.08,-4.0848,-4.0877,-4.0925,-4.1,-4.1074,-4.1058,-4.1152,-4.1191,-4.1191,-4.1191,-4.1191,-4.1191,-4.1191,-4.1191,-4.1191,-4.1191,-4.1191,-4.1191,-4.1191,-4.1191,-4.1191,-4.1191,-4.1191,-4.1191,-4.1191,-4.1191,-4.1191,-4.1191,-4.1191,-4.1191,-4.1191,-4.1191,-4.1191,-4.1191,-4.119,-4.1188,-4.1094,-4.0984,-4.0968,-4.0957,-4.1113,-4.1152,-4.1113,-4.1074,-4.1042,-4.1069,-4.1007,-4.084,-4.0742,-4.0699,-4.0623,-4.054,-4.0462,-4.0412,-3.9838,-3.9219,-3.8556,-3.7618,-3.7076,-5.6582,-5.6523,-5.6582,-5.5996,-5.5332,-5.5137,-5.4258,-5.3223,-5.293,-5.2988,-5.2969,-5.2012,-5.2129,-5.2344,-5.1758,-5.1387,-5.1387,-5.1387,-5.1387,-5.1387,-5.1387,-5.1387,-5.1387,-5.1308,-5.1269,-5.123,-5.0527,-4.9316,-4.7891,-4.7598,-4.7109,-4.6484,-4.6348,-4.625,-4.6269,-4.6133,-4.582,-4.5137,-4.4824,-4.4082,-4.2656,-4.2383,-4.1992,-4.1367,-4.1211,-4.1105,-4.0996,-4.0988,-4.0914,-4.0809,-4.0785,-4.0793,-4.0777,-4.0793,-4.0857,-4.0955,-4.0992,-4.1074,-4.1152,-4.1172,-4.1191,-4.1172,-4.1191,-4.1191,-4.1191,-4.1191,-4.1191,-4.1191,-4.1191,-4.1191,-4.1191,-4.1191,-4.1191,-4.1191,-4.1191,-4.1191,-4.1191,-4.1191,-4.1191,-4.1191,-4.1191,-4.1191,-4.1191,-4.1191,-4.1191,-4.1191,-4.1191,-4.1191,-4.1191,-4.1191,-4.1191,-4.1192,-4.1051,-4.0896,-4.0773,-4.0684,-4.0918,-4.1074,-4.1016,-4.0983,-4.0922,-4.0916,-4.0832,-4.0699,-4.0623,-4.0577,-4.0582,-4.05,-4.03,-4.0098,-3.9388,-3.8537,-3.7599,-3.6704,-3.5895,-5.6621,-5.6621,-5.6621,-5.6465,-5.6113,-5.5566,-5.5254,-5.5312,-5.4785,-5.4492,-5.4336,-5.3574,-5.3027,-5.2539,-5.1797,-5.1406,-5.1387,-5.1387,-5.1387,-5.1387,-5.1387,-5.1387,-5.1387,-5.1387,-5.1387,-5.1269,-5.0586,-4.9961,-4.9258,-4.8203,-4.7422,-4.7148,-4.6582,-4.6308,-4.6289,-4.6289,-4.6113,-4.5879,-4.5312,-4.4687,-4.4082,-4.3008,-4.2285,-4.2012,-4.1504,-4.1171,-4.1129,-4.1052,-4.0988,-4.0944,-4.0838,-4.0801,-4.0828,-4.0902,-4.0955,-4.0996,-4.1082,-4.115,-4.1191,-4.1191,-4.1191,-4.1191,-4.1191,-4.1191,-4.1191,-4.1191,-4.1191,-4.1191,-4.1191,-4.1191,-4.1191,-4.1191,-4.1191,-4.1191,-4.1191,-4.1191,-4.1211,-4.123,-4.1191,-4.1191,-4.1191,-4.1191,-4.1211,-4.123,-4.125,-4.1191,-4.1191,-4.1191,-4.1191,-4.1191,-4.1191,-4.1188,-4.0984,-4.1091,-4.1291,-4.1295,-4.1265,-4.126,-4.1117,-4.0909,-4.0824,-4.0781,-4.0696,-4.0694,-4.0603,-4.0562,-4.0562,-4.0546,-4.0438,-3.9597,-3.8728,-3.775,-3.6704,-3.5815,-3.5033,-5.6621,-5.6621,-5.6621,-5.6621,-5.6543,-5.5996,-5.5879,-5.6035,-5.5547,-5.5293,-5.5117,-5.4355,-5.3906,-5.3437,-5.2422,-5.1914,-5.1836,-5.1562,-5.1387,-5.1387,-5.1387,-5.1387,-5.1387,-5.1387,-5.1387,-5.1328,-5.0898,-5.0488,-5.0156,-4.9121,-4.8262,-4.7578,-4.7031,-4.6601,-4.6348,-4.6289,-4.6289,-4.6211,-4.5762,-4.5312,-4.4844,-4.3926,-4.3066,-4.2441,-4.1894,-4.1523,-4.125,-4.1125,-4.1077,-4.1055,-4.0992,-4.0955,-4.0955,-4.1046,-4.1077,-4.1082,-4.1133,-4.1191,-4.1191,-4.1191,-4.1191,-4.1191,-4.1191,-4.1191,-4.1191,-4.1191,-4.1191,-4.1191,-4.1191,-4.1191,-4.1191,-4.1191,-4.1191,-4.1191,-4.1191,-4.1191,-4.123,-4.1465,-4.1641,-4.1738,-4.1973,-4.1933,-4.1738,-4.166,-4.1484,-4.1308,-4.1191,-4.1191,-4.1191,-4.1191,-4.1348,-4.1554,-4.1754,-4.1909,-4.214,-4.2005,-4.1712,-4.1513,-4.1286,-4.0965,-4.0751,-4.0703,-4.0642,-4.0916,-4.0927,-4.0947,-4.0931,-4.1066,-4.0957,-3.9622,-3.8569,-3.7848,-3.7057,-3.5157,-3.4255,-5.6621,-5.6621,-5.6621,-5.6621,-5.6621,-5.6543,-5.6152,-5.5527,-5.5449,-5.5469,-5.5254,-5.459,-5.4453,-5.4648,-5.3223,-5.25,-5.2441,-5.1758,-5.1387,-5.1387,-5.1387,-5.1387,-5.1387,-5.1387,-5.1387,-5.1387,-5.1328,-5.0976,-5.041,-5.0058,-4.9394,-4.8066,-4.7676,-4.7187,-4.6601,-4.6367,-4.6289,-4.6269,-4.623,-4.582,-4.5156,-4.4922,-4.4238,-4.2754,-4.2558,-4.2187,-4.1699,-4.1484,-4.1308,-4.1211,-4.1172,-4.1152,-4.1191,-4.1191,-4.1172,-4.1172,-4.1191,-4.1191,-4.1191,-4.1191,-4.1191,-4.1191,-4.1191,-4.1191,-4.1191,-4.1191,-4.1191,-4.1191,-4.1191,-4.1191,-4.1191,-4.1328,-4.1308,-4.1211,-4.1328,-4.1387,-4.1406,-4.2031,-4.2402,-4.2578,-4.3125,-4.3359,-4.2461,-4.2383,-4.2109,-4.1621,-4.1465,-4.166,-4.1543,-4.1738,-4.1894,-4.2221,-4.268,-4.2819,-4.3044,-4.2613,-4.2358,-4.2179,-4.1938,-4.1648,-4.1184,-4.1073,-4.0921,-4.1155,-4.13,-4.1319,-4.1396,-4.1517,-4.1395,-4.0594,-3.964,-3.8677,-3.7299,-3.5588,-3.4623,-5.6621,-5.6621,-5.6621,-5.6621,-5.6621,-5.6621,-5.6484,-5.6269,-5.623,-5.6191,-5.6055,-5.5332,-5.4765,-5.4258,-5.3262,-5.2363,-5.1992,-5.1582,-5.1387,-5.1387,-5.1387,-5.1387,-5.1387,-5.1387,-5.1387,-5.1387,-5.1387,-5.1289,-5.1055,-5.0508,-4.9941,-4.9492,-4.8262,-4.7539,-4.7226,-4.6621,-4.6308,-4.6289,-4.6289,-4.6211,-4.5898,-4.5312,-4.4824,-4.4394,-4.3691,-4.3262,-4.2969,-4.2422,-4.1777,-4.125,-4.1191,-4.1191,-4.1191,-4.1191,-4.1191,-4.1191,-4.1191,-4.1191,-4.1191,-4.1191,-4.1191,-4.1191,-4.1191,-4.1191,-4.1191,-4.1191,-4.1191,-4.1191,-4.1191,-4.125,-4.1328,-4.1758,-4.1797,-4.1387,-4.1816,-4.2266,-4.2558,-4.2949,-4.3359,-4.3398,-4.3594,-4.3359,-4.293,-4.2949,-4.2988,-4.2402,-4.2451,-4.2786,-4.249,-4.1978,-4.2011,-4.3272,-4.3841,-4.3865,-4.377,-4.3303,-4.3002,-4.2906,-4.2803,-4.2745,-4.2318,-4.1975,-4.1751,-4.1681,-4.1692,-4.1714,-4.185,-4.1987,-4.1646,-4.1468,-4.0583,-3.9567,-3.818,-3.6675,-3.6026,-5.6621,-5.6621,-5.6621,-5.6621,-5.6621,-5.6621,-5.6621,-5.6621,-5.6621,-5.6621,-5.6465,-5.6094,-5.5566,-5.5,-5.3808,-5.3223,-5.2969,-5.2285,-5.2168,-5.2422,-5.2148,-5.1777,-5.1504,-5.1387,-5.1387,-5.1387,-5.1387,-5.1387,-5.1328,-5.0898,-5.0566,-5.0078,-4.9219,-4.8359,-4.7558,-4.7148,-4.6621,-4.6367,-4.6289,-4.6289,-4.623,-4.582,-4.5332,-4.5039,-4.4473,-4.4141,-4.3691,-4.3203,-4.2441,-4.1504,-4.1191,-4.1191,-4.1191,-4.1191,-4.1191,-4.1191,-4.1191,-4.1191,-4.1191,-4.1191,-4.1191,-4.1191,-4.1191,-4.1191,-4.1191,-4.1211,-4.125,-4.168,-4.1699,-4.1894,-4.2246,-4.2673,-4.279,-4.2832,-4.3076,-4.3637,-4.4199,-4.4277,-4.4219,-4.4254,-4.4425,-4.436,-4.3489,-4.3856,-4.3603,-4.3142,-4.3075,-4.3292,-4.328,-4.2619,-4.249,-4.3811,-4.4699,-4.4737,-4.4717,-4.4373,-4.4068,-4.3953,-4.3637,-4.3617,-4.3134,-4.2748,-4.2689,-4.248,-4.2274,-4.2219,-4.2488,-4.2641,-4.2538,-4.214,-4.1341,-4.0518,-3.9323,-3.7989,-3.7345,-5.6621,-5.6621,-5.6621,-5.6621,-5.6621,-5.6621,-5.6621,-5.6621,-5.6621,-5.6621,-5.6582,-5.6601,-5.6308,-5.6367,-5.4512,-5.4336,-5.4863,-5.3203,-5.3281,-5.3301,-5.2988,-5.2266,-5.1719,-5.1465,-5.1406,-5.1387,-5.1387,-5.1387,-5.1367,-5.1328,-5.0996,-5.0488,-5.0215,-4.9375,-4.8301,-4.7734,-4.7148,-4.6621,-4.6367,-4.6308,-4.6289,-4.6172,-4.584,-4.5371,-4.5234,-4.4707,-4.416,-4.375,-4.3164,-4.1543,-4.1465,-4.1621,-4.1582,-4.1523,-4.1562,-4.1641,-4.1719,-4.168,-4.1543,-4.1699,-4.1582,-4.168,-4.1621,-4.1465,-4.168,-4.1758,-4.1953,-4.248,-4.2519,-4.291,-4.3496,-4.3739,-4.3977,-4.4301,-4.4694,-4.5279,-4.5824,-4.5564,-4.505,-4.4977,-4.5631,-4.552,-4.5056,-4.4703,-4.4517,-4.3845,-4.3911,-4.4219,-4.4249,-4.3915,-4.3932,-4.4552,-4.5163,-4.5543,-4.5529,-4.5491,-4.5276,-4.5054,-4.4605,-4.4293,-4.3654,-4.3388,-4.3541,-4.3407,-4.2867,-4.2943,-4.3406,-4.3466,-4.3259,-4.3069,-4.2387,-4.1785,-4.1016,-3.9482,-3.852,-5.6621,-5.6621,-5.6621,-5.6621,-5.6621,-5.6621,-5.6621,-5.6621,-5.6621,-5.6621,-5.6621,-5.6621,-5.623,-5.5586,-5.4629,-5.4121,-5.4375,-5.3476,-5.3183,-5.3789,-5.3105,-5.2676,-5.2226,-5.1738,-5.1406,-5.1387,-5.1387,-5.1387,-5.1387,-5.1387,-5.1328,-5.1094,-5.0527,-5.0019,-4.9512,-4.832,-4.7558,-4.7207,-4.668,-4.6367,-4.6289,-4.6289,-4.6191,-4.5937,-4.5957,-4.5547,-4.4902,-4.4726,-4.4219,-4.3437,-4.3164,-4.3144,-4.3008,-4.3027,-4.2988,-4.2988,-4.3027,-4.3086,-4.3125,-4.3008,-4.3125,-4.2988,-4.293,-4.3164,-4.3164,-4.3047,-4.3139,-4.3361,-4.3368,-4.3704,-4.4351,-4.4467,-4.478,-4.5273,-4.5499,-4.5638,-4.584,-4.5784,-4.5631,-4.5675,-4.5737,-4.5632,-4.4878,-4.5327,-4.5104,-4.4627,-4.4743,-4.518,-4.5118,-4.4949,-4.5045,-4.5214,-4.5849,-4.6121,-4.5607,-4.5545,-4.5381,-4.5203,-4.49,-4.4549,-4.3937,-4.3653,-4.3634,-4.3516,-4.3269,-4.3531,-4.3814,-4.3747,-4.3457,-4.3423,-4.3249,-4.2425,-4.1486,-4.0367,-3.9638,-5.6621,-5.6621,-5.6621,-5.6621,-5.6621,-5.6621,-5.6621,-5.6621,-5.6621,-5.6621,-5.6621,-5.6621,-5.6348,-5.584,-5.5058,-5.4805,-5.5058,-5.4785,-5.4531,-5.4492,-5.373,-5.3125,-5.2519,-5.1875,-5.1387,-5.1387,-5.1387,-5.1387,-5.1387,-5.1387,-5.1387,-5.1387,-5.0937,-5.0547,-5.0234,-4.9238,-4.8418,-4.7637,-4.7168,-4.6758,-4.6367,-4.6289,-4.6289,-4.6289,-4.6289,-4.6035,-4.5664,-4.5605,-4.5371,-4.5019,-4.4883,-4.4473,-4.3828,-4.3711,-4.3711,-4.3711,-4.3711,-4.3711,-4.3691,-4.3691,-4.3633,-4.3702,-4.3661,-4.3613,-4.3583,-4.3552,-4.3797,-4.4,-4.4176,-4.4428,-4.514,-4.522,-4.5502,-4.5668,-4.577,-4.5757,-4.5789,-4.5847,-4.5872,-4.5852,-4.5831,-4.5638,-4.5498,-4.5626,-4.5628,-4.5131,-4.5137,-4.5495,-4.5457,-4.5317,-4.5382,-4.569,-4.6463,-4.6602,-4.5797,-4.5419,-4.5161,-4.4896,-4.4535,-4.4223,-4.3797,-4.3631,-4.3577,-4.3521,-4.3565,-4.3521,-4.3727,-4.3677,-4.3379,-4.2953,-4.2577,-4.23,-4.1848,-4.0842,-4.0385,-5.6538,-5.6538,-5.656,-5.6562,-5.6581,-5.6582,-5.6621,-5.6621,-5.6621,-5.6621,-5.6621,-5.6621,-5.6562,-5.6367,-5.5605,-5.5723,-5.5957,-5.6406,-5.5898,-5.5078,-5.4258,-5.3613,-5.2891,-5.2031,-5.1387,-5.1387,-5.1387,-5.1387,-5.1387,-5.1387,-5.1387,-5.1387,-5.1387,-5.1035,-5.0508,-5.0156,-4.9473,-4.8398,-4.7734,-4.7246,-4.6641,-4.6445,-4.6289,-4.6289,-4.6289,-4.6289,-4.6172,-4.6191,-4.6211,-4.6289,-4.6289,-4.5488,-4.455,-4.4082,-4.4082,-4.416,-4.4316,-4.4375,-4.4414,-4.4277,-4.4191,-4.3977,-4.4002,-4.3974,-4.3938,-4.4047,-4.4323,-4.4618,-4.491,-4.5054,-4.5735,-4.5673,-4.5705,-4.5783,-4.5677,-4.5678,-4.575,-4.5829,-4.5808,-4.5777,-4.5756,-4.5617,-4.5561,-4.5607,-4.5676,-4.574,-4.5778,-4.5836,-4.5855,-4.5893,-4.6086,-4.649,-4.7335,-4.7508,-4.6799,-4.6037,-4.5675,-4.5299,-4.4786,-4.4463,-4.4107,-4.404,-4.4053,-4.3953,-4.3949,-4.3762,-4.3439,-4.3206,-4.2832,-4.2327,-4.2069,-4.1926,-4.1603,-4.1206,-4.0787,-5.6279,-5.6288,-5.6386,-5.6445,-5.6434,-5.6559,-5.6601,-5.6621,-5.6582,-5.6601,-5.6601,-5.6601,-5.6582,-5.6367,-5.5703,-5.5078,-5.5137,-5.5742,-5.5976,-5.5137,-5.4355,-5.375,-5.3262,-5.2187,-5.1484,-5.1387,-5.1387,-5.1387,-5.1387,-5.1387,-5.1387,-5.1387,-5.1387,-5.123,-5.0996,-5.0586,-5.0156,-4.9375,-4.8476,-4.7734,-4.7226,-4.6641,-4.6289,-4.6289,-4.6289,-4.6289,-4.6289,-4.6289,-4.6289,-4.6289,-4.6289,-4.6055,-4.567,-4.562,-4.5644,-4.5605,-4.5566,-4.5469,-4.5508,-4.5609,-4.5652,-4.565,-4.5404,-4.5379,-4.5365,-4.5366,-4.5248,-4.535,-4.5438,-4.5488,-4.5626,-4.5645,-4.5632,-4.5635,-4.5635,-4.5663,-4.5717,-4.5783,-4.5885,-4.6012,-4.5863,-4.577,-4.5871,-4.6067,-4.6336,-4.6547,-4.6644,-4.6874,-4.7105,-4.7106,-4.7183,-4.7702,-4.8355,-4.8259,-4.7894,-4.7105,-4.6531,-4.6234,-4.5805,-4.5441,-4.5092,-4.4781,-4.4644,-4.4531,-4.3999,-4.3416,-4.3086,-4.2772,-4.2271,-4.1771,-4.1654,-4.156,-4.0943,-4.0329,-3.9968,-5.6211,-5.6222,-5.626,-5.6305,-5.6313,-5.6368,-5.6386,-5.6386,-5.6405,-5.6386,-5.6386,-5.6386,-5.6386,-5.6269,-5.6015,-5.5274,-5.4928,-5.5182,-5.5201,-5.444,-5.3991,-5.3484,-5.3221,-5.2241,-5.1738,-5.1445,-5.1367,-5.1387,-5.1387,-5.1387,-5.1387,-5.1387,-5.1387,-5.1387,-5.1348,-5.1055,-5.0586,-5.0098,-4.9336,-4.8437,-4.7637,-4.6777,-4.6367,-4.6308,-4.6308,-4.6289,-4.6289,-4.6289,-4.6289,-4.6289,-4.623,-4.6173,-4.6117,-4.6084,-4.6089,-4.6104,-4.6108,-4.6108,-4.6089,-4.6027,-4.5935,-4.589,-4.5871,-4.5813,-4.5764,-4.5673,-4.5731,-4.5688,-4.5665,-4.5586,-4.5603,-4.5605,-4.5586,-4.5586,-4.5643,-4.5874,-4.6124,-4.624,-4.6413,-4.6605,-4.6604,-4.6583,-4.6469,-4.674,-4.7105,-4.7317,-4.7452,-4.778,-4.8145,-4.8183,-4.8105,-4.8041,-4.8439,-4.8433,-4.8197,-4.77,-4.7229,-4.6993,-4.6657,-4.6285,-4.5883,-4.548,-4.5297,-4.5164,-4.44,-4.3378,-4.258,-4.218,-4.17,-4.1168,-4.0634,-4.0182,-3.9868,-3.9476,-3.9056,-5.6097,-5.6097,-5.6135,-5.6146,-5.6146,-5.6181,-5.6222,-5.6211,-5.6222,-5.6232,-5.6211,-5.6222,-5.6222,-5.6202,-5.6066,-5.5638,-5.4762,-5.4792,-5.4373,-5.3506,-5.3302,-5.2894,-5.2513,-5.2127,-5.179,-5.1316,-5.1277,-5.1364,-5.1387,-5.1387,-5.1387,-5.1387,-5.1387,-5.1348,-5.1308,-5.123,-5.0859,-5.0559,-5.0109,-4.927,-4.8005,-4.7031,-4.6562,-4.6504,-4.6406,-4.6289,-4.6289,-4.6289,-4.6289,-4.6269,-4.6178,-4.6084,-4.6045,-4.5944,-4.5872,-4.5852,-4.5891,-4.5899,-4.5899,-4.5891,-4.589,-4.5832,-4.5802,-4.5708,-4.5648,-4.5632,-4.5601,-4.5586,-4.5586,-4.5586,-4.5624,-4.5797,-4.5874,-4.599,-4.6144,-4.6355,-4.6894,-4.7182,-4.7355,-4.7451,-4.7451,-4.7432,-4.7355,-4.7318,-4.7664,-4.7949,-4.8101,-4.8318,-4.8659,-4.8888,-4.8762,-4.827,-4.8244,-4.8386,-4.8258,-4.7983,-4.7729,-4.7652,-4.7305,-4.6948,-4.6522,-4.6043,-4.5824,-4.5435,-4.4499,-4.3476,-4.2578,-4.1736,-4.144,-4.0783,-3.9627,-3.9123,-3.9196,-3.8804,-3.8213,-5.5768,-5.5769,-5.5894,-5.5936,-5.5966,-5.6122,-5.62,-5.62,-5.6189,-5.6211,-5.6178,-5.62,-5.6189,-5.6158,-5.6111,-5.5227,-5.4391,-5.4214,-5.3755,-5.2558,-5.2491,-5.2433,-5.2173,-5.1551,-5.1468,-5.12,-5.1152,-5.124,-5.1328,-5.1367,-5.1387,-5.1367,-5.1268,-5.1215,-5.123,-5.1213,-5.1101,-5.0847,-5.0224,-4.9445,-4.861,-4.7825,-4.75,-4.7246,-4.6855,-4.6426,-4.6445,-4.6406,-4.6348,-4.625,-4.6167,-4.6039,-4.5924,-4.5859,-4.5756,-4.5722,-4.5769,-4.5899,-4.5881,-4.5836,-4.5803,-4.5761,-4.5712,-4.5654,-4.5603,-4.5605,-4.5605,-4.5586,-4.5643,-4.5797,-4.6028,-4.6394,-4.6624,-4.6913,-4.7163,-4.7528,-4.7952,-4.8009,-4.8202,-4.8567,-4.8663,-4.8452,-4.8298,-4.8222,-4.8222,-4.8499,-4.8738,-4.8947,-4.9048,-4.9181,-4.9224,-4.8711,-4.8329,-4.8403,-4.8378,-4.8133,-4.8066,-4.8107,-4.7848,-4.7512,-4.7022,-4.6495,-4.5888,-4.5341,-4.4436,-4.3618,-4.2723,-4.1995,-4.1401,-4.0527,-3.9498,-3.9061,-3.8908,-3.823,-3.7338,-5.5684,-5.5705,-5.575,-5.5808,-5.5789,-5.5879,-5.5894,-5.5913,-5.593,-5.5913,-5.5913,-5.5913,-5.5913,-5.5869,-5.5504,-5.4539,-5.3553,-5.3371,-5.2601,-5.1842,-5.1803,-5.1842,-5.1532,-5.1541,-5.1564,-5.1102,-5.1094,-5.112,-5.1219,-5.123,-5.1224,-5.1224,-5.1174,-5.1152,-5.1125,-5.1122,-5.1103,-5.0841,-5.0296,-4.9672,-4.9189,-4.8587,-4.8117,-4.8117,-4.7708,-4.7284,-4.6918,-4.6796,-4.6504,-4.624,-4.5979,-4.5901,-4.5825,-4.5756,-4.5648,-4.5635,-4.5673,-4.5736,-4.5722,-4.5723,-4.5708,-4.5696,-4.5654,-4.5603,-4.5586,-4.5682,-4.5932,-4.6317,-4.6336,-4.649,-4.6855,-4.7355,-4.749,-4.774,-4.8067,-4.8471,-4.8759,-4.8856,-4.9029,-4.9471,-4.9779,-4.9433,-4.9221,-4.9259,-4.9198,-4.9217,-4.9295,-4.934,-4.9249,-4.9111,-4.9126,-4.9002,-4.8706,-4.8561,-4.8472,-4.8292,-4.8218,-4.8218,-4.8218,-4.7858,-4.7456,-4.6902,-4.6186,-4.5468,-4.4671,-4.381,-4.2899,-4.2183,-4.155,-4.051,-3.94,-3.8838,-3.823,-3.71,-3.6305,-5.5684,-5.5684,-5.5684,-5.5684,-5.5684,-5.5684,-5.5705,-5.5724,-5.5705,-5.5705,-5.5684,-5.5705,-5.5705,-5.5588,-5.5129,-5.4514,-5.355,-5.2626,-5.1779,-5.1433,-5.126,-5.1222,-5.1123,-5.1363,-5.1386,-5.0908,-5.0945,-5.0996,-5.102,-5.102,-5.102,-5.1084,-5.1063,-5.1042,-5.1031,-5.1004,-5.0953,-5.0895,-5.0452,-5.0145,-4.9915,-4.9265,-4.8944,-4.8769,-4.8565,-4.8215,-4.766,-4.7553,-4.7144,-4.6863,-4.6663,-4.6687,-4.6615,-4.658,-4.6467,-4.6451,-4.6521,-4.6482,-4.629,-4.6044,-4.5699,-4.5643,-4.5932,-4.6144,-4.6374,-4.6259,-4.6394,-4.7163,-4.7201,-4.7509,-4.7952,-4.8202,-4.8413,-4.8548,-4.8759,-4.9183,-4.951,-4.9509,-4.9546,-4.9812,-5.0059,-5.0193,-5.0095,-5.0291,-5.0243,-5.0083,-4.9949,-4.9719,-4.9356,-4.8963,-4.8881,-4.8797,-4.8711,-4.8495,-4.8421,-4.8364,-4.8306,-4.8229,-4.8229,-4.7838,-4.7201,-4.6838,-4.6287,-4.5545,-4.4724,-4.4027,-4.3115,-4.2364,-4.1559,-4.0148,-3.8909,-3.8116,-3.7294,-3.6211,-3.5554,-5.5684,-5.5684,-5.5684,-5.5684,-5.5684,-5.5684,-5.5684,-5.5684,-5.5684,-5.5684,-5.5684,-5.5684,-5.5684,-5.5626,-5.5434,-5.4972,-5.4318,-5.3491,-5.2529,-5.1722,-5.1183,-5.0933,-5.0856,-5.0855,-5.0928,-5.0871,-5.0835,-5.0835,-5.0863,-5.0819,-5.0918,-5.1042,-5.094,-5.0918,-5.0894,-5.0835,-5.0789,-5.0805,-5.0616,-5.069,-5.05,-5.0079,-4.9701,-4.9517,-4.8992,-4.8458,-4.8399,-4.8369,-4.8202,-4.7958,-4.7779,-4.7734,-4.7592,-4.7557,-4.7471,-4.749,-4.7509,-4.749,-4.7336,-4.6567,-4.5817,-4.5874,-4.6317,-4.7009,-4.7394,-4.7759,-4.7971,-4.7952,-4.7972,-4.8068,-4.8414,-4.8702,-4.9025,-4.9158,-4.9288,-4.9616,-4.9906,-5.0064,-5.0117,-5.0199,-5.0206,-5.0159,-5.0111,-5.0092,-4.9974,-4.9773,-4.9445,-4.9202,-4.8881,-4.855,-4.8495,-4.8439,-4.8402,-4.8344,-4.8326,-4.821,-4.8075,-4.7937,-4.7856,-4.7324,-4.6618,-4.633,-4.6055,-4.5164,-4.4209,-4.3811,-4.3297,-4.2257,-4.1045,-3.9499,-3.839,-3.7673,-3.6847,-3.5903,-3.5484,-5.5684,-5.5684,-5.5684,-5.5684,-5.5684,-5.5684,-5.5684,-5.5684,-5.5684,-5.5684,-5.5684,-5.5684,-5.5684,-5.5588,-5.5126,-5.4818,-5.4395,-5.3606,-5.276,-5.2106,-5.1568,-5.1164,-5.0933,-5.0702,-5.074,-5.0775,-5.0721,-5.0702,-5.0757,-5.0702,-5.0739,-5.0805,-5.0805,-5.0791,-5.0739,-5.074,-5.0702,-5.0702,-5.0739,-5.0773,-5.0713,-5.0574,-5.0349,-5.0271,-5.014,-4.9521,-4.9154,-4.9077,-4.8748,-4.8458,-4.8318,-4.834,-4.8362,-4.8277,-4.8259,-4.8259,-4.8279,-4.8259,-4.8202,-4.7528,-4.7182,-4.7182,-4.749,-4.7798,-4.824,-4.8163,-4.8471,-4.8606,-4.8679,-4.8692,-4.9338,-4.9387,-4.9404,-4.9537,-4.9706,-4.9945,-5.0059,-5.0149,-5.0035,-4.9853,-4.98,-4.9746,-4.9719,-4.9645,-4.9514,-4.9337,-4.8996,-4.8711,-4.8458,-4.8324,-4.8324,-4.8229,-4.8229,-4.8172,-4.8153,-4.7977,-4.7756,-4.7614,-4.747,-4.6847,-4.6192,-4.5915,-4.551,-4.4602,-4.3872,-4.3496,-4.2802,-4.1766,-4.0767,-3.9838,-3.8535,-3.7281,-3.645,-3.5702,-3.5422,-5.5684,-5.5684,-5.5684,-5.5684,-5.5684,-5.5684,-5.5684,-5.5684,-5.5684,-5.5684,-5.5684,-5.5684,-5.5684,-5.5511,-5.5184,-5.4914,-5.4607,-5.378,-5.2972,-5.2299,-5.1741,-5.126,-5.0856,-5.0683,-5.0702,-5.0683,-5.0683,-5.0702,-5.0721,-5.0683,-5.0702,-5.0702,-5.0683,-5.0702,-5.0702,-5.0683,-5.0683,-5.0683,-5.0683,-5.0683,-5.0702,-5.0664,-5.0664,-5.0644,-5.0567,-5.0355,-4.9931,-4.9815,-4.9585,-4.9258,-4.9028,-4.8951,-4.8913,-4.8875,-4.8875,-4.8856,-4.8856,-4.8836,-4.8798,-4.8336,-4.8298,-4.8336,-4.8432,-4.8644,-4.8779,-4.8856,-4.9394,-4.9644,-4.9477,-4.942,-5.0068,-4.9732,-4.9513,-4.9557,-4.9543,-4.9727,-4.969,-4.9719,-4.9561,-4.9386,-4.9416,-4.9475,-4.9126,-4.9062,-4.9139,-4.9043,-4.8978,-4.8692,-4.8402,-4.8324,-4.8324,-4.8172,-4.8075,-4.8017,-4.7977,-4.7512,-4.7088,-4.7062,-4.6864,-4.6383,-4.5865,-4.5545,-4.525,-4.4593,-4.3939,-4.3283,-4.2542,-4.177,-4.1172,-4.0537,-3.8984,-3.7308,-3.6839,-3.6147,-3.5496,-5.5684,-5.5684,-5.5684,-5.5684,-5.5684,-5.5684,-5.5684,-5.5684,-5.5684,-5.5684,-5.5684,-5.5684,-5.5684,-5.5684,-5.5511,-5.5472,-5.5203,-5.4087,-5.3318,-5.2991,-5.1991,-5.1106,-5.0798,-5.0779,-5.0683,-5.0683,-5.0683,-5.0683,-5.0683,-5.0683,-5.0683,-5.0683,-5.0683,-5.0683,-5.0683,-5.0683,-5.0683,-5.0683,-5.0683,-5.0683,-5.0683,-5.0683,-5.0683,-5.0683,-5.0683,-5.0548,-5.0471,-5.0394,-5.026,-5.0164,-5.0164,-5.0164,-5.0202,-5.024,-5.0279,-5.0317,-5.0375,-5.0452,-5.0452,-4.9009,-4.8836,-4.9279,-4.9375,-4.9606,-5.0279,-5.0491,-5.0317,-5.0317,-5.0106,-4.9959,-4.9949,-4.9719,-4.9504,-4.93,-4.9277,-4.9268,-4.9239,-4.9227,-4.9048,-4.8949,-4.9158,-4.9234,-4.8711,-4.8439,-4.864,-4.8763,-4.8863,-4.8692,-4.8402,-4.8324,-4.8324,-4.8132,-4.7977,-4.7756,-4.7554,-4.6847,-4.643,-4.6448,-4.6209,-4.5732,-4.5494,-4.5303,-4.493,-4.4473,-4.3984,-4.3322,-4.2626,-4.1933,-4.115,-4.024,-3.8964,-3.7646,-3.7129,-3.6479,-3.5626,-5.5684,-5.5684,-5.5684,-5.5684,-5.5684,-5.5684,-5.5684,-5.5684,-5.5684,-5.5684,-5.5684,-5.5684,-5.5684,-5.5684,-5.5645,-5.5626,-5.5491,-5.5415,-5.4722,-5.3837,-5.2645,-5.2087,-5.1548,-5.0914,-5.0702,-5.0683,-5.0683,-5.0683,-5.0683,-5.0683,-5.0683,-5.0683,-5.0683,-5.0683,-5.0683,-5.0683,-5.0683,-5.0683,-5.0683,-5.0683,-5.0683,-5.0683,-5.0683,-5.0683,-5.0683,-5.0683,-5.0683,-5.0683,-5.0683,-5.0683,-5.0683,-5.0683,-5.0683,-5.0683,-5.0683,-5.0683,-5.0683,-5.0683,-5.0644,-5.0048,-4.999,-5.0144,-5.0221,-5.0317,-5.0664,-5.0683,-5.0683,-5.0565,-5.0206,-4.9974,-4.9719,-4.9326,-4.9062,-4.8692,-4.8616,-4.8635,-4.8604,-4.8641,-4.855,-4.8532,-4.864,-4.8728,-4.8439,-4.8324,-4.8476,-4.8402,-4.8513,-4.8568,-4.8306,-4.8324,-4.8324,-4.8114,-4.7897,-4.7614,-4.7194,-4.6383,-4.5865,-4.5783,-4.5511,-4.4998,-4.4906,-4.4981,-4.4507,-4.3997,-4.3706,-4.3366,-4.2379,-4.1446,-4.0671,-3.9665,-3.8637,-3.7868,-3.7401,-3.6461,-3.5377,-5.5684,-5.5684,-5.5684,-5.5684,-5.5684,-5.5684,-5.5684,-5.5684,-5.5684,-5.5684,-5.5684,-5.5684,-5.5684,-5.5626,-5.5415,-5.528,-5.5241,-5.4876,-5.4318,-5.3626,-5.3029,-5.2106,-5.1395,-5.101,-5.0741,-5.0683,-5.0683,-5.0683,-5.0683,-5.0683,-5.0683,-5.0683,-5.0683,-5.0683,-5.0683,-5.0683,-5.0683,-5.0683,-5.0683,-5.0683,-5.0683,-5.0683,-5.0683,-5.0683,-5.0683,-5.0683,-5.0683,-5.0683,-5.0683,-5.0683,-5.0683,-5.0683,-5.0683,-5.0683,-5.0683,-5.0683,-5.0683,-5.0683,-5.0644,-5.0644,-5.0451,-5.0347,-5.0604,-5.0683,-5.0644,-5.0544,-5.0483,-5.0336,-4.9999,-4.9673,-4.9326,-4.893,-4.8657,-4.8326,-4.8326,-4.8364,-4.8364,-4.8382,-4.8401,-4.8306,-4.8249,-4.8267,-4.8267,-4.8324,-4.8344,-4.8249,-4.8114,-4.8114,-4.8172,-4.8132,-4.8111,-4.7992,-4.7572,-4.7088,-4.6524,-4.5833,-4.5407,-4.5214,-4.4906,-4.4643,-4.4626,-4.4759,-4.4105,-4.3502,-4.3366,-4.2909,-4.1788,-4.0831,-4.0047,-3.9516,-3.8867,-3.8191,-3.7659,-3.6368,-3.4899,-5.5684,-5.5684,-5.5684,-5.5684,-5.5684,-5.5684,-5.5684,-5.5684,-5.5684,-5.5665,-5.5607,-5.5626,-5.5511,-5.5357,-5.4818,-5.4549,-5.4395,-5.3722,-5.3126,-5.2452,-5.2279,-5.1568,-5.1164,-5.0798,-5.0702,-5.0683,-5.0683,-5.0683,-5.0683,-5.0683,-5.0683,-5.0683,-5.0683,-5.0683,-5.0683,-5.0683,-5.0683,-5.0683,-5.0683,-5.0683,-5.0683,-5.0683,-5.0683,-5.0683,-5.0683,-5.0683,-5.0683,-5.0683,-5.0683,-5.0683,-5.0683,-5.0683,-5.0683,-5.0683,-5.0683,-5.0683,-5.0683,-5.0624,-5.0604,-5.0565,-5.0358,-5.0159,-5.0358,-5.0565,-5.0483,-5.0225,-5.0135,-4.9924,-4.9617,-4.9295,-4.893,-4.8692,-4.844,-4.8326,-4.8306,-4.8306,-4.8306,-4.8324,-4.8324,-4.8267,-4.8172,-4.8114,-4.8035,-4.8075,-4.7797,-4.7656,-4.7512,-4.7554,-4.7596,-4.7738,-4.7752,-4.7801,-4.7284,-4.6524,-4.5915,-4.5442,-4.5089,-4.4889,-4.4797,-4.457,-4.457,-4.4384,-4.3873,-4.3426,-4.3108,-4.2332,-4.1028,-4.0185,-3.9565,-3.9017,-3.8308,-3.8117,-3.7491,-3.5544,-3.4199,-5.5684,-5.5684,-5.5684,-5.5684,-5.5684,-5.5684,-5.5684,-5.5684,-5.5684,-5.5434,-5.4857,-5.5453,-5.4991,-5.3991,-5.4299,-5.403,-5.3664,-5.3337,-5.3164,-5.2664,-5.2068,-5.1798,-5.1414,-5.0952,-5.0779,-5.0683,-5.0683,-5.0683,-5.0683,-5.0683,-5.0663,-5.0683,-5.0585,-5.0624,-5.0624,-5.0683,-5.0624,-5.0644,-5.0624,-5.0683,-5.0683,-5.0683,-5.0683,-5.0683,-5.0683,-5.0683,-5.0683,-5.0683,-5.0683,-5.0683,-5.0683,-5.0683,-5.0683,-5.0683,-5.0683,-5.0663,-5.0483,-5.0249,-5.0225,-5.0019,-4.9819,-4.9719,-4.9827,-4.98,-4.98,-4.9746,-4.9645,-4.9504,-4.9326,-4.9062,-4.8847,-4.8621,-4.8421,-4.8326,-4.8324,-4.8324,-4.8324,-4.8324,-4.8324,-4.8229,-4.8132,-4.7838,-4.7756,-4.7306,-4.7044,-4.6955,-4.691,-4.6892,-4.7026,-4.7176,-4.7407,-4.7471,-4.6898,-4.6098,-4.57,-4.5264,-4.4886,-4.4626,-4.4497,-4.4367,-4.4253,-4.3989,-4.3604,-4.2892,-4.2013,-4.1044,-4.0005,-3.9322,-3.8943,-3.8055,-3.742,-3.7496,-3.7021,-3.4967,-3.339,-5.5684,-5.5684,-5.5684,-5.5684,-5.5645,-5.5357,-5.5222,-5.5222,-5.5222,-5.4914,-5.453,-5.4607,-5.4145,-5.3395,-5.3356,-5.3126,-5.2722,-5.2626,-5.2395,-5.1895,-5.201,-5.1645,-5.1318,-5.0991,-5.076,-5.0683,-5.0683,-5.0683,-5.0663,-5.0504,-5.0442,-5.0421,-5.0358,-5.0249,-5.0183,-5.0135,-5.0159,-5.0294,-5.0462,-5.0624,-5.0683,-5.0683,-5.0683,-5.0683,-5.0683,-5.0683,-5.0683,-5.0683,-5.0683,-5.0624,-5.0604,-5.0442,-5.0399,-5.0336,-5.0206,-5.0135,-4.9999,-4.9853,-4.9827,-4.9673,-4.9475,-4.9326,-4.9265,-4.919,-4.919,-4.9139,-4.9202,-4.9221,-4.9062,-4.8897,-4.8744,-4.8621,-4.8477,-4.8344,-4.8306,-4.8324,-4.8324,-4.8324,-4.8267,-4.8229,-4.7955,-4.7572,-4.7176,-4.6664,-4.6365,-4.646,-4.6336,-4.6161,-4.6288,-4.6524,-4.6906,-4.7212,-4.6469,-4.5649,-4.5371,-4.5029,-4.4553,-4.4196,-4.3931,-4.3814,-4.3798,-4.335,-4.2691,-4.1674,-4.0516,-3.9722,-3.909,-3.8782,-3.8308,-3.7343,-3.6383,-3.6067,-3.5386,-3.3798,-3.2537,-5.5684,-5.5684,-5.5626,-5.553,-5.5472,-5.4741,-5.4395,-5.4376,-5.426,-5.426,-5.4049,-5.3549,-5.3183,-5.2664,-5.2433,-5.2125,-5.1895,-5.1818,-5.1568,-5.0779,-5.1395,-5.1356,-5.0971,-5.0683,-5.0683,-5.0683,-5.0683,-5.0624,-5.0504,-5.0272,-5.0043,-5.0043,-4.9773,-4.9673,-4.9719,-4.9692,-4.9746,-4.98,-5.0159,-5.0442,-5.0565,-5.0644,-5.0683,-5.0683,-5.0683,-5.0683,-5.0683,-5.0683,-5.0683,-5.0565,-5.038,-5.014,-4.9949,-4.98,-4.9645,-4.9532,-4.9532,-4.9475,-4.9416,-4.9295,-4.9126,-4.8963,-4.8829,-4.8728,-4.8711,-4.8728,-4.8832,-4.8847,-4.8692,-4.8604,-4.8513,-4.8458,-4.8364,-4.8233,-4.8159,-4.8041,-4.7977,-4.7879,-4.7756,-4.7614,-4.7237,-4.691,-4.6635,-4.6094,-4.5681,-4.5865,-4.5815,-4.5511,-4.5615,-4.5885,-4.6259,-4.6653,-4.5942,-4.5247,-4.514,-4.472,-4.4121,-4.3756,-4.3459,-4.3031,-4.2892,-4.2316,-4.1658,-4.0894,-4.0115,-3.9103,-3.8397,-3.8234,-3.7677,-3.6304,-3.5426,-3.4706,-3.361,-3.2203,-3.1504,-5.5684,-5.5626,-5.503,-5.478,-5.4664,-5.3876,-5.351,-5.3453,-5.2779,-5.2547,-5.2587,-5.2856,-5.2472,-5.1548,-5.1779,-5.1587,-5.1125,-5.1144,-5.0894,-5.076,-5.1029,-5.1068,-5.0741,-5.0683,-5.0721,-5.0683,-5.0663,-5.06,-5.0298,-4.9974,-4.9664,-4.9636,-4.9416,-4.9356,-4.9386,-4.9386,-4.9386,-4.9356,-4.9645,-4.9974,-5.0183,-5.0504,-5.0683,-5.0663,-5.0663,-5.0604,-5.0604,-5.0624,-5.0663,-5.0624,-5.0313,-4.9993,-4.9664,-4.9532,-4.9475,-4.9445,-4.9171,-4.9094,-4.8996,-4.8847,-4.8676,-4.8586,-4.8458,-4.8402,-4.8364,-4.8439,-4.8421,-4.8421,-4.8383,-4.8344,-4.8324,-4.8324,-4.8249,-4.8082,-4.7952,-4.7787,-4.7656,-4.7409,-4.7176,-4.691,-4.6542,-4.6257,-4.6032,-4.57,-4.5178,-4.4981,-4.4944,-4.4848,-4.4984,-4.5237,-4.5432,-4.566,-4.5329,-4.4844,-4.489,-4.4807,-4.4348,-4.3476,-4.3027,-4.2571,-4.1949,-4.1412,-4.0826,-4.0569,-3.996,-3.8884,-3.8159,-3.7919,-3.7112,-3.5507,-3.4158,-3.3428,-3.1942,-3.0551,-3.0011,-5.4587,-5.4549,-5.4107,-5.3933,-5.376,-5.2991,-5.2645,-5.2451,-5.154,-5.1092,-5.1171,-5.168,-5.1529,-5.0721,-5.1183,-5.1221,-5.0721,-5.0702,-5.0721,-5.0702,-5.0624,-5.0721,-5.0683,-5.0643,-5.1048,-5.1087,-5.096,-5.0779,-5.0225,-4.9588,-4.9234,-4.9202,-4.9108,-4.8996,-4.9015,-4.8963,-4.8996,-4.893,-4.9139,-4.9356,-4.9645,-4.9949,-5.0159,-5.0159,-5.0183,-5.0183,-5.0159,-5.014,-5.0159,-5.0068,-4.9746,-4.9307,-4.9062,-4.8915,-4.8949,-4.8881,-4.8763,-4.864,-4.8586,-4.8458,-4.8324,-4.8324,-4.8324,-4.8306,-4.8306,-4.8382,-4.8382,-4.8326,-4.8326,-4.8324,-4.8324,-4.8324,-4.8035,-4.7806,-4.7819,-4.7782,-4.7241,-4.671,-4.6664,-4.6664,-4.6257,-4.5833,-4.5684,-4.5765,-4.5397,-4.5507,-4.5252,-4.549,-4.5409,-4.5074,-4.5166,-4.5301,-4.5341,-4.5483,-4.5845,-4.5488,-4.4863,-4.3896,-4.2799,-4.1844,-4.1211,-4.0593,-4.006,-3.991,-3.9553,-3.8649,-3.7994,-3.7357,-3.6015,-3.4332,-3.3101,-3.2042,-3.0551,-2.9223,-2.8669,-5.326,-5.3203,-5.3087,-5.3049,-5.2914,-5.2106,-5.176,-5.1566,-5.0661,-5.0178,-5.0236,-5.0558,-5.0604,-5.0624,-5.0624,-5.0624,-5.0604,-5.0504,-5.0565,-5.0462,-5.0462,-5.0358,-5.0358,-5.0481,-5.0725,-5.0956,-5.0977,-5.0618,-5.0169,-4.938,-4.8813,-4.8744,-4.8532,-4.8306,-4.8324,-4.8306,-4.8439,-4.8513,-4.8657,-4.8813,-4.9029,-4.9265,-4.9504,-4.958,-4.9504,-4.9504,-4.9504,-4.9504,-4.9522,-4.9416,-4.9265,-4.8881,-4.8604,-4.8495,-4.8476,-4.8476,-4.8458,-4.8402,-4.8344,-4.8344,-4.8324,-4.8324,-4.8324,-4.8324,-4.8306,-4.8267,-4.8267,-4.8267,-4.8267,-4.8267,-4.8267,-4.8172,-4.7879,-4.75,-4.7563,-4.7408,-4.6678,-4.6049,-4.62,-4.6297,-4.6075,-4.5615,-4.5726,-4.5801,-4.5869,-4.6031,-4.6227,-4.6549,-4.6574,-4.6052,-4.5791,-4.622,-4.6566,-4.6743,-4.7014,-4.5824,-4.497,-4.3962,-4.2734,-4.1519,-4.0609,-4.0561,-4.0212,-3.94,-3.8929,-3.8225,-3.7092,-3.616,-3.4733,-3.3556,-3.1904,-3.0808,-3.0191,-2.8855,-2.7757,-5.3203,-5.3145,-5.2452,-5.2124,-5.2009,-5.1279,-5.0933,-5.0894,-5.07,-5.0421,-5.0135,-5.0135,-5.0225,-5.0225,-5.0225,-5.0225,-5.0225,-5.0206,-4.9949,-4.9773,-4.9898,-4.9827,-4.994,-5.0317,-4.9944,-5.0223,-5.05,-5.0001,-4.9818,-4.9009,-4.8439,-4.8421,-4.8439,-4.8324,-4.8324,-4.8324,-4.8306,-4.8364,-4.8364,-4.8495,-4.8657,-4.8963,-4.9416,-4.9504,-4.9504,-4.9504,-4.9504,-4.9504,-4.9504,-4.9386,-4.9075,-4.8692,-4.8458,-4.8324,-4.8324,-4.8324,-4.8324,-4.8324,-4.8324,-4.8324,-4.8324,-4.8324,-4.8306,-4.8267,-4.821,-4.8172,-4.8172,-4.8075,-4.8075,-4.8132,-4.8132,-4.8075,-4.7797,-4.7187,-4.698,-4.6288,-4.5577,-4.5528,-4.5644,-4.5939,-4.6161,-4.6122,-4.6414,-4.6472,-4.6573,-4.6701,-4.6802,-4.709,-4.7208,-4.681,-4.6462,-4.7019,-4.7663,-4.8235,-4.8439,-4.5972,-4.4805,-4.3811,-4.2794,-4.1663,-4.1081,-4.1145,-4.0696,-3.9635,-3.875,-3.7983,-3.6733,-3.5466,-3.4454,-3.3326,-3.1033,-2.9659,-2.9212,-2.8391,-2.7115]},{"header":{"parameterUnit":"m.s-1","parameterCategory":1,"la1":31.0,"la2":29.5877,"lo1":-88.7671,"lo2":-86.6584,"dy":0.0162,"dx":0.0185,"nx":115,"ny":88,"refTime":"2024-04-09T06:00:00:Z","depth":0,"parameterNumber":3,"parameterNumberName":"V-component_of_WINDS"},"data":[0.0,0.0,0.0,0.0,0.0,0.0,0.0,0.0,0.0,0.0,0.0,0.0,0.0,0.0,0.0,0.0,0.0,0.0,0.0,0.0,0.0,0.0,0.0,0.0,0.0,0.0,0.0,0.0,0.0,0.0,0.0,0.0,0.0,0.0,0.0,0.0,0.0,0.0,0.0,0.0,0.0,0.0,0.0,0.0,0.0,0.0,0.0,0.0,0.0,0.0,0.0,0.0,0.0,0.0,0.0,0.0,0.0,0.0,0.0,0.0,0.0,0.0,0.0,0.0,0.0,0.0,0.0,0.0,0.0,0.0,0.0,0.0,0.0,0.0,0.0,0.0,0.0,0.0,0.0,0.0,0.0,0.0,0.0,0.0,0.0,0.0,0.0,0.0,0.0,0.0,0.0,0.0,0.0,0.0,0.0,0.0,0.0,0.0,0.0,0.0,0.0,0.0,0.0,0.0,0.0,0.0,0.0,0.0,0.0,0.0,0.0,0.0,0.0,0.0,0.0,0.0,0.0,0.0,0.0,0.0,0.0,0.0,0.0,0.0,0.0,0.0,0.0,0.0,0.0,0.0,0.0,0.0,0.0,0.0,0.0,0.0,0.0,0.0,0.0,0.0,0.0,0.0,0.0,0.0,0.0,0.0,0.0,0.0,0.0,0.0,0.0,0.0,0.0,0.0,0.0,0.0,0.0,0.0,0.0,0.0,0.0,0.0,0.0,0.0,0.0,0.0,0.0,0.0,0.0,0.0,0.0,0.0,0.0,0.0,0.0,0.0,0.0,0.0,0.0,0.0,0.0,0.0,0.0,0.0,0.0,0.0,0.0,0.0,0.0,0.0,0.0,0.0,0.0,0.0,0.0,0.0,0.0,0.0,0.0,0.0,0.0,0.0,0.0,0.0,0.0,0.0,0.0,0.0,0.0,0.0,0.0,0.0,0.0,0.0,0.0,0.0,0.0,0.0,0.0,0.0,0.0,0.0,0.0,0.0,0.0,0.0,0.0,0.0,0.0,0.0,0.0,0.0,0.0,0.0,0.0,0.0,0.0,0.0,0.0,0.0,0.0,0.0,0.0,0.0,0.0,0.0,0.0,0.0,0.0,0.0,0.0,0.0,0.0,0.0,0.0,0.0,0.0,0.0,0.0,0.0,0.0,0.0,0.0,0.0,0.0,0.0,0.0,0.0,0.0,0.0,0.0,0.0,0.0,0.0,0.0,0.0,0.0,0.0,0.0,0.0,0.0,0.0,0.0,0.0,0.0,0.0,0.0,0.0,0.0,0.0,0.0,0.0,0.0,0.0,0.0,0.0,0.0,0.0,0.0,0.0,0.0,0.0,0.0,0.0,0.0,0.0,0.0,0.0,0.0,0.0,0.0,0.0,0.0,0.0,0.0,0.0,0.0,0.0,0.0,0.0,0.0,0.0,0.0,0.0,0.0,0.0,0.0,0.0,0.0,0.0,0.0,0.0,0.0,0.0,0.0,0.0,0.0,0.0,0.0,0.0,0.0,0.0,0.0,0.0,0.0,0.0,0.0,0.0,0.0,0.0,0.0,0.0,0.0,0.0,0.0,0.0,0.0,0.0,0.0,0.0,0.0,0.0,0.0,0.0,0.0,0.0,0.0,0.0,0.0,0.0,0.0,0.0,0.0,0.0,0.0,0.0,0.0,0.0,0.0,0.0,0.0,0.0,0.0,0.0,0.0,0.0,0.0,0.0,0.0,0.0,0.0,0.0,0.0,0.0,0.0,0.0,0.0,0.0,0.0,0.0,0.0,0.0,0.0,0.0,0.0,0.0,0.0,0.0,0.0,0.0,0.0,0.0,0.0,0.0,0.0,0.0,0.0,0.0,0.0,0.0,0.0,0.0,0.0,0.0,0.0,0.0,0.0,0.0,0.0,0.0,0.0,0.0,0.0,0.0,0.0,0.0,0.0,0.0,0.0,0.0,0.0,0.0,0.0,0.0,0.0,0.0,0.0,0.0,0.0,0.0,0.0,0.0,0.0,0.0,0.0,0.0,0.0,0.0,0.0,0.0,0.0,0.0,0.0,0.0,0.0,0.0,0.0,0.0,0.0,0.0,0.0,0.0,0.0,0.0,0.0,0.0,0.0,0.0,0.0,0.0,0.0,0.0,0.0,0.0,0.0,0.0,0.0,0.0,0.0,0.0,0.0,0.0,0.0,0.0,0.0,0.0,0.0,0.0,0.0,0.0,0.0,0.0,0.0,0.0,0.0,0.0,0.0,0.0,0.0,0.0,0.0,0.0,0.0,0.0,0.0,0.0,0.0,0.0,0.0,0.0,0.0,0.0,0.0,0.0,0.0,0.0,0.0,0.0,0.0,0.0,0.0,0.0,0.0,0.0,0.0,0.0,0.0,0.0,0.0,0.0,0.0,0.0,0.0,0.0,0.0,0.0,0.0,0.0,0.0,0.0,0.0,0.0,0.0,0.0,0.0,0.0,0.0,0.0,0.0,0.0,0.0,0.0,0.0,0.0,0.0,0.0,0.0,0.0,0.0,0.0,0.0,0.0,0.0,0.0,0.0,0.0,0.0,0.0,0.0,0.0,0.0,0.0,0.0,0.0,0.0,0.0,0.0,0.0,0.0,0.0,0.0,0.0,0.0,0.0,0.0,0.0,0.0,0.0,0.0,0.0,0.0,0.0,0.0,0.0,0.0,0.0,0.0,0.0,0.0,0.0,0.0,0.0,0.0,0.0,0.0,0.0,0.0,0.0,0.0,0.0,0.0,0.0,0.0,0.0,0.0,0.0,0.0,0.0,0.0,0.0,0.0,0.0,0.0,0.0,0.0,0.0,0.0,0.0,0.0,0.0,0.0,0.0,0.0,0.0,0.0,0.0,0.0,0.0,0.0,0.0,0.0,0.0,0.0,0.0,0.0,0.0,0.0,0.0,0.0,0.0,0.0,0.0,0.0,0.0,0.0,0.0,0.0,0.0,0.0,0.0,0.0,0.0,0.0,0.0,0.0,0.0,0.0,0.0,0.0,0.0,0.0,0.0,0.0,0.0,0.0,0.0,0.0,0.0,0.0,0.0,0.0,0.0,0.0,0.0,0.0,0.0,0.0,0.0,0.0,0.0,0.0,0.0,0.0,0.0,0.0,0.0,0.0,0.0,0.0,0.0,0.0,0.0,0.0,0.0,0.0,0.0,0.0,0.0,0.0,0.0,0.0,0.0,0.0,0.0,0.0,0.0,0.0,0.0,0.0,0.0,0.0,0.0,0.0,0.0,0.0,0.0,0.0,0.0,0.0,0.0,0.0,0.0,0.0,0.0,0.0,0.0,0.0,0.0,0.0,0.0,0.0,0.0,0.0,0.0,0.0,0.0,0.0,0.0,0.0,0.0,0.0,0.0,0.0,0.0,0.0,0.0,0.0,0.0,0.0,0.0,0.0,0.0,0.0,0.0,0.0,0.0,0.0,0.0,0.0,0.0,0.0,0.0,0.0,0.0,0.0,0.0,0.0,0.0,0.0,0.0,0.0,0.0,0.0,0.0,0.0,0.0,0.0,0.0,0.0,0.0,0.0,0.0,0.0,0.0,0.0,0.0,0.0,0.0,0.0,0.0,0.0,0.0,0.0,0.0,0.0,0.0,0.0,0.0,0.0,0.0,0.0,0.0,0.0,0.0,0.0,0.0,0.0,0.0,0.0,0.0,0.0,0.0,0.0,0.0,0.0,0.0,0.0,0.0,0.0,0.0,0.0,0.0,0.0,0.0,0.0,0.0,0.0,0.0,0.0,0.0,0.0,0.0,0.0,0.0,0.0,0.0,0.0,0.0,0.0,0.0,0.0,0.0,0.0,0.0,0.0,0.0,0.0,0.0,0.0,0.0,0.0,0.0,0.0,0.0,0.0,0.0,0.0,0.0,0.0,0.0,0.0,0.0,0.0,0.0,0.0,0.0,0.0,0.0,0.0,0.0,0.0,0.0,0.0,0.0,0.0,0.0,0.0,0.0,0.0,0.0,0.0,0.0,0.0,0.0,0.0,0.0,0.0,0.0,0.0,0.0,0.0,0.0,0.0,0.0,0.0,0.0,0.0,0.0,0.0,0.0,0.0,0.0,0.0,0.0,0.0,0.0,0.0,0.0,0.0,0.0,0.0,0.0,0.0,0.0,0.0,0.0,0.0,0.0,0.0,0.0,0.0,0.0,0.0,0.0,0.0,0.0,0.0,0.0,0.0,0.0,0.0,0.0,0.0,0.0,0.0,0.0,0.0,0.0,0.0,0.0,0.0,0.0,0.0,0.0,0.0,0.0,-0.4382,0.0,0.0,0.0,0.0,0.0,0.0,0.0,0.0,0.0,0.0,0.0,0.0,0.0,0.0,0.0,0.0,0.0,0.0,0.0,0.0,0.0,0.0,0.0,0.0,0.0,0.0,0.0,0.0,0.0,0.0,0.0,0.0,0.0,0.0,0.0,0.0,0.0,0.0,0.0,0.0,0.0,0.0,0.0,0.0,0.0,0.0,0.0,0.0,0.0,0.0,0.0,0.0,0.0,0.0,0.0,0.0,0.0,0.0,0.0,0.0,0.0,0.0,0.0,0.0,0.0,0.0,0.0,0.0,0.0,0.0,0.0,0.0,0.0,0.0,0.0,0.0,0.0,0.0,0.0,0.0,0.0,0.0,0.0,0.0,0.0,0.0,0.0,0.0,0.0,0.0,0.0,0.0,0.0,0.0,0.0,0.0,0.0,0.0,0.0,0.0,0.0,0.0,0.0,0.0,0.0,0.0,0.0,0.0,0.0,0.0,-0.5365,-0.4953,-0.4672,-0.4415,-0.4188,0.0,0.0,0.0,0.0,0.0,0.0,0.0,0.0,0.0,0.0,0.0,0.0,0.0,0.0,0.0,0.0,0.0,0.0,0.0,0.0,0.0,0.0,0.0,0.0,0.0,0.0,0.0,0.0,0.0,0.0,0.0,0.0,0.0,0.0,0.0,0.0,0.0,0.0,0.0,0.0,0.0,0.0,0.0,0.0,0.0,0.0,0.0,0.0,0.0,0.0,0.0,0.0,0.0,0.0,0.0,0.0,0.0,0.0,0.0,0.0,0.0,0.0,0.0,0.0,0.0,0.0,0.0,0.0,0.0,0.0,0.0,0.0,0.0,0.0,0.0,0.0,0.0,0.0,0.0,0.0,0.0,0.0,0.0,0.0,0.0,0.0,0.0,0.0,0.0,0.0,0.0,0.0,0.0,0.0,0.0,0.0,0.0,0.0,0.0,0.0,0.0,0.0,0.0,0.0,0.0,0.0,0.0,0.0,0.0,0.0,0.0,0.0,-0.4646,-0.4355,-0.4053,0.0,0.0,0.0,0.0,0.0,0.0,0.0,0.0,0.0,0.0,0.0,0.0,0.0,0.0,0.0,0.0,0.0,0.0,0.0,0.0,0.0,0.0,0.0,0.0,0.0,0.0,0.0,0.0,0.0,0.0,0.0,0.0,0.0,0.0,0.0,0.0,0.0,0.0,0.0,0.0,0.0,0.0,0.0,0.0,0.0,0.0,0.0,0.0,0.0,0.0,0.0,0.0,0.0,0.0,0.0,0.0,0.0,0.0,0.0,0.0,0.0,0.0,0.0,0.0,0.0,0.0,0.0,0.0,0.0,0.0,0.0,0.0,0.0,0.0,0.0,0.0,0.0,0.0,0.0,0.0,0.0,0.0,0.0,0.0,0.0,0.0,0.0,0.0,0.0,0.0,0.0,0.0,0.0,0.0,0.0,0.0,0.0,0.0,0.0,0.0,0.0,0.0,0.0,0.0,0.0,0.0,0.0,0.0,0.0,0.0,-0.5257,-0.4915,-0.464,0.0,-0.4458,0.0,0.0,0.0,0.0,0.0,0.0,0.0,0.0,0.0,0.0,0.0,0.0,0.0,0.0,0.0,0.0,0.0,0.0,0.0,0.0,0.0,0.0,0.0,0.0,0.0,0.0,0.0,0.0,0.0,0.0,0.0,0.0,0.0,0.0,0.0,0.0,0.0,0.0,0.0,0.0,0.0,0.0,0.0,0.0,0.0,0.0,0.0,0.0,0.0,0.0,0.0,0.0,0.0,0.0,0.0,0.0,0.0,0.0,0.0,0.0,0.0,0.0,0.0,0.0,0.0,0.0,0.0,0.0,0.0,0.0,0.0,0.0,0.0,0.0,0.0,0.0,0.0,0.0,0.0,0.0,0.0,0.0,0.0,0.0,0.0,0.0,0.0,0.0,0.0,0.0,0.0,0.0,0.0,0.0,0.0,0.0,0.0,0.0,0.0,0.0,0.0,0.0,0.0,0.0,0.0,0.0,0.0,0.0,0.0,0.0,-0.5232,-0.4832,-0.4543,-0.4253,0.0,0.0,0.0,0.0,0.0,0.0,0.0,0.0,0.0,0.0,0.0,0.0,0.0,0.0,0.0,0.0,0.0,0.0,0.0,0.0,0.0,0.0,0.0,0.0,0.0,0.0,0.0,0.0,0.0,0.0,0.0,0.0,0.0,0.0,0.0,0.0,0.0,0.0,0.0,0.0,0.0,0.0,0.0,0.0,0.0,0.0,0.0,0.0,0.0,0.0,0.0,0.0,0.0,0.0,0.0,0.0,0.0,0.0,0.0,0.0,0.0,0.0,0.0,0.0,0.0,0.0,0.0,0.0,0.0,0.0,0.0,0.0,0.0,0.0,0.0,0.0,0.0,0.0,0.0,0.0,0.0,0.0,0.0,0.0,0.0,0.0,0.0,0.0,0.0,0.0,0.0,0.0,0.0,0.0,0.0,0.0,0.0,0.0,0.0,0.0,0.0,0.0,0.0,0.0,0.0,0.0,0.0,0.0,0.0,0.0,-0.5515,-0.5106,-0.4678,-0.4377,-0.4091,-0.384,0.0,0.0,0.0,0.0,0.0,0.0,0.0,0.0,0.0,0.0,0.0,0.0,0.0,0.0,0.0,0.0,0.0,0.0,0.0,0.0,0.0,0.0,0.0,0.0,0.0,0.0,0.0,0.0,0.0,0.0,0.0,0.0,0.0,0.0,0.0,0.0,0.0,0.0,0.0,0.0,0.0,0.0,0.0,0.0,0.0,0.0,0.0,0.0,0.0,0.0,0.0,0.0,0.0,0.0,0.0,0.0,0.0,0.0,0.0,0.0,0.0,0.0,0.0,0.0,0.0,0.0,0.0,0.0,0.0,0.0,0.0,0.0,0.0,0.0,0.0,0.0,0.0,0.0,0.0,0.0,0.0,0.0,0.0,0.0,0.0,0.0,0.0,0.0,0.0,0.0,0.0,0.0,0.0,0.0,0.0,0.0,0.0,0.0,0.0,0.0,0.0,0.0,0.0,0.0,0.0,0.0,0.0,0.0,-0.571,-0.5334,-0.4884,-0.4361,-0.4123,-0.4026,0.0,0.0,0.0,0.0,0.0,0.0,0.0,0.0,0.0,0.0,0.0,0.0,0.0,0.0,0.0,0.0,0.0,0.0,0.0,0.0,0.0,0.0,0.0,0.0,0.0,0.0,0.0,0.0,0.0,0.0,0.0,0.0,0.0,0.0,0.0,0.0,0.0,0.0,0.0,0.0,0.0,0.0,0.0,0.0,0.0,0.0,0.0,0.0,0.0,0.0,0.0,0.0,0.0,0.0,0.0,0.0,0.0,0.0,0.0,0.0,0.0,0.0,0.0,0.0,0.0,0.0,0.0,0.0,0.0,0.0,0.0,0.0,0.0,0.0,0.0,0.0,0.0,0.0,0.0,0.0,0.0,0.0,0.0,0.0,0.0,0.0,0.0,0.0,0.0,0.0,0.0,0.0,0.0,0.0,0.0,0.0,0.0,0.0,0.0,0.0,0.0,0.0,0.0,0.0,0.0,0.0,0.0,0.0,0.0,-0.589,-0.5421,-0.4985,-0.4639,-0.4362,-0.4211,0.0,0.0,0.0,0.0,0.0,0.0,0.0,0.0,0.0,0.0,0.0,0.0,0.0,0.0,0.0,0.0,0.0,0.0,0.0,0.0,0.0,0.0,0.0,0.0,0.0,0.0,0.0,0.0,0.0,0.0,0.0,0.0,0.0,0.0,0.0,0.0,0.0,0.0,0.0,0.0,0.0,0.0,0.0,0.0,0.0,0.0,0.0,0.0,0.0,0.0,0.0,0.0,0.0,0.0,0.0,0.0,0.0,0.0,0.0,0.0,0.0,0.0,0.0,0.0,0.0,0.0,0.0,0.0,0.0,0.0,0.0,0.0,0.0,0.0,0.0,0.0,0.0,0.0,0.0,0.0,0.0,0.0,0.0,0.0,0.0,0.0,0.0,0.0,0.0,0.0,0.0,0.0,0.0,0.0,0.0,0.0,0.0,0.0,0.0,0.0,0.0,0.0,0.0,0.0,0.0,0.0,0.0,0.0,0.0,-0.5858,0.0,-0.4958,-0.4666,-0.4482,-0.4331,0.0,0.0,0.0,0.0,0.0,0.0,0.0,0.0,0.0,0.0,0.0,0.0,0.0,0.0,0.0,0.0,0.0,0.0,0.0,0.0,0.0,0.0,0.0,0.0,0.0,0.0,0.0,0.0,0.0,0.0,0.0,0.0,0.0,0.0,0.0,0.0,0.0,0.0,0.0,0.0,0.0,0.0,0.0,0.0,0.0,0.0,0.0,0.0,0.0,0.0,0.0,0.0,0.0,0.0,0.0,0.0,0.0,0.0,0.0,0.0,0.0,0.0,0.0,0.0,0.0,0.0,0.0,0.0,0.0,0.0,0.0,0.0,0.0,0.0,0.0,0.0,0.0,0.0,0.0,0.0,0.0,0.0,0.0,0.0,0.0,0.0,0.0,0.0,0.0,0.0,0.0,0.0,0.0,0.0,0.0,0.0,0.0,0.0,0.0,0.0,0.0,0.0,0.0,0.0,0.0,0.0,0.0,0.0,-0.6644,-0.5559,-0.512,-0.4767,-0.4328,-0.4437,-0.4327,0.0,0.0,0.0,0.0,0.0,0.0,0.0,0.0,0.0,0.0,0.0,0.0,0.0,0.0,0.0,0.0,0.0,0.0,0.0,0.0,0.0,0.0,0.0,0.0,0.0,0.0,0.0,0.0,0.0,0.0,0.0,0.0,0.0,0.0,0.0,0.0,0.0,0.0,0.0,0.0,0.0,0.0,0.0,0.0,0.0,0.0,0.0,0.0,0.0,0.0,0.0,0.0,0.0,0.0,0.0,0.0,0.0,0.0,0.0,0.0,0.0,0.0,0.0,0.0,0.0,0.0,0.0,0.0,0.0,0.0,0.0,0.0,0.0,0.0,0.0,0.0,0.0,0.0,0.0,0.0,0.0,0.0,0.0,0.0,0.0,0.0,0.0,0.0,0.0,0.0,0.0,0.0,0.0,0.0,0.0,0.0,0.0,0.0,0.0,0.0,0.0,0.0,0.0,0.0,0.0,0.0,0.0,0.0,0.0,-0.5873,-0.5407,-0.5037,-0.4791,-0.4523,-0.4377,0.0,0.0,0.0,0.0,0.0,0.0,0.0,0.0,0.0,0.0,0.0,0.0,0.0,0.0,0.0,0.0,0.0,0.0,0.0,0.0,0.0,0.0,0.0,0.0,0.0,0.0,0.0,0.0,0.0,0.0,0.0,0.0,0.0,0.0,0.0,0.0,0.0,0.0,0.0,0.0,0.0,0.0,0.0,0.0,0.0,0.0,0.0,0.0,0.0,0.0,0.0,0.0,0.0,0.0,0.0,0.0,0.0,0.0,0.0,0.0,0.0,0.0,0.0,0.0,0.0,0.0,0.0,0.0,0.0,0.0,0.0,0.0,0.0,0.0,0.0,0.0,0.0,0.0,0.0,0.0,0.0,0.0,0.0,0.0,0.0,0.0,0.0,0.0,0.0,0.0,0.0,0.0,0.0,0.0,0.0,0.0,0.0,0.0,0.0,0.0,0.0,0.0,0.0,0.0,0.0,0.0,0.0,0.0,0.0,-0.5877,-0.5525,-0.5199,-0.4998,-0.4648,-0.4517,-0.4614,0.0,0.0,0.0,0.0,0.0,0.0,0.0,0.0,0.0,0.0,0.0,0.0,0.0,0.0,0.0,0.0,0.0,0.0,0.0,0.0,0.0,0.0,0.0,0.0,0.0,0.0,0.0,0.0,0.0,0.0,0.0,0.0,0.0,0.0,0.0,0.0,0.0,0.0,0.0,0.0,0.0,0.0,0.0,0.0,0.0,0.0,0.0,0.0,0.0,0.0,0.0,0.0,0.0,0.0,0.0,0.0,0.0,0.0,0.0,0.0,0.0,0.0,0.0,0.0,0.0,0.0,0.0,0.0,0.0,0.0,0.0,0.0,0.0,0.0,0.0,0.0,0.0,0.0,0.0,0.0,0.0,0.0,0.0,0.0,0.0,0.0,0.0,0.0,0.0,0.0,0.0,0.0,0.0,0.0,0.0,0.0,0.0,0.0,0.0,0.0,0.0,0.0,0.0,0.0,0.0,0.0,0.0,0.0,-0.5722,-0.5452,-0.5187,-0.5008,-0.4779,-0.4659,0.0,0.0,0.0,0.0,0.0,0.0,0.0,0.0,0.0,0.0,0.0,0.0,0.0,0.0,0.0,0.0,0.0,0.0,0.0,0.0,0.0,0.0,0.0,0.0,0.0,0.0,0.0,0.0,0.0,0.0,0.0,0.0,0.0,0.0,0.0,0.0,0.0,0.0,0.0,0.0,0.0,0.0,0.0,0.0,0.0,0.0,0.0,0.0,0.0,0.0,0.0,0.0,0.0,0.0,0.0,0.0,0.0,0.0,0.0,0.0,0.0,0.0,0.0,0.0,0.0,0.0,0.0,0.0,0.0,0.0,0.0,0.0,0.0,0.0,0.0,0.0,0.0,0.0,0.0,0.0,0.0,0.0,0.0,0.0,0.0,0.0,0.0,0.0,0.0,0.0,0.0,0.0,0.0,0.0,0.0,0.0,0.0,0.0,0.0,0.0,0.0,0.0,0.0,0.0,0.0,0.0,0.0,0.0,0.0,-0.569,-0.5498,-0.5214,-0.4887,-0.4661,-0.4562,0.0,0.0,0.0,0.0,0.0,0.0,0.0,0.0,0.0,0.0,0.0,0.0,0.0,0.0,0.0,0.0,0.0,0.0,0.0,0.0,0.0,0.0,0.0,0.0,0.0,0.0,0.0,0.0,0.0,0.0,0.0,0.0,0.0,0.0,0.0,0.0,0.0,0.0,0.0,0.0,0.0,0.0,0.0,0.0,0.0,0.0,0.0,0.0,0.0,0.0,0.0,0.0,0.0,0.0,0.0,0.0,0.0,0.0,0.0,0.0,0.0,0.0,0.0,0.0,0.0,0.0,0.0,0.0,0.0,0.0,0.0,0.0,0.0,0.0,0.0,0.0,0.0,0.0,0.0,0.0,0.0,0.0,0.0,0.0,0.0,0.0,0.0,0.0,0.0,0.0,0.0,0.0,0.0,0.0,0.0,0.0,0.0,0.0,0.0,0.0,0.0,0.0,0.0,0.0,0.0,0.0,0.0,0.0,-0.6106,-0.5667,-0.5486,-0.5254,-0.4912,-0.4674,-0.4564,0.0,0.0,0.0,0.0,0.0,0.0,0.0,0.0,0.0,0.0,0.0,0.0,0.0,0.0,0.0,0.0,0.0,0.0,0.0,0.0,0.0,0.0,0.0,0.0,0.0,0.0,0.0,0.0,0.0,0.0,0.0,0.0,0.0,0.0,0.0,0.0,0.0,0.0,0.0,0.0,0.0,0.0,0.0,0.0,0.0,0.0,0.0,0.0,0.0,0.0,0.0,0.0,0.0,0.0,0.0,0.0,0.0,0.0,0.0,0.0,0.0,0.0,0.0,0.0,0.0,0.0,0.0,0.0,0.0,0.0,0.0,0.0,0.0,0.0,0.0,0.0,0.0,0.0,0.0,0.0,0.0,0.0,0.0,0.0,0.0,0.0,0.0,0.0,0.0,0.0,0.0,0.0,0.0,0.0,0.0,0.0,0.0,0.0,0.0,0.0,0.0,0.0,0.0,0.0,0.0,0.0,0.0,0.0,-0.591,-0.5628,-0.5481,-0.5294,-0.5148,-0.4783,-0.4628,0.0,0.0,0.0,0.0,0.0,0.0,0.0,0.0,0.0,0.0,0.0,0.0,0.0,0.0,0.0,0.0,0.0,0.0,0.0,0.0,0.0,0.0,0.0,0.0,0.0,0.0,0.0,0.0,0.0,0.0,0.0,0.0,0.0,0.0,0.0,0.0,0.0,0.0,0.0,0.0,0.0,0.0,0.0,0.0,0.0,0.0,0.0,0.0,0.0,0.0,0.0,0.0,0.0,0.0,0.0,0.0,0.0,0.0,0.0,0.0,0.0,0.0,0.0,0.0,0.0,0.0,0.0,0.0,0.0,0.0,0.0,0.0,0.0,0.0,0.0,0.0,0.0,0.0,0.0,0.0,0.0,0.0,0.0,0.0,0.0,0.0,0.0,0.0,0.0,0.0,0.0,0.0,0.0,0.0,0.0,0.0,0.0,0.0,0.0,0.0,0.0,0.0,0.0,0.0,0.0,0.0,0.0,0.0,-0.6039,-0.5773,-0.5526,-0.5345,-0.5311,-0.5001,-0.4727,0.0,0.0,0.0,0.0,0.0,0.0,0.0,0.0,0.0,0.0,0.0,0.0,0.0,0.0,0.0,0.0,0.0,0.0,0.0,0.0,0.0,0.0,0.0,0.0,0.0,0.0,0.0,0.0,0.0,0.0,0.0,0.0,0.0,0.0,0.0,0.0,0.0,0.0,0.0,0.0,0.0,0.0,0.0,0.0,0.0,0.0,0.0,0.0,-0.9466,0.0,0.0,0.0,0.0,0.0,0.0,0.0,0.0,0.0,0.0,0.0,0.0,0.0,0.0,0.0,0.0,0.0,0.0,0.0,0.0,0.0,0.0,0.0,0.0,0.0,0.0,0.0,0.0,0.0,0.0,0.0,0.0,0.0,0.0,0.0,0.0,0.0,0.0,0.0,0.0,0.0,0.0,0.0,0.0,0.0,0.0,0.0,0.0,0.0,0.0,0.0,0.0,0.0,0.0,0.0,0.0,0.0,0.0,0.0,-0.6014,-0.5686,-0.5564,-0.5471,-0.5457,-0.5164,-0.488,0.0,0.0,0.0,0.0,0.0,0.0,0.0,0.0,0.0,0.0,0.0,0.0,0.0,0.0,0.0,0.0,0.0,0.0,0.0,0.0,0.0,0.0,0.0,0.0,0.0,0.0,0.0,0.0,0.0,0.0,0.0,0.0,0.0,0.0,0.0,0.0,0.0,0.0,0.0,0.0,0.0,0.0,0.0,0.0,0.0,0.0,0.0,0.0,0.0,0.0,0.0,0.0,0.0,0.0,0.0,0.0,0.0,0.0,0.0,0.0,0.0,0.0,0.0,0.0,0.0,0.0,0.0,0.0,0.0,0.0,0.0,0.0,0.0,0.0,0.0,0.0,0.0,0.0,0.0,0.0,0.0,0.0,0.0,0.0,0.0,0.0,0.0,0.0,0.0,0.0,0.0,0.0,0.0,0.0,0.0,0.0,0.0,0.0,0.0,0.0,0.0,0.0,0.0,0.0,0.0,0.0,0.0,-0.6168,-0.6032,-0.5631,-0.5628,-0.5623,-0.5616,-0.5325,-0.4965,-0.4608,0.0,0.0,0.0,0.0,0.0,0.0,0.0,0.0,0.0,0.0,0.0,0.0,0.0,0.0,0.0,0.0,0.0,0.0,0.0,0.0,0.0,0.0,0.0,0.0,0.0,0.0,0.0,0.0,0.0,0.0,0.0,0.0,0.0,0.0,0.0,0.0,0.0,0.0,-1.2703,-1.2842,0.0,0.0,0.0,0.0,0.0,0.0,0.0,0.0,-0.2773,0.0,0.0,0.0,0.0,0.0,0.0,0.0,0.0,0.0,0.0,0.0,0.0,0.0,0.0,0.0,0.0,0.0,0.0,0.0,0.0,0.0,0.0,0.0,0.0,0.0,0.0,0.0,0.0,0.0,0.0,0.0,0.0,0.0,0.0,0.0,0.0,0.0,0.0,0.0,0.0,0.0,0.0,0.0,0.0,0.0,0.0,0.0,0.0,0.0,0.0,0.0,0.0,0.0,0.0,0.0,0.0,-0.6375,-0.6176,-0.5996,-0.5796,-0.5752,-0.5766,-0.5759,-0.5481,-0.5176,-0.485,0.0,0.0,0.0,0.0,0.0,0.0,0.0,0.0,0.0,0.0,0.0,0.0,0.0,0.0,0.0,0.0,0.0,0.0,0.0,0.0,0.0,0.0,0.0,0.0,0.0,0.0,0.0,0.0,0.0,0.0,0.0,0.0,0.0,0.0,0.0,0.0,0.0,0.0,0.0,-1.2563,-1.2645,0.0,0.0,0.0,0.0,0.0,0.0,0.0,0.0,0.4348,0.0,0.0,0.0,0.0,0.0,0.0,0.0,0.0,0.0,0.0,0.0,0.0,0.0,0.0,0.0,0.0,0.0,0.0,0.0,0.0,0.0,0.0,0.0,0.0,0.0,0.0,0.0,0.0,0.0,0.0,0.0,0.0,0.0,0.0,0.0,0.0,0.0,0.0,0.0,0.0,0.0,0.0,0.0,0.0,0.0,0.0,0.0,0.0,0.0,0.0,0.0,0.0,0.0,0.0,0.0,-0.6432,-0.6179,-0.5971,-0.5908,-0.5918,-0.5881,-0.58,-0.5515,-0.522,0.0,0.0,0.0,0.0,0.0,0.0,0.0,0.0,0.0,0.0,0.0,0.0,0.0,0.0,0.0,0.0,0.0,0.0,0.0,0.0,0.0,0.0,0.0,0.0,0.0,0.0,0.0,0.0,0.0,0.0,0.0,0.0,0.0,0.0,0.0,0.0,0.0,0.0,0.0,0.0,-1.2277,-1.2298,-1.191,0.0,0.0,0.0,0.0,0.0,0.0,0.0148,0.5511,0.0,0.0,0.0,0.0,0.0,0.0,0.0,0.0,0.0,0.0,0.0,0.0,0.0,0.0,0.0,0.0,0.0,0.0,0.0,0.0,0.0,0.0,0.0,0.0,0.0,0.0,0.0,0.0,0.0,0.0,0.0,0.0,0.0,0.0,0.0,0.0,0.0,0.0,0.0,0.0,0.0,0.0,0.0,0.0,0.0,0.0,0.0,0.0,0.0,0.0,0.0,0.0,0.0,0.0,0.0,-0.6442,-0.6329,-0.6182,-0.6017,-0.6061,-0.5989,-0.5803,-0.5515,-0.5223,0.0,0.0,0.0,0.0,0.0,0.0,0.0,0.0,0.0,0.0,0.0,0.0,0.0,0.0,0.0,0.0,0.0,0.0,0.0,0.0,0.0,0.0,0.0,0.0,0.0,0.0,0.0,0.0,0.0,0.0,0.0,0.0,0.0,0.0,0.0,0.0,0.0,0.0,0.0,0.0,0.0,-1.1974,-1.1423,-1.1386,0.0,0.0,0.0,0.0,-0.3438,0.1692,0.0,0.0,0.0,0.0,0.0,0.0,0.0,0.0,0.0,0.0,0.0,0.0,0.0,0.0,0.0,0.0,0.0,0.0,0.0,0.0,0.0,0.0,0.0,0.0,0.0,0.0,0.0,0.0,0.0,0.0,0.0,0.0,0.0,0.0,0.0,0.0,0.0,0.0,0.0,0.0,0.0,0.0,0.0,0.0,0.0,0.0,0.0,0.0,0.0,0.0,0.0,0.0,0.0,0.0,0.0,0.0,-0.6459,-0.698,-0.6857,-0.6023,-0.6166,-0.6095,-0.5806,-0.5515,-0.5223,0.0,0.0,0.0,0.0,0.0,0.0,0.0,0.0,0.0,0.0,0.0,0.0,0.0,0.0,0.0,0.0,0.0,0.0,0.0,0.0,0.0,0.0,0.0,0.0,0.0,0.0,0.0,0.0,0.0,0.0,0.0,0.0,0.0,0.0,0.0,0.0,0.0,0.0,0.0,0.0,0.0,-1.168,-1.0676,-1.0204,-0.9645,0.0,0.0,0.0,-0.1672,0.3341,0.0,0.0,0.0,0.0,0.0,0.0,0.0,0.0,0.0,0.0,0.0,0.0,0.0,0.0,0.0,0.0,0.0,0.0,0.0,0.0,0.0,0.0,0.0,0.0,0.0,0.0,0.0,0.0,0.0,0.0,0.0,0.0,0.0,0.0,0.0,0.0,0.0,0.0,0.0,0.0,0.0,0.0,0.0,0.0,0.0,0.0,0.0,0.0,0.0,0.0,0.0,0.0,0.0,0.0,0.0,-0.6926,-0.6634,-0.6561,-0.635,-0.6225,-0.6227,-0.6115,-0.581,-0.5599,-0.5311,0.0,0.0,0.0,0.0,0.0,0.0,0.0,0.0,0.0,0.0,0.0,0.0,0.0,0.0,0.0,0.0,0.0,0.0,0.0,0.0,0.0,0.0,0.0,0.0,0.0,0.0,0.0,0.0,0.0,0.0,0.0,0.0,0.0,0.0,0.0,0.0,0.0,0.0,0.0,0.0,0.0,0.0,-1.0372,-0.9333,0.0,0.0,0.0,-0.2703,0.0278,0.0,0.0,0.0,0.0,0.0,0.0,0.0,0.0,0.0,0.0,0.0,0.0,0.0,0.0,0.0,0.0,0.0,0.0,0.0,0.0,0.0,0.0,0.0,0.0,0.0,0.0,0.0,0.0,0.0,0.0,0.0,0.0,0.0,0.0,0.0,0.0,0.0,0.0,0.0,0.0,0.0,0.0,0.0,0.0,0.0,0.0,0.0,0.0,0.0,0.0,0.0,0.0,0.0,0.0,0.0,0.0,0.0,-0.674,-0.6328,-0.6205,-0.6325,-0.6261,-0.6115,-0.581,-0.5664,0.0,0.0,0.0,0.0,0.0,0.0,0.0,0.0,0.0,0.0,0.0,0.0,0.0,0.0,0.0,0.0,0.0,0.0,0.0,0.0,0.0,0.0,0.0,0.0,0.0,0.0,0.0,0.0,0.0,0.0,0.0,0.0,0.0,0.0,0.0,0.0,0.0,0.0,0.0,0.0,0.0,0.0,-1.0694,-0.979,-0.841,-0.7186,0.0,0.0,-0.1667,0.1883,0.4615,0.7832,0.0,0.0,0.0,0.0,0.0,0.0,0.0,0.0,0.0,0.0,0.0,0.0,0.0,0.0,0.0,0.0,0.0,0.0,0.0,0.0,0.0,0.0,0.0,0.0,0.0,0.0,0.0,0.0,0.0,0.0,0.0,0.0,0.0,0.0,0.0,0.0,0.0,0.0,0.0,0.0,0.0,0.0,0.0,0.0,0.0,0.0,0.0,0.0,0.0,0.0,0.0,0.0,0.0,0.0,0.0,-0.6543,-0.7009,-0.6903,-0.6328,-0.6261,-0.6115,-0.581,-0.5667,-0.5382,0.0,0.0,0.0,0.0,0.0,0.0,0.0,0.0,0.0,0.0,0.0,0.0,0.0,0.0,0.0,0.0,0.0,0.0,0.0,0.0,0.0,0.0,0.0,0.0,0.0,0.0,0.0,0.0,0.0,0.0,0.0,0.0,0.0,0.0,0.0,0.0,0.0,0.0,0.0,0.0,0.0,-0.9613,-0.8573,-0.7307,-0.6013,0.0,0.0,-0.1347,0.2787,0.4918,0.7469,1.136,0.0,0.0,0.0,0.0,0.0,0.0,0.0,0.0,0.0,0.0,0.0,0.0,0.0,0.0,0.0,0.0,0.0,0.0,0.0,0.0,0.0,0.0,0.0,0.0,0.0,0.0,0.0,0.0,0.0,0.0,0.0,0.0,0.0,0.0,0.0,0.0,0.0,0.0,0.0,0.0,0.0,0.0,0.0,0.0,0.0,0.0,0.0,0.0,0.0,0.0,0.0,0.0,0.0,-0.6743,-0.6569,-0.6503,-0.64,-0.6328,-0.6261,-0.6159,-0.5945,-0.5888,-0.565,0.0,0.0,0.0,0.0,0.0,0.0,0.0,0.0,0.0,0.0,0.0,0.0,0.0,0.0,0.0,0.0,0.0,0.0,0.0,0.0,0.0,0.0,0.0,0.0,0.0,0.0,0.0,0.0,-1.0132,-1.0031,-1.03,0.0,0.0,0.0,0.0,0.0,0.0,0.0,0.0,0.0,0.0,-0.9288,-0.8061,-0.7056,0.0,0.0,-0.3339,-0.1261,0.2516,0.4449,0.6662,1.0264,1.2271,0.0,0.0,0.0,0.0,0.0,0.0,0.0,0.0,0.0,0.0,0.0,0.0,0.0,0.0,0.0,0.0,0.0,0.0,0.0,0.0,0.0,0.0,0.0,0.0,0.0,0.0,0.0,0.0,0.0,0.0,0.0,0.0,0.0,0.0,0.0,0.0,0.0,0.0,0.0,0.0,0.0,0.0,0.0,0.0,0.0,0.0,0.0,0.0,0.0,0.0,0.0,0.0,-0.6517,-0.66,-0.6289,-0.6193,-0.6257,-0.6261,-0.6186,-0.604,-0.603,-0.584,0.0,0.0,0.0,0.0,0.0,0.0,0.0,0.0,0.0,0.0,0.0,0.0,0.0,0.0,0.0,0.0,0.0,0.0,0.0,0.0,0.0,0.0,0.0,0.0,0.0,0.0,0.0,0.0,-0.9839,-0.9664,-0.973,0.0,0.0,0.0,0.0,0.0,0.0,0.0,0.0,0.0,0.0,-0.8752,-0.7752,-0.6652,-0.5375,-0.4068,-0.2974,-0.1036,0.2352,0.3783,0.5692,0.8966,0.0,0.0,0.0,0.0,0.0,0.0,0.0,0.0,0.0,0.0,0.0,0.0,0.0,0.0,0.0,0.0,0.0,0.0,0.0,0.0,0.0,0.0,0.0,0.0,0.0,0.0,0.0,0.0,0.0,0.0,0.0,0.0,0.0,0.0,0.0,0.0,0.0,0.0,0.0,0.0,0.0,0.0,0.0,0.0,0.0,0.0,0.0,0.0,0.0,0.0,0.0,0.0,0.0,0.0,-0.6622,-0.6546,-0.6396,-0.6268,-0.6261,-0.6193,-0.604,-0.6034,-0.5891,-0.5589,0.0,0.0,0.0,0.0,0.0,0.0,0.0,0.0,0.0,0.0,0.0,0.0,0.0,0.0,0.0,0.0,0.0,0.0,0.0,0.0,0.0,0.0,0.0,0.0,0.0,0.0,-0.947,-0.9547,-0.9316,0.0,0.0,0.0,0.0,0.0,0.0,0.0,0.0,0.0,0.0,-0.9033,-0.7812,-0.7521,-0.5876,-0.4268,-0.3143,-0.2216,-0.0598,0.2248,0.3187,0.4519,0.0,0.0,0.0,0.0,0.0,0.0,0.0,0.0,0.0,0.0,0.0,0.0,0.0,0.0,0.0,0.0,0.0,0.0,0.0,0.0,0.0,0.0,0.0,0.0,0.0,0.0,0.0,0.0,-0.5171,0.0,0.0,0.0,0.0,0.0,0.0,0.0,0.0,0.0,0.0,0.0,-0.6873,-0.6989,0.0,0.0,0.0,0.0,0.0,0.0,0.0,0.0,0.0,0.0,0.0,0.0,-0.6619,-0.6565,-0.6635,-0.6552,-0.6407,-0.6403,-0.6332,-0.6186,-0.6183,-0.5996,-0.5599,0.0,0.0,0.0,0.0,0.0,0.0,0.0,0.0,0.0,0.0,0.0,0.0,0.0,0.0,0.0,0.0,0.0,0.0,0.0,0.0,0.0,0.0,0.0,0.0,0.0,-0.8739,0.0,0.0,0.0,0.0,0.0,0.0,0.0,0.0,0.0,0.0,0.0,-0.9653,-0.8938,-0.8165,-0.729,-0.6394,-0.5508,-0.4378,0.0,0.0,0.0,0.0,0.0,0.0,0.0,0.0,0.0,0.0,0.0,0.0,0.0,0.0,1.3046,1.4306,1.3718,1.3018,1.3023,0.0,0.0,0.0,0.0,0.0,0.0,0.0,0.0,0.0,0.0,0.0,0.0,0.0,0.0,0.0,0.0,-0.5723,0.0,0.0,0.0,0.0,0.0,0.0,0.0,0.0,-0.6648,-0.6795,-0.6876,-0.6984,-0.6954,0.0,-0.6907,-0.6853,0.0,0.0,0.0,0.0,0.0,0.0,0.0,0.0,-0.6692,-0.6574,-0.6709,-0.6709,-0.6559,-0.6549,-0.6481,-0.6342,-0.6288,-0.6197,-0.5833,-0.5623,-0.5284,0.0,0.0,0.0,0.0,0.0,0.0,0.0,0.0,0.0,0.0,0.0,0.0,0.0,0.0,0.0,0.0,0.0,0.0,0.0,0.0,0.0,0.0,0.0,-0.8184,0.0,0.0,0.0,0.0,0.0,0.0,0.0,0.0,0.0,-1.0049,-0.9738,-0.9207,-0.8687,-0.7903,-0.7045,-0.6229,0.0,0.0,0.0,0.0,0.0,0.0,0.0,0.2213,0.3213,0.3813,0.4285,0.4915,0.6161,0.7189,0.7446,0.0,0.0,1.0685,1.0406,0.9776,0.9785,0.9802,0.983,0.9893,0.9972,1.0096,0.0,0.0,0.0,0.0,0.0,0.0,0.0,0.0,-0.5559,-0.5708,0.0,-0.5992,0.0,0.0,0.0,0.0,0.0,0.0,0.0,0.0,-0.6728,-0.6785,-0.7026,-0.695,-0.6876,-0.6739,-0.6885,-0.6876,-0.663,-0.6375,0.0,0.0,0.0,0.0,0.0,0.0,-0.6725,-0.6827,-0.687,-0.6861,-0.6715,-0.6709,-0.6634,-0.6481,-0.6349,-0.6271,-0.6247,-0.5966,-0.5677,-0.5442,-0.4948,0.0,0.0,0.0,0.0,0.0,0.0,0.0,0.0,0.0,0.0,0.0,0.0,0.0,0.0,0.0,0.0,0.0,0.0,0.0,0.0,-0.7056,0.0,0.0,0.0,0.0,0.0,0.0,0.0,0.0,0.0,0.0,-0.9642,-0.9437,-0.9332,-0.9605,0.0,0.0,0.0,0.0,-0.4481,-0.3702,-0.2769,-0.1618,-0.0368,0.051,0.1236,0.1962,0.0,0.0,0.2386,0.3815,0.4771,0.4648,0.3732,0.4041,0.7998,0.8562,0.8562,0.8568,0.8429,0.8756,0.8918,0.8571,0.8923,-0.5976,0.0,0.0,0.0,0.0,-0.5579,-0.584,-0.6312,-0.6247,-0.6366,-0.66,-0.6491,0.0,0.0,0.0,0.0,0.0,0.0,-0.6628,-0.6746,-0.6773,-0.6865,-0.6949,-0.7049,-0.7025,-0.6888,-0.6881,-0.6864,-0.6669,-0.6613,-0.65,-0.6384,0.0,0.0,0.0,0.0,-0.6746,-0.6884,-0.6983,-0.701,-0.6868,-0.6865,-0.679,-0.6641,-0.6597,-0.6474,-0.6271,-0.6176,-0.5942,-0.5545,-0.5301,0.0,0.0,0.0,0.0,0.0,0.0,0.0,0.0,0.0,0.0,0.0,0.0,0.0,0.0,0.0,0.0,0.0,0.0,0.0,-0.682,-0.7019,-0.7099,0.0,0.0,0.0,0.0,0.0,0.0,0.0,0.0,0.0,-0.8465,-0.8498,-0.8392,0.0,0.0,-0.685,-0.6499,-0.574,-0.5005,-0.4111,0.0,0.0,0.0,-0.0074,0.0729,0.1092,0.0888,0.0749,0.1046,0.1285,0.1441,0.0,0.1112,0.124,0.2266,0.2591,0.0,0.2625,0.2625,0.2576,0.2684,0.2691,0.2878,-0.6554,-0.5759,-0.5954,-0.6071,-0.6123,-0.5631,-0.5677,-0.6098,-0.5933,-0.5739,-0.5534,-0.5887,-0.5696,-0.5159,-0.5657,0.0,0.0,0.0,-0.6702,-0.6797,-0.6943,-0.7014,-0.7017,-0.7014,-0.7095,-0.7017,-0.6927,-0.6932,-0.679,-0.679,-0.6661,-0.6474,0.0,0.0,-0.6586,-0.6746,-0.6833,-0.6926,-0.7068,-0.7099,-0.7017,-0.6956,-0.6912,-0.6875,-0.6763,-0.6617,-0.6441,-0.6376,-0.6166,-0.5779,-0.5562,-0.5301,0.0,0.0,0.0,0.0,0.0,0.0,0.0,0.0,0.0,0.0,0.0,-0.5457,0.0,0.0,0.0,0.0,-0.5954,-0.613,-0.6307,-0.645,0.0,0.0,0.0,0.0,0.0,0.0,0.0,-0.7366,-0.7428,-0.7517,-0.7655,-0.7741,-0.7698,-0.7564,-0.7154,-0.6656,-0.6209,0.0,-0.5337,-0.4717,-0.3927,-0.3031,-0.1888,-0.148,-0.1003,-0.0309,0.0078,0.0312,0.0312,0.0157,0.0,0.0,0.0,0.0,0.0,0.0,0.0,0.0,0.0,0.0,0.0,0.094,0.1514,-0.6861,-0.5772,-0.6236,-0.6347,-0.6209,-0.5175,-0.4855,-0.494,-0.5026,-0.4333,-0.3384,-0.4508,-0.4287,-0.3199,-0.4378,0.0,0.0,-0.6796,-0.6946,-0.6949,-0.7082,-0.7139,-0.7139,-0.7139,-0.7139,-0.7139,-0.7139,-0.7075,-0.6949,-0.6946,-0.6875,-0.6739,-0.6736,-0.6729,-0.6725,-0.6858,-0.6936,-0.6946,-0.7075,-0.7139,-0.7139,-0.7014,-0.701,-0.7041,-0.6878,-0.6725,-0.6698,-0.6566,-0.6352,-0.6057,-0.5776,-0.5552,-0.5376,0.0,0.0,0.0,0.0,0.0,0.0,0.0,0.0,0.0,0.0,0.0,0.0,0.0,0.0,0.0,-0.5623,0.0,-0.5415,-0.5557,0.0,0.0,0.0,-0.6252,-0.635,-0.6514,-0.672,-0.6924,0.0,0.0,0.0,0.0,-0.7183,-0.7503,-0.6989,-0.655,-0.6338,-0.6019,-0.5701,-0.5413,-0.5071,-0.4365,-0.299,-0.308,-0.2827,-0.1579,-0.0743,0.0,0.0,0.0,0.0,0.0,0.0,0.0,0.0,0.0,0.0,0.0,0.0,0.0,0.0,0.1888,0.2817,-0.7389,-0.7153,-0.7262,-0.6088,-0.4276,-0.4035,-0.3967,-0.3984,-0.3986,-0.3809,-0.3544,-0.3809,-0.3798,-0.3517,-0.4752,-0.5457,-0.572,-0.663,-0.7088,-0.7004,-0.7122,-0.7139,-0.7139,-0.7139,-0.7139,-0.7139,-0.7139,-0.7122,-0.7004,-0.7088,-0.7071,-0.7034,-0.7034,-0.698,-0.6881,-0.6912,-0.6897,-0.7088,-0.7126,-0.7139,-0.7139,-0.7105,-0.7105,-0.7139,-0.7071,-0.6929,-0.6709,-0.6664,-0.6512,-0.622,-0.6027,-0.5806,-0.5549,-0.5291,0.0,0.0,0.0,0.0,0.0,0.0,0.0,0.0,0.0,-0.5057,-0.5201,0.0,-0.5381,0.0,-0.5474,-0.5515,-0.555,-0.5585,0.0,0.0,-0.6242,-0.6372,-0.6344,-0.6539,-0.6654,-0.6447,-0.6391,-0.638,-0.6467,-0.6482,-0.6578,-0.6736,-0.6754,-0.6677,-0.6453,-0.6445,-0.6455,-0.6339,-0.5632,-0.4914,-0.4437,-0.3181,-0.1932,-0.0673,-0.0168,0.0,0.0,0.0,0.0,0.0,0.0,0.0,0.0,0.0,0.0,0.0,0.0,0.0,0.0,0.0615,0.092,-0.664,-0.5963,-0.5384,-0.3871,-0.2113,-0.3212,-0.3305,-0.2846,-0.2819,-0.2537,-0.1993,-0.1976,-0.2325,-0.286,-0.4107,-0.491,-0.5447,-0.6605,-0.7139,-0.7139,-0.7139,-0.7139,-0.7139,-0.7139,-0.7139,-0.7139,-0.7139,-0.7139,-0.7139,-0.7139,-0.7139,-0.7139,-0.7139,-0.7102,-0.7024,-0.7021,-0.7061,-0.7139,-0.7139,-0.7139,-0.7139,-0.7139,-0.7109,-0.7048,-0.7044,-0.6905,-0.661,-0.6597,-0.6495,-0.6274,-0.6112,-0.5956,-0.5793,-0.5515,-0.5291,0.0,0.0,0.0,0.0,0.0,0.0,0.0,0.0,0.0,0.0,0.0,-0.5265,0.0,0.0,0.0,-0.5592,-0.5651,-0.5758,-0.5975,-0.6121,-0.6202,-0.6197,-0.6364,-0.6449,-0.6293,-0.6233,-0.6289,-0.6357,-0.6374,-0.6464,-0.6542,-0.6725,-0.6774,-0.6638,-0.6685,-0.6725,-0.679,-0.6288,-0.5884,-0.6017,-0.4048,-0.2588,-0.2416,-0.1972,-0.162,-0.162,-0.1183,-0.084,-0.0757,-0.0336,0.0,0.0,0.0,0.0,0.0,0.0,0.0,0.0,0.1037,0.1891,-0.5185,-0.3954,-0.2767,-0.1469,-0.0385,-0.2594,-0.2776,-0.1521,-0.1588,-0.102,0.0,0.0,-0.0543,-0.1624,-0.2792,-0.3954,-0.5022,-0.6272,-0.689,-0.6871,-0.7051,-0.7139,-0.7139,-0.7139,-0.7139,-0.7139,-0.7139,-0.7139,-0.7139,-0.7139,-0.7139,-0.7139,-0.7139,-0.7139,-0.7139,-0.7139,-0.7139,-0.7139,-0.7139,-0.7139,-0.7139,-0.7139,-0.7071,-0.6939,-0.6929,-0.6787,-0.6488,-0.6474,-0.6403,-0.6268,-0.6129,-0.6051,-0.602,-0.5657,-0.5437,0.0,-0.5176,0.0,0.0,0.0,0.0,0.0,0.0,0.0,0.0,-0.5274,-0.522,-0.5216,-0.546,-0.5547,-0.5408,-0.5657,-0.5666,-0.546,-0.5761,-0.5964,-0.5884,-0.6136,-0.6266,-0.6321,-0.6278,-0.6339,-0.6441,-0.6485,-0.6556,-0.6709,-0.682,-0.6851,-0.6783,-0.6766,-0.6824,-0.6943,-0.6956,-0.673,-0.6555,-0.5073,-0.4096,-0.4805,-0.4045,-0.3653,-0.3478,-0.2658,-0.1947,-0.1694,-0.0935,0.0,0.0,0.0,0.0,0.0,0.0,0.0,0.0,0.1718,0.3603,-0.4308,-0.3972,-0.3761,-0.2897,-0.1631,-0.2139,-0.159,-0.0381,-0.038,-0.019,0.0,0.0,-0.0094,-0.0471,-0.16,-0.2238,-0.2568,-0.4762,-0.5719,-0.5802,-0.6694,-0.7139,-0.7139,-0.7139,-0.7139,-0.7139,-0.7139,-0.7139,-0.7139,-0.7139,-0.7139,-0.7139,-0.7139,-0.7139,0.0,0.0,0.0,0.0,-0.7139,-0.7139,-0.7139,-0.7139,-0.7071,-0.6936,-0.6929,0.0,-0.6495,-0.6474,-0.6407,-0.6271,-0.6234,0.0,0.0,0.0,0.0,0.0,0.0,0.0,0.0,0.0,0.0,0.0,-0.5677,-0.5696,-0.559,-0.561,-0.5674,-0.5674,-0.5728,-0.5402,-0.4539,-0.5278,-0.5119,-0.3732,-0.4864,-0.5588,-0.5104,-0.5748,-0.6307,-0.6254,-0.6363,-0.6441,-0.6485,-0.658,-0.6712,-0.6858,-0.6909,-0.6963,-0.7041,-0.7041,-0.6977,-0.7095,-0.7088,-0.675,-0.5888,-0.5356,-0.4732,-0.4192,-0.3831,-0.3638,-0.3634,-0.3449,-0.2823,-0.2029,-0.1593,-0.1062,0.0,0.0,0.0,0.0,0.0,0.0,0.0,0.0418,0.1322,-0.3103,0.0,-0.2337,-0.1587,0.0,-0.1051,-0.0621,0.0,0.0,0.0,0.0,0.0,0.0,0.0,-0.1238,-0.1799,-0.1874,-0.3648,-0.4833,-0.5522,-0.607,-0.6718,-0.7363,-0.7288,-0.7255,-0.7251,-0.7177,-0.7139,-0.7139,-0.7139,-0.7139,-0.7139,-0.7139,-0.7139,-0.7139,-0.7139,-0.7139,-0.7139,-0.7139,-0.7139,-0.7139,-0.7139,-0.6987,-0.6939,0.0,0.0,0.0,0.0,0.0,0.0,0.0,0.0,0.0,0.0,0.0,-0.6027,-0.5956,-0.5915,-0.5918,-0.5983,-0.5996,-0.5922,-0.5986,-0.5932,-0.5711,-0.5759,-0.58,-0.5803,-0.5867,-0.5469,-0.4509,-0.493,-0.4613,-0.3293,-0.4222,-0.4724,-0.4115,-0.4693,-0.536,-0.5583,-0.5641,-0.5949,-0.6602,-0.6759,-0.6871,-0.7007,-0.7034,-0.7058,-0.7122,-0.7139,-0.7139,-0.7139,-0.7139,-0.6962,-0.6337,-0.5714,-0.5447,-0.5262,-0.4907,-0.4552,-0.4463,-0.4016,-0.3215,-0.2058,-0.1344,-0.0628,0.0,0.0,0.0,0.0,0.0,0.0,0.0,0.0431,0.1699,-0.174,-0.1503,-0.043,0.0,0.0,0.0,0.0,0.0,0.0,0.0,0.0,0.0,0.0,0.0,-0.1058,-0.144,-0.1531,-0.277,-0.3905,-0.4931,-0.5402,-0.6164,-0.7211,-0.7095,-0.7224,-0.7404,-0.7008,-0.6936,-0.718,-0.718,-0.7166,-0.7143,-0.7139,-0.7139,-0.7139,-0.7139,-0.7139,-0.7139,-0.7139,-0.7139,-0.7139,-0.7139,-0.7071,-0.6932,-0.6929,-0.6858,-0.6705,-0.658,-0.6512,-0.6508,-0.6403,-0.6339,-0.6335,-0.622,-0.6203,-0.6318,-0.6217,-0.6149,-0.6152,-0.6268,-0.6271,-0.6118,-0.6227,-0.6179,-0.5901,-0.5881,-0.5884,-0.5884,-0.5996,-0.5538,-0.4395,-0.455,-0.4146,-0.275,-0.3461,-0.3732,-0.3,-0.3175,-0.3689,-0.4426,-0.462,-0.5091,-0.6291,-0.6509,-0.6747,-0.7021,-0.7129,-0.6962,-0.6874,-0.6694,-0.6694,-0.6694,-0.6425,-0.6425,-0.6605,-0.5714,-0.5625,-0.6337,-0.5714,-0.509,-0.4912,-0.4283,-0.3213,-0.2057,-0.0987,-0.0359,0.0,0.0,0.0,0.0,0.018,0.0449,0.0717,0.159,0.3211,0.0,-0.0223,-0.0111,0.0,0.0,0.0,0.0,0.0,0.0,0.0,0.0,0.0,0.0,0.0,-0.02,-0.0298,-0.0293,-0.1464,-0.2126,0.0,-0.4553,-0.5685,-0.5876,-0.586,-0.6423,-0.7376,-0.6403,-0.634,-0.7259,-0.7336,-0.7275,-0.7156,-0.7139,-0.7139,-0.7139,-0.7139,-0.7139,-0.7139,-0.7139,-0.7139,-0.7139,-0.7139,-0.7075,-0.6939,-0.6932,-0.6858,-0.6705,-0.6681,-0.6668,-0.6668,-0.6647,-0.6641,-0.6637,-0.6607,-0.6617,-0.6637,-0.6617,-0.6607,-0.6603,-0.6627,-0.6573,-0.643,-0.643,-0.6369,-0.6213,-0.6196,-0.6196,-0.6196,-0.621,-0.5443,-0.3653,-0.4055,-0.3474,-0.1046,-0.2178,-0.2846,-0.1912,-0.1166,-0.1501,-0.3107,-0.3495,-0.405,-0.5112,-0.5537,-0.6039,-0.6776,-0.6694,-0.6694,-0.5983,-0.5628,-0.5625,-0.5447,-0.473,-0.4639,-0.5267,-0.4641,-0.4461,-0.5445,-0.4641,-0.3838,-0.3838,-0.3659,-0.3038,-0.1968,-0.1433,-0.0987,0.0,0.0,0.0,0.009,0.0807,0.17,0.2592,0.3826,0.4851,0.0,0.0,0.0,0.0,0.0,0.0,0.0,0.0,0.0,0.0,0.0,0.0,0.0,0.0,0.0,0.0,0.0,-0.0598,-0.1189,-0.1963,-0.3134,-0.4013,-0.4689,-0.4647,-0.4916,-0.5492,-0.486,-0.519,-0.6368,-0.6456,-0.667,-0.7178,-0.7183,-0.7139,-0.7139,-0.7139,-0.7139,-0.7139,-0.7139,-0.7139,-0.7139,-0.7139,-0.7109,-0.6957,-0.7041,-0.7014,-0.6943,-0.6865,-0.6824,-0.6824,-0.6742,-0.6702,-0.6702,-0.6702,-0.6736,-0.6817,-0.6824,-0.6824,-0.6827,-0.6746,-0.6671,-0.66,-0.6597,-0.6569,-0.6505,-0.6349,-0.6025,-0.5476,-0.5454,-0.4597,-0.251,-0.272,-0.2192,-0.0244,-0.0903,-0.1251,-0.0767,-0.0342,-0.0686,-0.2081,-0.2453,-0.2995,-0.4132,-0.497,-0.5176,-0.5354,-0.5174,-0.5176,-0.5267,-0.4287,-0.3751,-0.4196,-0.3926,-0.3837,-0.4283,-0.3395,-0.3215,-0.4194,-0.3393,-0.2771,-0.2592,-0.2592,-0.2057,-0.1076,0.0,-0.0628,0.0,0.0,0.0,0.0987,0.1344,0.2236,0.3393,0.4552,0.5665,0.0,0.0,0.0,0.0,0.0,0.0,0.0,0.0,0.0,0.0,0.0,0.0,0.0,0.0,0.0,0.0,0.0,0.0,-0.0511,-0.1529,-0.1826,-0.253,-0.3429,-0.3473,-0.3541,-0.3731,-0.3486,-0.3934,-0.5061,-0.5249,-0.5751,-0.6822,-0.7072,-0.7177,-0.7139,-0.7139,-0.7139,-0.7139,-0.7139,-0.7139,-0.7139,-0.7139,-0.7139,-0.7139,-0.7139,-0.7139,-0.7136,-0.7034,-0.6976,-0.6973,-0.6865,-0.6797,-0.68,-0.68,-0.6851,-0.6963,-0.6976,-0.6976,-0.697,-0.6868,-0.6787,-0.6753,-0.6495,-0.6315,-0.6268,-0.5845,-0.5401,-0.4772,-0.4525,-0.3562,-0.2007,-0.164,-0.1168,0.0,0.0,0.0,0.0,0.0,-0.0352,-0.1251,-0.1433,-0.1878,-0.3038,-0.4018,-0.4285,-0.3837,-0.357,-0.3927,-0.4287,-0.2861,-0.2325,-0.2503,-0.2769,-0.2858,-0.3035,-0.2147,-0.2058,-0.2948,-0.2147,-0.1523,-0.1344,-0.1433,-0.1076,0.0,0.0,0.0,0.0269,0.0,0.0987,0.1969,0.2593,0.3127,0.4372,0.5265,0.6289,0.0,0.0,0.0,0.0,0.0,0.0,0.0,0.0,0.0,0.0,0.0,0.0,0.0,0.0,0.0,0.0,0.0,0.0,0.0,0.0,-0.1457,-0.2064,-0.2164,-0.2127,-0.2808,-0.3606,-0.27,-0.277,-0.3902,-0.3992,-0.4496,-0.5642,-0.68,-0.7188,-0.7071,-0.7054,-0.7054,-0.7051,-0.7139,-0.7139,-0.7139,-0.7139,-0.7139,-0.7139,-0.7139,-0.7139,-0.7139,-0.7041,-0.7119,-0.7119,-0.7102,-0.7095,-0.7095,-0.7095,-0.7102,-0.7115,-0.7115,-0.7122,-0.7115,-0.7105,-0.695,-0.684,-0.5778,-0.5217,-0.5048,-0.4093,-0.3912,-0.4331,-0.3835,-0.2749,-0.175,-0.1508,-0.1102,0.0,0.0,0.0,0.0,0.0,-0.009,-0.018,0.0,-0.0628,-0.1791,-0.2148,-0.2593,-0.357,-0.3304,-0.3037,-0.2593,-0.2058,-0.1345,0.0,0.0,-0.0897,-0.1522,-0.0986,-0.0897,-0.1701,-0.0987,0.0,0.0,0.0,0.0,0.0,0.0,0.0,0.1165,0.17,0.2057,0.3215,0.4196,0.5356,0.6422,0.6782,0.7253,0.0,0.0,0.0,0.0,0.0,0.0,0.0,0.0,0.0,0.0,0.0,0.0,0.0,0.0,0.0,0.0,0.0,0.0,0.0,0.0,-0.0635,-0.0843,-0.0841,-0.0827,-0.1127,-0.1534,-0.1115,-0.1506,-0.2684,-0.344,-0.4071,-0.4393,-0.4998,-0.5101,-0.5006,-0.4999,-0.506,-0.4996,-0.4996,-0.4994,-0.5174,-0.6425,-0.7139,-0.7139,-0.7139,-0.7139,-0.7139,-0.7139,-0.7139,-0.7139,-0.7139,-0.7139,-0.7139,-0.7139,-0.7139,-0.7139,-0.7139,-0.7139,-0.7051,-0.6517,-0.6051,-0.6002,-0.4934,-0.4212,-0.4096,-0.3048,-0.2527,-0.2872,-0.2583,-0.1788,-0.0844,0.0,-0.0437,0.0,0.0,0.0,0.0,0.0,0.0,0.0,0.0,0.0,-0.0628,-0.0718,-0.1612,-0.2858,-0.2503,-0.1523,-0.1612,-0.1255,-0.0538,0.0,0.0,0.0,0.0,-0.0359,0.0,0.0,-0.0359,0.0,0.0,0.0,0.0,0.0,0.0,0.1165,0.1612,0.2503,0.3215,0.4461,0.5531,0.6605,0.7051,0.7139,0.7278,0.0,0.0,0.0,0.0,0.0,0.0,0.0,0.0,0.0,0.0,0.0,0.0,0.0,0.0,0.0,0.0,0.0,0.0,0.0,0.0,0.0,0.0,0.0,0.0,0.0,0.0,0.0,-0.0507,-0.1509,-0.2681,-0.3244,-0.3322,-0.3567,-0.36,-0.3628,-0.3622,-0.3584,-0.3609,-0.36,-0.3592,-0.384,-0.5262,-0.6154,-0.6157,-0.6154,-0.6245,-0.6602,-0.6605,-0.6786,-0.7051,-0.7139,-0.7139,-0.7139,-0.7139,-0.6962,-0.6694,-0.6605,-0.6514,-0.6154,-0.5356,-0.491,-0.4821,-0.3749,-0.3126,-0.2858,-0.1969,-0.1344,-0.1341,-0.1236,-0.0783,0.0,0.0,0.0,0.0,0.0,0.0,0.0,0.0,0.0,0.0,0.0,0.0,0.0,0.0,-0.0718,-0.1879,-0.1165,-0.018,-0.0986,0.0,0.0,0.0,0.0,0.0,0.0,0.0,0.0,0.0,0.0,0.0,0.0,0.0,0.0,0.0,0.0,0.2504,0.3129,0.3929,0.4372,0.5534,0.6511,0.7129,0.7139,0.7291,0.7425,0.0,0.0,0.0,0.0,0.0,0.0,0.0,0.0,0.0,0.0,0.0,0.0,0.0,0.0,0.0,0.0,0.0,0.0,0.0,0.0,0.0,0.0,0.0,0.0,0.0,0.0,0.0,0.0,0.0,-0.1408,-0.1993,-0.1962,-0.2933,-0.3577,-0.3422,-0.3318,-0.3566,-0.3319,-0.3307,-0.3459,-0.3492,-0.3662,-0.3749,-0.3748,-0.3837,-0.4461,-0.5267,-0.5447,-0.5983,-0.7051,-0.7051,-0.7139,-0.7139,-0.7051,-0.6605,-0.5714,-0.5447,-0.4999,-0.4105,-0.3749,-0.3659,-0.3571,-0.2592,-0.1879,-0.179,-0.0897,0.0,0.0,0.0,0.0,0.0,0.0,0.0,0.0,0.0,0.0,0.0,0.0,0.0,0.0,0.0,0.0,0.0,0.0,0.0,0.0,0.0,0.0,0.0,0.0,0.0,0.0,0.0,0.0,0.0,0.0,0.0,0.0,0.0,0.0,0.0,0.0,0.1254,0.1879,0.268,0.3571,0.4732,0.5447,0.5802,0.6508,0.6929,0.7285,0.7432,0.7943,0.8223,0.0,0.0,0.0,0.0,0.0,0.0,0.0,0.0,0.0,0.0,0.0,0.0,0.0,0.0,0.0,0.0,0.0,0.0,0.0,0.0,0.0,0.0,0.0,0.0,0.0,0.0,0.0,0.0,0.0,-0.0508,-0.0704,-0.07,-0.1098,-0.1384,-0.1265,-0.126,-0.1248,0.0,-0.1302,-0.1287,0.0,-0.1263,-0.1344,-0.1433,-0.2771,-0.3837,-0.4196,-0.4999,-0.5625,-0.5983,-0.6694,-0.7139,-0.7051,-0.6428,-0.5894,-0.5359,-0.4643,-0.4016,-0.3571,-0.286,-0.2413,-0.2325,-0.1344,0.0,-0.0628,0.0,0.0,0.0,0.0,0.0,0.0,0.0,0.0,0.0,0.0,0.0,0.0,0.0,0.0,0.0,0.0,0.0,0.0,0.0,0.0,0.0,0.0,0.0,0.0,0.0,0.0,0.0,0.0628,0.0897,0.0,0.0,0.0,0.0,0.0,0.0,0.0,0.0897,0.1165,0.2771,0.3659,0.4283,0.5356,0.6071,0.6605,0.6861,0.7281,0.7722,0.7943,0.8565,0.8971,0.0,0.0,0.0,0.0,0.0,0.0,0.0,0.0,0.0,0.0,0.0,0.0,0.0,0.0,0.0,0.0,0.0,0.0,0.0,0.0,0.0,0.0,0.0,0.0,0.0,0.0,0.0,0.0,0.0,0.0,0.0,0.0,0.0,0.0,0.0,0.0,0.0,0.0,0.0,0.0,0.0,0.0,0.0,0.0,-0.1612,-0.2681,-0.3038,-0.3842,-0.4465,-0.4821,-0.5531,-0.5977,-0.5888,-0.5265,-0.4643,-0.4198,-0.3484,-0.2858,-0.2413,-0.17,-0.1255,-0.1165,0.0,0.0,0.0,0.0,0.0,0.0,0.0,0.0,0.0,0.0,0.0,0.0,0.0,0.0,0.0,0.0,0.0,0.0,0.0,0.0,0.0,0.0,0.0,0.0,0.0,0.0,0.0,0.0,0.027,0.0539,0.1256,0.161,0.152,0.0,0.0,0.0,0.0,0.0,0.1613,0.1434,0.197,0.3573,0.4552,0.5087,0.58,0.6602,0.6953,0.7126,0.7654,0.8158,0.8636,0.9379,0.9761,0.0,0.0,0.0,0.0,0.0,0.0,0.0,0.0,0.0,0.0,0.0,0.0,0.0,0.0,0.0,0.0,0.0,0.0,0.0,0.0,0.0,0.0,0.0,0.0,0.0,0.0,0.0,0.0,0.0,0.0,0.0,0.0,0.0,0.0,0.0,0.0,0.0,0.0,0.0,0.0,0.0,0.0,0.0,0.0,0.0,-0.0807,-0.179,-0.1969,-0.2592,-0.3481,-0.3748,-0.3659,-0.3837,-0.3659,-0.3126,-0.2236,-0.1879,-0.1255,0.0,0.0,0.0,0.0,0.0,0.0,0.0,0.0,0.0,0.0,0.0,0.0,0.0,0.0,0.0,0.0,0.0,0.0,0.0,0.0,0.0,0.0,0.0,0.0,0.0,0.0,0.0,0.0,0.0,0.0,0.0,0.0,0.0,0.1259,0.1882,0.2233,0.2941,0.0,0.0,0.0,0.0,0.2058,0.2772,0.2861,0.3662,0.5087,0.58,0.6245,0.6337,0.6959,0.7197,0.7432,0.8014,0.872,0.9374,1.0093,1.0718,0.0,0.0,0.0,0.0,0.0,0.0,0.0,0.0,0.0,0.0,0.0,0.0,0.0,0.0,0.0,0.0,0.0,0.0,0.0,0.0,0.0,0.0,0.0,0.0,0.0,0.0,0.0,0.0,0.0,0.0,0.0,0.0,0.0,0.0,0.0,0.0,0.0,0.0,0.0,0.0,0.0,0.0,0.0,0.0,0.0,-0.018,-0.0538,-0.1344,-0.1969,-0.2415,-0.3124,-0.357,-0.3482,-0.2771,-0.2236,-0.179,-0.0986,-0.0449,0.0,0.0,0.0,0.0,0.0,0.0,0.0,0.0,0.0,0.0,0.0,0.0,0.0,0.0,0.0,0.0,0.0,0.0,0.0,0.0,0.0,0.0,0.0,0.0,0.0,0.0,0.0,0.0,0.0,0.0,0.0,0.0,0.0,0.0539,0.161,0.2873,0.334,0.4158,0.4064,0.2976,0.3056,0.322,0.3751,0.4376,0.5267,0.5991,0.6704,0.7061,0.7061,0.7149,0.7312,0.7966,0.8674,0.9412,1.0093,1.0779,1.1383,0.0,0.0,0.0,0.0,0.0,0.0,0.0,0.0,0.0,0.0,0.0,0.0,0.0,0.0,0.0,0.0,0.0,0.0,0.0,0.0,0.0,0.0,0.0,0.0,0.0,0.0,0.0,0.0,0.0,0.0,0.0,0.0,0.0,0.0,0.0,0.0,0.0,0.0,0.0,0.0,0.0,0.0,0.0,0.0,0.0,0.0,0.0,-0.0808,-0.1165,-0.1254,-0.1879,-0.2236,-0.2236,-0.1523,-0.1165,-0.0986,0.0,0.0,0.0,0.0,0.0,0.0,0.0,0.0,0.0,0.0,0.0,0.0,0.0,0.0,0.0,0.0,0.0,0.0,0.0,0.0,0.0,0.0,0.0,0.0,0.0,0.0,0.0,0.0,0.0,0.0,0.0,0.0,0.0,0.0,0.0,0.0816,0.228,0.3206,0.3502,0.4508,0.5769,0.5189,0.4613,0.4667,0.4823,0.5359,0.6074,0.648,0.7125,0.7128,0.7217,0.7241,0.7406,0.8332,0.9438,1.0053,1.0713,1.1508,1.2214,0.0,0.0,0.0,0.0,0.0,0.0,0.0,0.0,0.0,0.0,0.0,0.0,0.0,0.0,0.0,0.0,0.0,0.0,0.0,0.0,0.0,0.0,0.0,0.0,0.0,0.0,0.0,0.0,0.0,0.0,0.0,0.0,0.0,0.0,0.0,0.0,0.0,0.0,0.0,0.0,0.0,0.0,0.0,0.0,0.0,0.0,0.0,0.0,0.0,0.0,0.0,0.0,0.0,0.0,0.0,0.0,0.0,0.0,0.0,0.0,0.0,0.0,0.0,0.0,0.0,0.0,0.0,0.0,0.0,0.0,0.0,0.0,0.0,0.0,0.0,0.0,0.0,0.0,0.0,0.0,0.0,0.0,0.0,0.0,0.0,0.0,0.0,0.0,0.0,0.0,0.0,0.1936,0.3359,0.4029,0.4524,0.5516,0.6614,0.6492,0.5987,0.5946,0.588,0.623,0.6573,0.7072,0.7375,0.7379,0.7392,0.7601,0.814,0.9279,1.0067,1.0726,1.1671,1.2777,1.3464,0.0,0.0,0.0,0.0,0.0,0.0,0.0,0.0,0.0,0.0,0.0,0.0,0.0,0.0,0.0,0.0,0.0,0.0,0.0,0.0,0.0,0.0,0.0,0.0,0.0,0.0,0.0,0.0,0.0,0.0,0.0,0.0,0.0,0.0,0.0,0.0,0.0,0.0,0.0,0.0,0.0,0.0,0.0,0.0,0.0,0.0,0.0,0.0,0.0,0.0,0.0,0.0,0.0,0.0,0.0,0.0,0.0,0.0,0.0,0.0,0.0,0.0,0.0,0.0,0.0,0.0,0.0,0.0,0.0,0.0,0.0,0.0,0.0,0.0,0.0,0.0,0.0,0.0,0.0,0.0,0.0,0.0,0.0,0.0,0.0,0.0,0.0926,0.1494,0.1577,0.2108,0.257,0.3311,0.4415,0.5095,0.586,0.6762,0.7389,0.7373,0.7163,0.7153,0.6987,0.7024,0.7174,0.735,0.7727,0.7825,0.7945,0.8162,0.9137,1.0243,1.1159,1.2003,1.3708,1.4911,1.52,0.0,0.0,0.0,0.0,0.0,0.0,0.0,0.0,0.0,0.0,0.0,0.0,0.0,0.0,0.0,0.0,0.0,0.0,0.0,0.0,0.0,0.0,0.0,0.0,0.0,0.0,0.0,0.0,0.0,0.0,0.0,0.0,0.0,0.0,0.0,0.0,0.0,0.0,0.0,0.0,0.0,0.0,0.0,0.0,0.0,0.0,0.0,0.0,0.0,0.0,0.0,0.0,0.0,0.0,0.0,0.0,0.0,0.0,0.0,0.0,0.0,0.0,0.0,0.0,0.0,0.0,0.0,0.0,0.0,0.0,0.0,0.0466,0.0467,0.0,0.094,0.1143,0.0193,0.0,0.0,0.0579,0.0872,0.1162,0.1519,0.1627,0.1618,0.1884,0.2446,0.2743,0.2932,0.3635,0.4185,0.4701,0.5192,0.5691,0.6285,0.7127,0.787,0.7849,0.8581,0.8478,0.8092,0.7923,0.7816,0.7873,0.8122,0.8302,0.8548,0.9064,1.0311,1.139,1.2344,1.3459,1.4898,1.6125,1.653,0.0,0.0,0.0,0.0,0.0,0.0,0.0,0.0,0.0,0.0,0.0,0.0,0.0,0.0,0.0,0.0,0.0,0.0,0.0,0.0,0.0,0.0,0.0,0.0,0.0,0.0,0.0,0.0,0.0,0.0,0.0,0.0,0.0,0.0,0.0,0.0,0.0,0.0,0.0,0.0,0.0,0.0,0.0,0.0,0.0,0.0,0.0,0.0,0.0,0.0,0.0,0.0,0.0,0.0,0.0,0.0,0.0,0.0,0.0,0.0,0.0,0.0,0.0,0.0,0.0,0.0,0.0,0.0,0.0,0.0,0.0,0.1623,0.1536,0.116,0.2538,0.2571,0.12,0.0497,0.0885,0.1964,0.2192,0.2784,0.3546,0.4009,0.3895,0.297,0.3649,0.416,0.4456,0.5003,0.52,0.5273,0.5745,0.6299,0.6804,0.7307,0.7882,0.8452,0.9685,0.9921,0.9279,0.8926,0.8562,0.8634,0.9405,0.9422,0.9127,1.0035,1.1591,1.235,1.3263,1.4286,1.5335,1.6556,1.7251,0.0,0.0,0.0,0.0,0.0,0.0,0.0,0.0,0.0,0.0,0.0,0.0,0.0,0.0,0.0,0.0,0.0,0.0,0.0,0.0,0.0,0.0,0.0,0.0,0.0,0.0,0.0,0.0,0.0,0.0,0.0,0.0,0.0,0.0,0.0,0.0,0.0,0.0,0.0,0.0,0.0,0.0,0.0,0.0,0.0,0.0,0.0,0.0,0.0,0.0,0.0,0.0,0.0,0.0,0.0,0.0,0.0,0.0,0.0,0.0,0.0,0.0,0.0,0.0,0.0,0.0,0.0659,0.123,0.1609,0.2004,0.2713,0.3304,0.3033,0.267,0.3381,0.4294,0.4011,0.3503,0.3191,0.3394,0.36,0.3692,0.4025,0.4265,0.4343,0.4199,0.4801,0.5447,0.594,0.6317,0.6331,0.6254,0.6648,0.7202,0.7325,0.7928,0.8718,0.9505,1.0676,1.1833,1.1159,1.0682,1.0677,1.0749,1.109,1.0853,1.0519,1.2029,1.3702,1.4004,1.4471,1.5862,1.7078,1.7762,1.8378,0.0,0.0,0.0,0.0,0.0,0.0,0.0,0.0,0.0,0.0,0.0,0.0,0.0,0.0,0.0,0.0,0.0,0.0,0.0,0.0,0.0,0.0,0.0,0.0,0.0,0.0,0.0,0.0,0.0,0.0,0.0,0.0,0.0,0.0,0.0,0.0,0.0,0.0,0.0,0.0,0.0,0.0,0.0,0.0,0.0,0.0,0.0,0.0,0.0,0.0,0.0,0.0,0.0,0.0,0.0,0.0,0.0,0.0,0.0,0.0,0.0,0.0858,0.0953,0.0,0.1617,0.1902,0.2104,0.2691,0.2992,0.3302,0.3949,0.4753,0.4482,0.4397,0.5114,0.6024,0.6232,0.5122,0.4316,0.4718,0.4918,0.5402,0.5586,0.5501,0.5805,0.6142,0.6243,0.6901,0.6895,0.7279,0.7493,0.7543,0.7775,0.8008,0.8075,0.8623,0.9702,1.0779,1.2037,1.3204,1.3599,1.3339,1.3115,1.2892,1.2389,1.2685,1.2745,1.4297,1.5468,1.5953,1.6772,1.8064,1.8851,1.9262,1.9806,0.074,0.074,0.0494,0.0,0.037,0.0,0.0,0.0,0.0,0.0,0.0,0.0,0.0,0.0,0.0,0.0,0.0,0.0,0.0,0.0,0.0,0.0,0.0,0.0,0.0,0.0,0.0,0.0,0.0,0.0,0.0,0.0,0.0,0.0,0.0,0.0,0.0,0.0,0.0,0.0,0.0,0.0,0.0,0.0,0.0,0.0,0.0,0.0,0.0,0.0,0.0,0.0,0.0292,0.0,0.0,0.0,0.0,0.0,0.0,0.0,0.0868,0.2016,0.2306,0.2786,0.3554,0.366,0.3878,0.4296,0.4522,0.4835,0.4706,0.5608,0.6119,0.6129,0.7132,0.7849,0.7656,0.5932,0.5625,0.6027,0.6329,0.6614,0.7114,0.7325,0.7746,0.8065,0.8072,0.8082,0.8085,0.8092,0.8126,0.8197,0.824,0.827,0.8357,0.9996,1.0966,1.1821,1.316,1.434,1.5403,1.5057,1.4527,1.3753,1.3437,1.3903,1.464,1.5833,1.6872,1.7749,1.8402,1.9107,1.9844,2.0657,2.1346,0.4059,0.3936,0.2585,0.2094,0.1847,0.0617,0.0,0.0,0.0,0.0,0.0,0.0,0.0,0.0,0.0,0.0,0.0,0.0,0.0,0.0,0.0,0.0,0.0,0.0,0.0,0.0,0.0,0.0,0.0,0.0,0.0,0.0,0.0,0.0,0.0,0.0,0.0,0.0,0.0,0.0,0.0,0.0,0.0,0.0,0.0,0.0,0.0,0.0,0.0,0.0,0.0,0.0,0.1096,0.0697,0.0,0.0,0.0,0.0,0.0,0.1194,0.1694,0.2193,0.3075,0.3671,0.4069,0.4268,0.4856,0.5669,0.6487,0.7205,0.7329,0.7332,0.7534,0.7637,0.7637,0.8052,0.7856,0.7456,0.7062,0.739,0.7572,0.7659,0.7882,0.8123,0.817,0.8208,0.8225,0.8265,0.8306,0.8412,0.8426,0.8411,0.8418,0.8401,0.8445,1.0767,1.2359,1.293,1.4113,1.5425,1.619,1.6188,1.57,1.5008,1.4936,1.5481,1.6432,1.739,1.838,1.9257,1.9645,1.9935,2.1087,2.224,2.2843,0.4918,0.4795,0.4057,0.369,0.3568,0.2954,0.2585,0.2585,0.2586,0.2585,0.2585,0.2585,0.2585,0.258,0.2568,0.2534,0.2398,0.2409,0.241,0.2377,0.2357,0.2335,0.2091,0.1596,0.0,0.0,0.0,0.0,0.0,0.0,0.0,0.0,0.0,0.0,0.0,0.0,0.0,0.0,0.0,0.0,0.0,0.0,0.0,0.0,0.0,0.0,0.0,0.0,0.0,0.0,0.0,0.131,0.1812,0.2113,0.2012,0.2114,0.2013,0.2013,0.2012,0.2815,0.3313,0.4116,0.472,0.5422,0.5822,0.6216,0.6224,0.693,0.7335,0.8038,0.7939,0.8041,0.8038,0.8038,0.8048,0.8089,0.8133,0.8153,0.8184,0.8218,0.8113,0.8004,0.8089,0.8241,0.8306,0.8343,0.8474,0.864,0.8815,0.9039,0.9242,0.9665,0.9965,1.0184,1.0355,1.1893,1.3431,1.4031,1.5047,1.639,1.6927,1.6891,1.6599,1.6104,1.649,1.6978,1.7855,1.878,1.9778,2.0863,2.1719,2.2503,2.3018,2.372,2.4405,0.5896,0.5896,0.5529,0.5406,0.5406,0.5039,0.4795,0.4918,0.4795,0.4673,0.4918,0.4795,0.4795,0.4794,0.4782,0.4745,0.4671,0.4553,0.4399,0.4211,0.4312,0.4511,0.4133,0.3531,0.2601,0.1792,0.1791,0.056,0.0,0.0,0.0,0.0,0.0,0.0,0.0,0.0,0.0,0.0883,0.0875,0.086,0.0524,0.0,0.0,0.0,0.0,0.0,0.0,0.0,0.0,0.0,0.1108,0.2113,0.2514,0.3717,0.4518,0.4718,0.4318,0.4016,0.4016,0.4318,0.4722,0.5425,0.6132,0.6933,0.7434,0.7534,0.7836,0.8038,0.8038,0.8038,0.8045,0.8075,0.8089,0.8109,0.8136,0.8174,0.8269,0.8319,0.835,0.8367,0.8367,0.8364,0.835,0.845,0.8619,0.9429,0.9568,1.016,1.0343,1.0391,1.0699,1.1366,1.1805,1.2288,1.2705,1.342,1.4365,1.4683,1.5828,1.7088,1.7394,1.7559,1.7475,1.7669,1.7753,1.8343,1.918,2.0019,2.0887,2.2143,2.381,2.4447,2.4255,2.484,2.5775,0.9207,0.9083,0.7731,0.7116,0.6872,0.5651,0.504,0.504,0.5163,0.4918,0.5286,0.504,0.5163,0.5284,0.5156,0.4953,0.4878,0.5101,0.5176,0.5177,0.5054,0.5049,0.4679,0.4397,0.3712,0.3019,0.3465,0.2237,0.0,0.0,0.0,0.0,0.1454,0.19,0.2013,0.2796,0.391,0.389,0.3842,0.3241,0.2016,0.0835,0.0,0.0,0.0,0.0,0.0,0.0,0.0,0.0,0.1511,0.2614,0.3715,0.5022,0.6329,0.6426,0.562,0.4016,0.4418,0.5222,0.5827,0.6431,0.7036,0.764,0.7939,0.8041,0.8041,0.8038,0.8048,0.8075,0.8116,0.818,0.8221,0.8272,0.8316,0.8381,0.8455,0.8465,0.8499,0.8564,0.8581,0.8543,0.8516,0.872,0.8937,0.9867,1.0805,1.13,1.1889,1.1921,1.2159,1.2825,1.363,1.4223,1.4445,1.5176,1.5386,1.5515,1.6475,1.7646,1.8168,1.855,1.936,1.9597,1.9668,1.9534,2.0036,2.0824,2.1898,2.3046,2.4323,2.4765,2.4787,2.5786,2.7128,0.9819,0.9697,0.9079,0.8714,0.8711,0.7978,0.7731,0.7734,0.7612,0.7734,0.7734,0.7734,0.7734,0.7479,0.7554,0.7544,0.7407,0.7145,0.7159,0.694,0.6935,0.694,0.6899,0.6214,0.5306,0.4808,0.447,0.3911,0.2684,0.2461,0.2573,0.2573,0.313,0.3465,0.3575,0.4136,0.4359,0.4448,0.44,0.4127,0.3547,0.2865,0.2522,0.2522,0.25,0.2375,0.2254,0.235,0.2335,0.2524,0.3518,0.442,0.5322,0.6329,0.7434,0.7637,0.703,0.6326,0.6426,0.6833,0.6933,0.7135,0.764,0.7939,0.8038,0.8055,0.8099,0.8167,0.817,0.8197,0.8262,0.835,0.8374,0.8418,0.8476,0.8547,0.8598,0.8615,0.8645,0.8723,0.8777,0.8939,0.9012,0.913,0.9452,1.0349,1.1267,1.1846,1.2851,1.3735,1.3971,1.4399,1.524,1.6013,1.6218,1.6628,1.6603,1.6721,1.6721,1.7893,1.8933,1.9668,2.0443,2.1081,2.1307,2.1249,2.1156,2.1494,2.2325,2.3506,2.474,2.5221,2.5786,2.7452,2.8621,0.9819,0.9819,0.9819,0.9819,0.9819,0.9819,0.9697,0.97,0.9697,0.9697,0.9819,0.9697,0.9697,0.9802,0.9473,0.9245,0.9322,0.9279,0.913,0.9069,0.9039,0.8802,0.8326,0.7676,0.7107,0.6702,0.6255,0.5472,0.525,0.525,0.525,0.4582,0.4804,0.5027,0.5139,0.5586,0.6031,0.6024,0.5414,0.516,0.4916,0.4527,0.439,0.4374,0.4462,0.443,0.4275,0.416,0.4125,0.4203,0.5213,0.5836,0.6241,0.7169,0.7985,0.8191,0.7785,0.7778,0.7746,0.7912,0.7955,0.8048,0.8099,0.8136,0.8177,0.8157,0.818,0.8316,0.8323,0.8377,0.8455,0.8499,0.8537,0.856,0.8598,0.8672,0.873,0.8953,0.9295,0.957,0.973,0.9757,0.9851,0.9662,1.0108,1.0874,1.1647,1.2512,1.3804,1.5204,1.553,1.5855,1.618,1.6935,1.7147,1.7364,1.7582,1.7793,1.7793,1.8603,1.9914,2.0609,2.1216,2.1968,2.2788,2.3657,2.4022,2.3362,2.28,2.4005,2.5147,2.6196,2.7221,2.8803,2.9702,0.9819,0.9819,0.9819,0.9819,0.9819,0.9819,0.9819,0.9819,0.9819,0.9819,0.9819,0.9819,0.9819,0.9808,0.9774,0.9693,0.9578,0.9432,0.9262,0.912,0.9025,0.8981,0.8739,0.851,0.8066,0.7263,0.7371,0.7371,0.7035,0.7482,0.6478,0.5027,0.6142,0.6478,0.6813,0.7371,0.7817,0.7706,0.7114,0.6561,0.6201,0.5595,0.4895,0.4768,0.4717,0.4559,0.4554,0.487,0.496,0.5041,0.6078,0.6709,0.7007,0.7745,0.837,0.8374,0.8377,0.8374,0.8347,0.8211,0.8079,0.8089,0.8167,0.8289,0.8357,0.8421,0.8459,0.8563,0.8675,0.88,0.8755,0.8697,0.9419,0.9555,0.9804,0.9757,0.9701,0.9392,0.9742,1.0327,1.0672,1.0891,1.1109,1.1105,1.1538,1.2295,1.348,1.4341,1.553,1.6717,1.6935,1.7153,1.7259,1.7477,1.747,1.7786,1.8094,1.8401,1.861,1.9723,2.1245,2.1727,2.2214,2.3386,2.4506,2.5678,2.6273,2.4891,2.4177,2.4802,2.5652,2.6996,2.8146,2.9465,2.9907,0.9819,0.9819,0.9819,0.9819,0.9819,0.9819,0.9819,0.9819,0.9819,0.9819,0.9819,0.9819,0.9819,0.9802,0.972,0.9666,0.9591,0.9452,0.9303,0.9188,0.9093,0.9022,0.8981,0.8826,0.8605,0.8156,0.8602,0.8826,0.8266,0.8712,0.8377,0.7706,0.7706,0.7931,0.8377,0.8491,0.8826,0.8826,0.8377,0.8042,0.7919,0.7671,0.7188,0.7177,0.727,0.718,0.7127,0.7116,0.7068,0.7026,0.7437,0.7548,0.766,0.8295,0.8509,0.8509,0.8513,0.8509,0.8499,0.8381,0.8319,0.8319,0.8374,0.8536,0.8506,0.8492,0.8547,0.8789,0.9462,0.9796,1.015,1.0949,1.1747,1.1436,1.1133,1.0958,1.0983,1.066,1.1093,1.1969,1.2186,1.2403,1.2512,1.2724,1.3151,1.3798,1.5097,1.618,1.7041,1.7589,1.7589,1.7793,1.7793,1.7891,1.7884,1.8297,1.8812,1.9117,1.942,2.0735,2.2156,2.2767,2.3439,2.4723,2.5457,2.5749,2.5845,2.5594,2.5722,2.6368,2.7234,2.8221,2.9255,3.0224,3.0522,0.9819,0.9819,0.9819,0.9819,0.9819,0.9819,0.9819,0.9819,0.9819,0.9819,0.9819,0.9819,0.9819,0.9788,0.973,0.9683,0.9629,0.9483,0.934,0.9222,0.9123,0.9039,0.8967,0.8937,0.8826,0.8937,0.8937,0.8826,0.8716,0.8937,0.8712,0.8712,0.8937,0.8826,0.8826,0.8937,0.8937,0.8937,0.8937,0.8937,0.8826,0.8819,0.8706,0.8702,0.8575,0.854,0.8468,0.8336,0.8409,0.8353,0.8535,0.8521,0.8625,0.8618,0.8618,0.8615,0.8615,0.8611,0.8604,0.8523,0.8516,0.8523,0.854,0.8577,0.8601,0.8615,0.871,0.8865,0.9954,1.1069,1.1214,1.2054,1.269,1.2356,1.1666,1.148,1.2389,1.2512,1.3048,1.3696,1.3588,1.3372,1.4669,1.4883,1.4556,1.4877,1.5091,1.6174,1.7259,1.7589,1.7589,1.7891,1.8094,1.8192,1.8297,1.9317,2.0231,2.0341,2.0743,2.1752,2.2868,2.3583,2.4187,2.5101,2.5496,2.5496,2.6197,2.7126,2.764,2.8121,2.8978,2.9809,3.0233,3.1146,3.1681,0.9819,0.9819,0.9819,0.9819,0.9819,0.9819,0.9819,0.9819,0.9819,0.9819,0.9819,0.9819,0.9819,0.9819,0.9788,0.9781,0.9734,0.9537,0.9401,0.9344,0.9167,0.9011,0.8957,0.8954,0.8937,0.8937,0.8937,0.8937,0.8937,0.8937,0.8937,0.8937,0.8937,0.8937,0.8937,0.8937,0.8937,0.8937,0.8937,0.8937,0.8937,0.8937,0.8937,0.8937,0.8937,0.8913,0.8899,0.8886,0.8862,0.8845,0.8845,0.8845,0.8852,0.8859,0.8866,0.8872,0.8882,0.8896,0.8896,0.8642,0.8611,0.8689,0.8706,0.8747,0.8866,0.8903,0.8872,0.8986,1.0194,1.1076,1.1647,1.2512,1.3264,1.3788,1.3204,1.3086,1.4003,1.4465,1.4995,1.5316,1.4561,1.4234,1.618,1.7153,1.6393,1.5962,1.5524,1.6174,1.7259,1.7589,1.7589,1.7996,1.8297,1.8812,1.9213,2.0735,2.1651,2.1659,2.2165,2.3176,2.3683,2.4088,2.4777,2.5548,2.6038,2.6418,2.7814,2.9226,2.9488,2.9776,3.0579,3.131,3.1711,3.2133,3.2788,0.9819,0.9819,0.9819,0.9819,0.9819,0.9819,0.9819,0.9819,0.9819,0.9819,0.9819,0.9819,0.9819,0.9819,0.9812,0.9808,0.9785,0.9771,0.9649,0.9493,0.9283,0.9184,0.9089,0.8977,0.894,0.8937,0.8937,0.8937,0.8937,0.8937,0.8937,0.8937,0.8937,0.8937,0.8937,0.8937,0.8937,0.8937,0.8937,0.8937,0.8937,0.8937,0.8937,0.8937,0.8937,0.8937,0.8937,0.8937,0.8937,0.8937,0.8937,0.8937,0.8937,0.8937,0.8937,0.8937,0.8937,0.8937,0.893,0.8825,0.8815,0.8842,0.8855,0.8872,0.8933,0.8937,0.8937,0.9372,1.0672,1.1538,1.2512,1.3911,1.4883,1.6174,1.6031,1.6037,1.6499,1.6511,1.6836,1.6829,1.6393,1.6068,1.7153,1.7589,1.7047,1.714,1.6704,1.6605,1.7582,1.7589,1.7589,1.7989,1.8506,1.9117,2.0033,2.1752,2.2868,2.3076,2.3692,2.4815,2.502,2.4805,2.5567,2.6436,2.6914,2.7494,2.8855,3.0112,3.0927,3.1551,3.2134,3.22,3.2085,3.2974,3.4163,0.9819,0.9819,0.9819,0.9819,0.9819,0.9819,0.9819,0.9819,0.9819,0.9819,0.9819,0.9819,0.9819,0.9808,0.9771,0.9747,0.9741,0.9676,0.9578,0.9456,0.9351,0.9188,0.9062,0.8994,0.8947,0.8937,0.8937,0.8937,0.8937,0.8937,0.8937,0.8937,0.8937,0.8937,0.8937,0.8937,0.8937,0.8937,0.8937,0.8937,0.8937,0.8937,0.8937,0.8937,0.8937,0.8937,0.8937,0.8937,0.8937,0.8937,0.8937,0.8937,0.8937,0.8937,0.8937,0.8937,0.8937,0.8937,0.893,0.893,0.9123,0.9786,0.9265,0.8937,0.9044,0.9482,0.9699,1.0241,1.1428,1.2615,1.3911,1.531,1.628,1.747,1.747,1.7364,1.7364,1.7371,1.7378,1.7582,1.7681,1.7687,1.7687,1.7589,1.7477,1.7681,1.7989,1.7989,1.7891,1.7996,1.8108,1.8422,1.922,2.0231,2.1448,2.2976,2.389,2.4295,2.502,2.5645,2.5635,2.5323,2.637,2.7315,2.7494,2.8132,2.967,3.0909,3.1855,3.2574,3.3195,3.3053,3.2593,3.3913,3.5669,0.9819,0.9819,0.9819,0.9819,0.9819,0.9819,0.9819,0.9819,0.9819,0.9815,0.9805,0.9808,0.9788,0.9761,0.9666,0.9618,0.9591,0.9473,0.9367,0.9249,0.9218,0.9093,0.9022,0.8957,0.894,0.8937,0.8937,0.8937,0.8937,0.8937,0.8937,0.8937,0.8937,0.8937,0.8937,0.8937,0.8937,0.8937,0.8937,0.8937,0.8937,0.8937,0.8937,0.8937,0.8937,0.8937,0.8937,0.8937,0.8937,0.8937,0.8937,0.8937,0.8937,0.8937,0.8937,0.8937,0.8937,0.9154,0.9265,0.9372,1.0131,1.0891,1.0131,0.9372,0.9699,1.0676,1.1,1.1755,1.2832,1.4019,1.531,1.6174,1.7035,1.747,1.7582,1.7582,1.7582,1.7589,1.7589,1.7687,1.7891,1.7989,1.8199,1.8094,1.8708,1.9013,1.9317,1.9213,1.9109,1.8805,1.893,1.9071,2.0071,2.1448,2.2767,2.3908,2.4609,2.5011,2.5216,2.5732,2.5732,2.6014,2.6754,2.74,2.7861,2.8958,3.0777,3.1965,3.276,3.3471,3.4191,3.4171,3.3757,3.5856,3.7486,0.9819,0.9819,0.9819,0.9819,0.9819,0.9819,0.9819,0.9819,0.9819,0.9774,0.9673,0.9778,0.9696,0.952,0.9574,0.9527,0.9462,0.9405,0.9374,0.9286,0.9181,0.9133,0.9066,0.8984,0.8954,0.8937,0.8937,0.8937,0.8937,0.8937,0.9047,0.8937,0.9261,0.9154,0.9154,0.8937,0.9154,0.9044,0.9154,0.8937,0.8937,0.8937,0.8937,0.8937,0.8937,0.8937,0.8937,0.8937,0.8937,0.8937,0.8937,0.8937,0.8937,0.8937,0.8937,0.9047,0.9699,1.0566,1.0676,1.1433,1.2191,1.2512,1.2077,1.2186,1.2186,1.2403,1.2724,1.3264,1.3911,1.4883,1.5636,1.6387,1.7147,1.747,1.7589,1.7589,1.7589,1.7589,1.7589,1.7793,1.7996,1.8603,1.8812,1.9716,2.0333,2.0538,2.0641,2.0633,2.0326,2.0025,1.9879,2.0028,2.1003,2.2484,2.3411,2.4449,2.5137,2.5635,2.582,2.6004,2.6197,2.6562,2.7115,2.8121,2.9418,3.0789,3.2251,3.3142,3.3556,3.4415,3.5047,3.4966,3.544,3.7334,3.8751,0.9819,0.9819,0.9819,0.9819,0.9812,0.9761,0.9737,0.9737,0.9737,0.9683,0.9615,0.9629,0.9547,0.9415,0.9408,0.9367,0.9296,0.9279,0.9239,0.915,0.9171,0.9106,0.9049,0.8991,0.895,0.8937,0.8937,0.8937,0.9047,0.9588,0.9805,0.9915,1.0131,1.0566,1.0781,1.1,1.0891,1.0347,0.9809,0.9154,0.8937,0.8937,0.8937,0.8937,0.8937,0.8937,0.8937,0.8937,0.8937,0.9154,0.9265,0.9805,1.0025,1.0241,1.0672,1.1,1.1428,1.1969,1.2077,1.2615,1.3372,1.3911,1.4126,1.4454,1.4454,1.4556,1.4341,1.4347,1.4883,1.5417,1.5956,1.6387,1.6929,1.7477,1.7582,1.7589,1.7589,1.7589,1.7687,1.7793,1.8408,1.922,2.0025,2.1143,2.1744,2.1541,2.1853,2.2265,2.1954,2.1448,2.113,2.102,2.2165,2.3511,2.4251,2.496,2.5723,2.6294,2.6658,2.6849,2.6839,2.7484,2.8391,2.9863,3.1512,3.2599,3.3386,3.3713,3.4191,3.5129,3.6067,3.6383,3.6965,3.837,3.947,0.9819,0.9819,0.9808,0.9791,0.9781,0.9652,0.9591,0.9588,0.9568,0.9568,0.953,0.9442,0.9378,0.9286,0.9245,0.9191,0.915,0.9137,0.9093,0.8954,0.9062,0.9055,0.8988,0.8937,0.8937,0.8937,0.8937,0.9154,0.9588,1.0457,1.1324,1.1324,1.2295,1.2615,1.2512,1.262,1.2403,1.2186,1.0891,0.9805,0.9372,0.9044,0.8937,0.8937,0.8937,0.8937,0.8937,0.8937,0.8937,0.9372,1.0021,1.0887,1.1647,1.2186,1.2724,1.3156,1.3156,1.3372,1.3588,1.4019,1.4669,1.5204,1.563,1.6068,1.618,1.6068,1.5749,1.5636,1.6174,1.6499,1.6823,1.7041,1.7364,1.7555,1.7528,1.7962,1.8297,1.8499,1.8812,1.9117,1.993,2.0641,2.1253,2.2357,2.3276,2.2868,2.2968,2.3692,2.3619,2.3003,2.2687,2.2503,2.3409,2.444,2.4637,2.543,2.638,2.6945,2.7421,2.7945,2.8121,2.8947,2.9852,3.0956,3.2052,3.325,3.4121,3.4275,3.4828,3.6146,3.7007,3.771,3.8664,3.9768,4.0324,0.9819,0.9808,0.9703,0.9659,0.9639,0.95,0.9435,0.9425,0.9306,0.9384,0.9273,0.932,0.9252,0.9089,0.913,0.9096,0.9015,0.9018,0.8974,0.895,0.8998,0.9005,0.8947,0.8937,0.8944,0.8937,0.9047,0.9607,1.0806,1.1882,1.2729,1.2837,1.3588,1.3804,1.3696,1.3696,1.3696,1.3804,1.2724,1.1538,1.0781,0.9588,0.8937,0.9047,0.9047,0.9265,0.9265,0.9154,0.9047,0.9154,1.0351,1.1542,1.2729,1.3156,1.3372,1.348,1.4449,1.4776,1.5097,1.5636,1.6287,1.6611,1.7041,1.7259,1.7364,1.7153,1.7147,1.7147,1.7252,1.7477,1.7589,1.7589,1.7681,1.7738,1.7809,1.8464,1.9013,1.9517,2.0025,2.0641,2.1456,2.2064,2.2576,2.3411,2.4402,2.4805,2.4913,2.5245,2.5321,2.4947,2.4796,2.4662,2.474,2.5371,2.5527,2.5869,2.6911,2.7831,2.8344,2.885,2.951,3.0226,3.1045,3.1412,3.2215,3.3505,3.4358,3.4594,3.5373,3.693,3.8103,3.8796,3.9978,4.11,4.1496,0.9625,0.9618,0.954,0.951,0.9479,0.9344,0.9283,0.9367,0.9785,1.0047,0.9947,0.9462,0.9086,0.8944,0.9025,0.9147,0.8944,0.894,0.8944,0.894,0.9154,0.8944,0.8937,0.9158,0.9001,0.9008,0.9906,1.0794,1.2174,1.3403,1.4234,1.4341,1.4663,1.5097,1.5102,1.5204,1.5097,1.531,1.4556,1.3804,1.2724,1.1647,1.0891,1.0891,1.0781,1.0781,1.0891,1.0887,1.0891,1.1214,1.2403,1.3906,1.4883,1.5423,1.5316,1.553,1.5962,1.6393,1.6611,1.7041,1.7589,1.7589,1.7589,1.7582,1.7582,1.7371,1.7371,1.747,1.747,1.7589,1.7589,1.7589,1.8199,1.8471,1.9078,1.9792,2.0418,2.1041,2.1143,2.1143,2.2064,2.2976,2.3655,2.459,2.5424,2.5746,2.5995,2.6131,2.6349,2.6419,2.634,2.6419,2.631,2.626,2.6336,2.6794,2.7492,2.837,2.9278,3.0262,3.1055,3.1572,3.2152,3.2463,3.2896,3.3746,3.4511,3.5142,3.6489,3.813,3.9101,3.9923,4.11,4.2125,4.2504,0.9391,0.9381,0.9361,0.9354,0.933,0.9188,0.9127,0.9325,1.0307,1.0895,1.0907,0.9827,0.9265,0.9154,0.9154,0.9154,0.9265,0.9588,0.9372,0.9809,0.9809,1.0131,1.0131,0.9812,1.009,1.0715,1.1535,1.2621,1.3795,1.4979,1.5743,1.5956,1.6711,1.7582,1.7589,1.7582,1.7153,1.6823,1.628,1.5743,1.499,1.4126,1.3264,1.3053,1.3264,1.3264,1.3264,1.3264,1.327,1.3588,1.4126,1.553,1.6499,1.6935,1.7047,1.7047,1.7041,1.7259,1.7477,1.7477,1.7589,1.7589,1.7589,1.7589,1.7582,1.7687,1.7687,1.7687,1.7687,1.7687,1.7687,1.7891,1.8499,1.9554,2.0312,2.1107,2.1766,2.2584,2.2409,2.2207,2.2972,2.3999,2.4827,2.5781,2.6216,2.6443,2.6689,2.6875,2.7025,2.6991,2.6973,2.709,2.7157,2.7123,2.7007,2.7944,2.8649,2.9652,3.0764,3.1715,3.2592,3.2993,3.3295,3.3503,3.399,3.4721,3.5507,3.6318,3.7738,3.8943,4.0109,4.0883,4.1365,4.2379,4.3152,0.9381,0.9371,0.9249,0.9308,0.9288,0.9042,0.8981,0.8974,0.9282,0.9915,1.1,1.1,1.0676,1.0676,1.0676,1.0676,1.0676,1.0672,1.1647,1.2295,1.1864,1.2077,1.2105,1.1617,1.2337,1.2988,1.3768,1.4811,1.535,1.6398,1.7153,1.7147,1.7153,1.7589,1.7589,1.7589,1.7582,1.7364,1.7364,1.6935,1.628,1.5204,1.3588,1.3264,1.3264,1.3264,1.3264,1.3264,1.3264,1.3696,1.477,1.6174,1.7041,1.7589,1.7589,1.7589,1.7589,1.7589,1.7589,1.7589,1.7589,1.7589,1.7582,1.7687,1.7786,1.7891,1.7891,1.8094,1.8094,1.7996,1.7996,1.8094,1.8708,2.0395,2.1534,2.2451,2.3223,2.408,2.4526,2.4555,2.4803,2.5566,2.6126,2.6695,2.6754,2.6963,2.7021,2.7187,2.7256,2.7436,2.7642,2.7696,2.7796,2.7429,2.7266,2.9147,3.0079,3.1106,3.2101,3.2992,3.3714,3.422,3.4451,3.4606,3.5044,3.5731,3.6573,3.7374,3.8098,3.9192,4.0811,4.1772,4.2109,4.2691,4.3604]}]]